GFSSGP_925_thetae_000.txt.gz
Theta_e
350 353 354 354 345 341 346 348 347 351 353 350 350 351 357 356 359 364 350 353 353 352 352 352 349 348 348 347 346 346 347 350 349 350 349 345 341 343 347 347 345 343 345 346 346 347 346 348 350
353 353 355 351 338 343 351 345 346 347 352 352 352 353 354 359 352 351 352 354 354 353 352 353 350 349 349 347 348 348 351 352 348 346 344 341 342 346 350 349 347 348 348 347 347 348 347 346 345
353 354 357 340 340 341 349 349 351 351 348 345 352 351 351 356 351 350 352 354 354 355 354 355 350 351 353 351 351 351 352 352 346 342 344 341 348 349 351 346 344 345 345 348 351 346 344 343 343
354 355 353 342 345 346 348 350 349 347 345 345 347 355 353 351 351 350 353 354 355 356 356 351 349 350 350 352 350 350 350 349 345 346 344 344 350 355 354 352 345 345 349 348 348 345 344 344 343
353 354 340 342 349 348 347 345 343 343 343 345 345 351 356 353 351 351 353 354 354 355 356 355 349 348 351 351 351 353 352 353 348 346 348 352 354 355 352 351 349 345 345 343 343 343 343 343 344
352 348 340 342 349 350 350 348 342 345 347 348 349 353 359 352 350 352 352 352 353 354 355 356 351 350 349 350 349 351 352 352 347 344 347 346 347 345 345 345 347 347 346 344 343 344 343 342 342
348 340 340 341 351 352 351 349 344 344 345 348 348 354 356 352 350 351 351 352 351 353 354 355 354 352 354 354 352 352 350 353 348 343 342 342 343 343 344 346 346 345 345 348 348 344 343 343 343
348 341 339 339 341 350 351 348 346 346 350 348 347 352 360 351 350 350 350 351 353 353 354 353 353 353 353 352 349 348 348 348 343 342 342 342 343 343 341 345 343 344 349 354 354 351 347 346 346
343 337 337 338 341 350 350 350 351 348 354 355 353 349 351 350 349 349 350 351 352 351 352 354 355 355 355 353 351 346 343 343 342 342 342 343 348 351 350 350 350 346 351 353 353 352 350 347 343
339 335 336 340 341 347 349 350 352 353 358 360 357 354 352 349 349 349 349 350 351 352 352 351 352 353 354 353 354 352 351 349 348 349 351 350 351 352 351 350 350 347 346 347 348 346 344 345 348
334 335 343 347 347 348 350 351 349 351 353 357 359 357 352 349 349 349 349 348 349 351 351 352 353 354 353 352 352 351 351 350 351 353 353 352 352 351 351 349 349 349 348 347 347 347 348 347 347
336 347 347 350 348 347 347 348 355 355 355 356 354 353 352 351 348 348 348 348 349 350 351 352 354 355 354 353 352 351 351 351 350 350 352 351 351 350 349 348 348 348 347 347 347 347 348 348 346
342 349 351 350 347 346 344 349 357 359 356 355 355 355 354 352 349 348 348 348 349 351 352 352 354 355 355 355 352 351 350 349 349 349 350 351 350 350 349 349 349 347 347 349 349 349 348 348 346
345 349 349 346 342 342 344 348 347 359 357 357 356 356 355 353 352 350 348 348 349 349 350 353 354 355 356 355 355 354 352 351 350 349 349 351 351 350 349 349 348 348 347 349 349 348 349 348 347
348 351 351 346 348 343 341 346 353 358 358 357 356 357 356 355 355 354 353 353 353 353 352 353 355 356 356 356 355 355 352 351 350 349 350 351 351 351 351 349 348 348 349 347 348 349 349 348 348
344 344 347 348 348 346 351 349 353 353 355 357 357 357 357 356 355 355 356 356 356 356 356 357 357 355 356 356 354 355 353 351 349 347 347 349 351 352 346 347 348 348 350 347 347 347 348 349 347
341 340 340 347 349 349 349 348 351 350 350 353 355 356 356 356 355 355 355 357 356 354 356 358 358 356 354 355 354 353 352 352 351 350 349 351 350 348 346 345 346 343 347 348 346 347 348 347 347
335 337 339 341 346 349 348 351 349 349 348 350 352 353 354 354 354 354 355 356 357 358 358 358 357 357 357 356 357 354 353 351 351 352 351 352 353 351 351 349 349 349 348 347 348 347 348 347 347
330 332 337 338 342 345 347 354 349 348 349 347 347 352 352 352 351 353 355 355 356 356 357 358 358 358 357 357 356 355 355 354 353 353 353 353 353 353 352 346 349 350 349 349 350 351 349 347 346
329 330 332 340 344 346 353 354 353 349 345 348 347 351 351 352 352 353 353 355 355 356 357 358 358 359 358 356 356 355 353 350 351 353 352 351 349 349 348 348 346 346 346 347 349 349 349 346 345
331 331 332 337 348 347 353 356 360 353 352 349 351 350 352 353 353 353 353 353 354 355 357 358 358 358 360 358 353 348 343 346 342 343 342 345 346 345 345 345 344 345 347 345 345 346 347 347 344
332 333 333 335 350 344 349 343 361 357 357 354 351 354 353 354 354 353 351 353 353 354 357 361 361 359 354 348 345 345 337 339 340 340 339 341 341 342 342 343 343 344 344 345 344 345 347 345 346
334 338 339 341 348 347 355 348 342 354 358 355 353 351 351 352 353 352 349 350 351 356 358 357 353 349 345 345 341 337 338 336 338 337 337 339 339 340 340 341 342 342 342 342 342 342 345 345 343
338 343 343 343 339 342 337 343 335 342 352 351 352 353 353 352 352 352 349 351 355 354 351 346 346 345 343 340 340 340 340 338 336 337 337 335 336 337 338 338 338 339 339 339 340 340 343 344 344
335 335 335 336 336 335 337 339 336 336 348 347 350 353 353 351 351 352 354 354 352 352 346 342 344 344 342 337 336 337 337 337 337 338 333 336 334 334 333 334 334 334 335 336 337 337 339 340 343
332 331 331 333 332 330 340 334 337 343 343 342 347 350 352 351 350 351 354 352 352 349 343 342 344 343 338 337 339 339 338 333 334 335 336 333 333 332 334 333 333 334 334 334 335 336 336 337 337
332 332 331 332 330 330 331 336 339 342 343 344 348 351 354 349 349 351 352 351 349 343 343 343 343 341 338 338 340 339 338 338 335 336 336 333 334 332 330 332 333 333 334 335 336 334 334 335 335
333 332 332 331 334 335 332 331 332 337 337 344 346 351 354 349 349 350 350 349 344 342 342 342 342 341 339 338 338 334 335 336 335 335 335 335 334 334 333 333 333 333 333 333 333 332 332 334 335
332 333 334 333 334 334 334 332 335 334 335 338 346 350 353 348 346 349 349 348 342 341 340 340 341 340 338 338 336 335 334 335 334 333 334 335 334 334 333 334 334 333 333 333 332 332 330 330 331
332 332 334 336 341 335 334 332 335 334 336 337 340 349 350 351 343 342 347 347 341 341 338 338 338 337 336 336 335 334 334 335 333 333 333 333 333 333 333 333 335 334 333 333 333 332 331 331 330

GFSSGP_925_thetae_003.txt.gz
Theta_e
348 356 353 354 344 342 345 346 344 347 349 348 349 351 357 356 354 365 351 352 352 352 351 351 348 348 348 352 353 353 353 353 349 343 344 343 345 345 346 346 346 347 350 352 355 355 355 355 354
355 353 355 357 343 343 343 341 345 347 350 348 348 351 354 358 353 354 353 353 353 351 353 353 347 348 345 346 352 353 353 353 352 347 343 344 344 348 355 354 351 348 348 346 348 353 355 354 352
356 354 360 339 339 344 345 345 347 346 343 347 347 348 352 356 352 353 354 355 354 354 356 354 349 348 348 349 350 351 352 354 348 347 345 343 346 348 355 355 354 350 350 348 347 348 353 351 349
355 357 343 341 341 341 345 346 343 342 343 344 347 354 352 350 352 353 355 356 356 355 356 353 351 354 354 352 350 350 350 351 351 352 346 347 348 354 354 355 355 355 354 351 349 346 346 344 342
355 355 342 344 342 342 343 342 340 343 343 343 347 354 355 351 351 353 354 355 356 356 355 354 349 352 353 351 349 349 350 352 352 345 345 352 354 355 354 354 354 354 353 353 350 348 345 345 343
362 342 343 345 345 346 343 340 342 344 344 345 348 354 355 350 351 353 353 354 354 355 355 354 350 352 351 352 353 349 350 351 348 348 354 355 355 353 348 347 347 348 350 351 347 344 342 341 340
361 342 340 341 346 347 346 342 343 344 345 347 347 356 353 350 349 349 352 352 353 354 355 354 354 352 349 351 356 353 354 354 354 354 353 350 347 344 344 346 344 346 349 350 349 350 347 346 344
345 340 338 342 343 347 346 343 343 346 347 346 347 351 356 350 348 348 351 350 353 355 355 355 354 354 354 354 351 352 350 354 354 354 351 347 343 341 341 340 344 343 349 353 354 354 354 350 343
342 342 336 340 341 345 345 348 349 349 349 349 349 347 349 348 348 348 350 353 352 353 354 354 354 354 355 355 353 351 353 355 354 349 343 343 349 353 352 352 348 347 344 350 350 353 345 343 341
339 337 337 339 341 343 346 348 351 355 358 353 352 349 348 348 348 348 348 353 350 351 352 353 353 356 355 353 354 354 352 350 350 349 351 351 350 352 351 350 347 347 342 346 341 345 344 343 349
337 335 338 340 341 343 344 343 344 345 358 353 356 352 350 349 349 348 348 349 349 350 350 349 353 352 351 354 352 351 350 350 350 351 351 351 351 352 351 350 352 352 349 348 349 350 351 350 345
338 339 341 340 340 343 342 344 349 356 356 354 351 349 349 350 349 348 348 348 350 351 350 350 353 354 352 353 349 350 349 347 349 352 353 352 349 350 348 349 348 347 346 347 348 347 347 346 347
341 341 341 341 342 341 341 348 355 357 353 351 351 350 350 349 348 347 347 348 349 350 350 351 354 356 356 357 349 350 349 348 346 348 349 348 350 349 349 351 348 348 345 346 348 349 347 347 347
340 342 341 341 340 341 345 347 354 357 352 353 353 353 351 350 348 347 347 347 348 349 350 351 353 356 356 357 357 351 347 350 349 347 348 350 349 350 349 348 350 348 349 350 350 348 350 349 347
339 341 341 341 342 340 340 344 354 357 354 355 355 355 354 353 351 349 347 347 347 348 350 352 354 355 356 357 356 355 350 347 347 348 349 347 349 350 349 349 350 349 350 351 350 349 350 349 347
339 340 343 342 341 343 345 351 353 353 355 357 356 356 356 355 353 353 352 351 351 351 352 353 353 356 357 356 357 356 352 351 348 347 346 348 350 350 348 348 347 348 348 350 349 348 348 348 348
339 341 342 343 341 347 346 349 350 348 350 354 354 354 353 353 352 352 353 354 354 354 356 356 354 354 357 357 357 355 352 350 349 350 349 349 351 352 352 351 348 349 349 347 348 349 347 348 348
339 340 340 342 341 340 345 346 350 348 346 351 352 352 351 352 352 350 351 353 353 354 356 356 355 356 355 354 356 354 354 352 354 354 353 353 351 353 351 350 350 351 350 350 349 350 350 348 348
336 335 338 337 340 341 342 346 350 349 347 347 349 351 350 350 348 349 350 352 353 355 357 357 358 358 358 357 357 356 357 355 354 352 354 353 353 353 354 353 351 349 351 351 350 349 349 350 349
331 332 336 337 339 339 341 348 346 347 348 346 346 348 348 348 348 350 351 352 353 354 355 357 357 359 360 358 358 358 355 350 347 349 351 351 349 347 348 348 345 343 342 342 345 346 347 348 346
331 331 332 335 337 337 344 345 350 345 346 346 344 345 346 347 347 349 350 350 350 353 356 357 358 359 361 361 356 353 349 349 343 341 343 344 345 343 344 345 345 344 342 340 344 344 346 347 346
331 331 331 332 337 340 338 342 352 351 346 344 346 345 345 345 344 345 345 347 347 350 354 358 360 361 357 352 346 347 340 337 341 338 337 340 339 341 342 342 342 344 343 343 343 344 345 346 346
334 332 332 332 334 337 341 342 351 344 354 349 344 346 347 347 346 346 342 344 345 350 353 357 359 351 348 345 341 337 335 334 334 335 336 338 340 340 340 342 341 341 342 342 343 342 342 343 344
335 335 335 335 335 339 341 345 341 353 356 353 349 344 345 347 347 347 344 345 347 350 353 355 351 348 345 341 340 339 338 337 334 336 336 335 334 336 338 339 339 340 340 340 340 341 341 340 342
333 334 337 337 339 340 337 336 340 336 341 339 346 347 345 345 346 348 348 348 350 350 352 348 348 347 344 339 336 334 337 337 338 339 335 336 334 334 335 337 337 336 337 337 337 338 339 339 338
332 334 335 338 337 336 335 336 334 332 337 341 342 345 347 348 347 348 349 350 352 350 349 343 347 347 343 338 340 340 340 334 335 335 337 335 334 333 336 336 336 336 336 336 337 337 336 336 336
333 332 333 332 334 335 334 335 334 339 338 340 341 343 349 349 350 349 349 352 350 350 346 343 344 345 341 338 343 342 340 339 337 338 337 335 335 334 334 335 335 336 335 335 335 334 336 336 335
334 332 332 332 334 337 335 334 333 339 336 336 338 341 345 350 351 349 348 352 349 349 344 341 342 343 341 339 340 335 335 336 338 337 337 337 336 336 336 335 334 335 335 335 335 334 333 333 333
332 334 335 335 337 338 336 336 336 335 334 335 336 338 344 349 352 348 349 349 349 347 343 339 341 341 341 340 339 337 335 335 336 335 334 335 336 336 336 335 334 335 335 335 335 335 334 333 334
332 333 333 336 338 336 336 336 334 333 333 335 336 338 342 350 353 349 349 348 348 344 342 339 338 339 339 338 338 336 336 336 335 335 334 334 334 334 334 334 335 335 334 333 335 335 334 334 332

GFSSGP_925_thetae_006.txt.gz
Theta_e
344 353 357 355 360 344 346 345 345 346 349 348 352 358 349 356 355 364 350 353 353 352 351 354 351 349 350 350 350 351 352 349 347 344 344 344 343 341 341 342 341 343 346 352 350 348 352 352 350
350 357 354 359 345 342 345 344 346 346 345 348 351 354 357 360 353 353 352 352 352 351 352 353 348 348 350 350 350 350 353 349 344 343 343 345 347 349 349 347 348 349 350 352 354 355 353 345 346
347 355 358 350 343 344 344 344 344 343 344 347 350 351 353 357 353 354 352 353 353 355 354 347 347 345 348 350 351 351 351 351 344 343 342 346 347 347 348 347 348 351 351 355 353 352 353 347 345
355 353 356 339 340 341 340 341 341 344 345 347 349 352 352 353 354 353 353 354 356 356 355 349 347 347 349 350 350 351 351 349 345 342 344 344 347 353 354 354 354 353 353 354 354 349 347 344 344
353 358 346 342 342 341 340 339 340 343 343 347 350 353 354 355 355 355 355 355 355 356 355 355 354 353 354 351 352 350 345 345 345 342 342 347 350 354 355 355 354 352 348 350 350 347 343 343 341
352 352 344 346 343 343 337 338 340 342 346 347 351 353 353 352 352 354 355 356 354 354 355 355 354 354 353 354 351 351 347 347 344 345 348 350 350 353 352 353 353 351 351 351 345 344 342 341 341
347 350 346 346 349 345 345 338 341 343 346 350 348 354 351 350 350 354 355 356 355 355 355 355 354 351 350 354 351 349 347 345 343 345 349 353 353 348 347 349 346 348 346 350 350 353 347 346 344
352 352 342 344 351 347 343 339 341 344 346 347 348 352 353 348 350 351 353 355 355 355 355 355 354 354 355 352 353 353 352 349 346 348 349 352 348 348 349 345 347 349 346 341 346 344 343 340 339
348 346 342 341 344 347 346 346 343 343 347 348 349 348 348 347 349 350 353 355 356 354 355 354 355 355 354 354 354 352 354 353 354 352 346 342 350 351 349 341 343 347 344 338 339 339 342 342 341
338 339 340 340 341 347 344 346 347 349 350 349 346 348 347 347 347 352 349 351 352 353 355 354 354 355 355 354 349 354 354 354 350 351 350 352 350 351 350 348 347 348 348 347 348 346 347 348 348
337 337 337 342 343 347 344 352 350 357 352 350 349 350 348 348 348 347 352 349 351 352 351 353 354 352 356 354 352 353 353 352 351 350 351 351 351 348 351 349 351 349 347 349 349 348 351 351 349
338 341 339 339 344 343 342 349 349 350 350 350 347 348 348 348 348 347 347 347 350 348 352 353 352 356 354 353 352 353 354 352 349 352 350 349 347 350 351 350 349 348 348 346 346 345 350 349 346
339 340 339 342 342 342 344 348 352 343 349 347 346 348 348 348 347 346 346 347 349 348 350 352 354 350 354 352 351 349 350 349 349 351 349 350 349 349 349 350 352 348 348 348 348 350 350 348 348
339 340 339 340 339 342 345 348 350 352 350 348 348 348 348 348 348 347 346 347 348 349 349 351 353 352 352 356 355 353 349 349 347 348 349 347 350 349 349 349 350 351 349 351 351 351 348 349 349
339 339 340 338 342 342 341 349 353 352 351 352 351 350 349 348 347 347 347 347 348 348 348 350 349 357 356 355 357 357 353 348 347 347 345 347 350 349 350 347 347 348 351 350 348 350 350 350 349
339 340 340 342 344 341 344 353 353 351 353 354 353 352 352 351 350 349 347 347 346 348 350 351 351 356 357 358 356 357 355 352 351 348 347 347 349 348 347 348 348 348 348 349 349 349 348 349 349
339 341 343 344 343 342 344 350 352 350 350 351 353 352 353 352 353 352 352 351 351 351 351 352 353 356 358 358 359 356 356 352 351 351 349 349 348 352 349 349 352 350 348 349 350 349 349 349 347
339 342 344 345 343 345 346 348 349 347 348 350 350 349 351 351 349 352 354 352 353 352 354 354 353 353 355 356 354 355 354 353 354 354 354 352 353 350 349 351 349 349 349 349 347 347 346 347 349
339 339 343 342 345 348 346 347 348 345 347 350 350 349 349 348 350 350 353 355 353 353 353 356 357 357 357 356 353 355 354 354 354 354 350 350 349 349 352 351 349 348 348 346 345 346 347 346 347
335 335 337 340 340 342 349 349 348 345 345 348 350 350 349 349 348 348 347 347 348 355 356 355 356 356 358 356 358 357 354 354 351 350 353 351 349 348 345 346 346 342 344 344 341 341 344 345 345
334 332 333 339 339 338 339 349 348 346 345 345 346 348 348 348 348 351 350 349 350 352 355 355 357 356 357 358 358 352 353 346 345 346 347 346 344 341 342 344 345 343 342 342 343 342 342 344 344
332 331 332 333 337 338 339 343 352 348 345 346 345 346 346 347 348 349 350 351 350 353 354 355 356 358 359 355 347 345 337 333 342 339 339 336 336 338 339 341 342 343 342 341 342 343 342 342 343
331 332 331 332 332 333 335 340 351 348 347 344 344 344 345 345 346 347 347 348 348 353 354 358 359 358 353 347 339 340 338 336 332 334 335 336 336 338 340 340 342 340 341 341 340 341 340 340 341
331 335 333 332 332 336 335 340 347 351 354 346 344 343 345 345 346 346 345 346 346 350 353 359 359 350 346 343 341 339 336 337 336 337 337 337 335 334 337 340 339 338 338 338 337 338 338 339 339
332 335 338 337 337 338 336 338 347 346 344 348 353 350 344 346 347 348 347 347 347 350 353 358 353 350 345 340 338 335 335 337 337 339 338 336 334 334 337 338 337 337 337 337 337 337 336 337 336
332 334 336 343 339 338 339 341 346 340 345 349 351 350 345 344 348 349 351 348 351 352 355 353 352 350 345 340 336 336 338 338 338 339 339 337 335 336 334 337 336 336 336 335 336 333 335 336 333
333 335 334 335 335 334 337 338 336 336 336 334 338 336 346 344 346 349 351 350 352 353 354 352 352 351 346 340 341 342 341 340 339 339 338 336 337 337 336 336 335 335 334 334 333 334 333 334 334
333 333 333 334 340 340 335 335 337 344 338 336 335 336 340 347 347 347 349 352 354 353 353 350 350 351 344 342 343 343 339 337 339 339 338 337 336 336 337 336 336 335 335 335 335 334 334 334 332
332 333 333 333 334 337 338 339 342 345 340 336 335 336 336 339 347 351 350 353 355 352 352 347 348 350 345 340 341 339 335 335 337 337 336 335 336 336 337 336 336 335 335 335 334 333 334 333 334
332 333 335 337 341 340 342 337 337 336 335 334 335 335 338 341 345 353 351 355 355 352 350 346 344 346 344 342 340 339 337 336 336 336 336 335 335 334 334 334 334 334 335 335 333 334 334 334 333

GFSSGP_925_thetae_009.txt.gz
Theta_e
343 348 350 356 369 356 345 352 351 353 355 351 351 349 356 358 358 359 350 350 351 350 349 349 349 350 350 349 348 348 349 346 341 340 338 338 338 341 342 343 344 346 347 346 345 345 346 344 340
345 350 355 358 358 345 345 342 344 352 353 352 350 354 358 358 352 353 352 351 350 353 348 348 349 349 349 350 349 348 350 344 344 343 343 342 343 343 345 345 344 344 343 345 345 346 347 346 345
347 350 358 364 339 345 343 342 345 352 352 354 355 353 355 357 352 352 352 351 352 351 346 347 348 349 349 349 350 347 344 342 342 344 345 346 346 343 341 342 344 344 344 345 345 346 346 344 344
342 348 354 343 338 338 340 343 345 350 349 351 356 361 355 352 352 353 355 353 353 348 346 345 347 349 351 351 351 350 342 340 341 342 343 345 346 345 342 342 344 347 347 346 344 345 344 343 344
351 351 354 339 340 339 338 340 342 349 350 357 358 361 359 353 353 354 355 356 355 350 347 347 348 350 349 351 350 346 345 342 342 343 345 347 345 346 346 347 348 347 346 345 346 346 344 342 340
343 344 355 342 341 338 338 341 345 350 351 356 361 361 359 354 352 354 354 355 353 352 351 354 352 352 351 352 348 345 345 343 340 342 346 347 346 343 344 346 347 347 346 345 342 342 342 342 342
347 353 354 343 340 340 341 342 344 347 351 352 358 363 356 355 355 355 355 355 355 352 351 351 351 353 352 351 350 345 344 342 343 345 344 342 341 344 344 346 346 344 343 341 341 341 342 343 343
349 346 350 350 345 340 342 341 343 347 350 348 349 357 355 354 355 355 354 355 354 353 351 351 350 351 353 350 349 347 344 343 344 344 342 343 345 346 345 346 345 348 349 348 341 340 341 342 340
346 350 351 352 349 344 345 343 344 346 349 349 348 350 348 355 356 355 355 355 355 355 354 352 351 349 348 352 354 352 349 347 344 342 339 339 346 345 334 338 346 346 346 345 343 341 344 345 344
349 350 342 345 344 346 349 351 351 349 350 350 349 347 350 351 353 354 356 355 355 355 355 354 354 354 353 349 347 344 342 341 339 341 347 349 349 348 347 348 347 346 348 347 349 347 347 350 350
349 346 344 344 343 347 349 350 349 354 349 349 350 348 347 351 353 354 355 355 353 352 352 353 355 353 355 354 345 347 346 342 346 348 350 350 351 349 348 350 350 348 348 349 348 349 351 349 351
339 342 344 344 345 348 346 345 342 346 349 348 347 346 346 346 349 350 349 351 354 352 354 352 354 356 355 353 351 353 352 351 351 350 350 348 350 349 350 350 350 349 349 348 347 346 345 349 347
337 337 340 341 343 346 347 344 344 345 342 347 347 347 347 345 345 348 349 351 349 353 354 353 354 353 353 353 354 355 353 353 351 351 351 350 349 349 347 349 348 348 348 348 348 350 349 347 349
338 336 340 339 343 347 350 345 344 344 344 347 347 347 346 345 346 346 349 349 347 350 354 353 352 353 350 353 351 351 350 349 350 349 350 352 351 349 348 348 347 350 350 349 350 349 348 348 347
339 337 337 340 342 347 347 352 354 348 346 347 348 347 347 346 346 346 347 348 348 349 355 353 349 349 348 350 352 349 350 351 348 349 349 347 346 349 349 350 348 346 347 348 350 350 350 349 349
338 336 337 340 341 345 348 356 353 349 348 348 349 348 348 347 347 347 348 347 348 346 347 347 348 351 351 349 350 353 351 349 351 351 347 347 348 349 347 348 347 349 349 347 347 347 347 348 347
335 337 342 343 339 341 345 355 352 350 351 352 351 350 350 349 348 347 348 347 347 346 347 347 351 354 354 353 354 353 351 350 350 351 351 351 351 351 350 350 347 350 351 350 349 349 348 347 346
336 337 343 344 341 340 344 352 351 350 352 352 352 352 353 352 351 349 347 347 347 347 347 349 352 354 356 354 354 357 355 355 352 352 351 350 351 352 349 347 347 347 347 346 346 346 344 345 345
337 337 343 343 341 343 343 350 351 348 347 347 348 349 350 351 351 352 351 349 350 349 351 352 354 353 356 355 352 353 352 351 351 349 350 352 349 348 347 344 348 348 346 346 345 344 345 346 342
332 342 343 342 343 343 343 347 346 348 346 347 348 347 347 346 354 354 353 351 352 352 353 354 355 357 356 356 354 355 356 354 353 349 349 352 349 349 347 345 345 343 343 340 340 342 342 341 341
331 332 337 343 346 344 347 350 352 348 346 347 348 346 345 349 352 353 354 353 355 356 355 355 354 353 355 353 355 357 349 352 348 347 351 346 343 338 338 341 342 340 342 342 340 341 341 342 340
329 331 331 333 345 346 346 354 351 347 344 347 348 347 346 347 346 347 347 349 358 355 355 356 354 352 354 357 358 356 351 341 343 342 337 335 333 335 335 339 342 342 338 339 341 339 340 340 340
328 330 329 329 330 334 339 335 348 344 344 344 344 348 346 346 346 347 347 348 354 356 354 354 356 355 357 357 342 342 336 334 336 337 336 331 336 337 337 341 340 340 335 337 338 336 338 338 339
331 329 331 327 326 328 330 333 349 348 345 343 344 345 345 346 346 346 348 349 353 355 355 353 357 360 355 347 337 335 332 335 334 335 333 335 336 335 341 338 337 335 336 336 335 336 336 336 336
329 327 333 332 331 330 328 330 342 345 344 342 344 343 340 344 346 346 347 348 353 356 358 357 360 352 347 340 337 336 335 335 333 336 337 337 334 337 336 335 335 335 335 336 335 335 333 336 336
326 328 335 339 337 335 333 336 339 345 344 343 343 341 340 339 344 345 344 346 352 355 359 360 357 350 344 342 339 334 335 334 337 341 340 336 331 335 336 336 336 334 334 335 336 334 333 334 335
328 330 329 331 335 332 336 337 340 342 342 344 345 341 339 338 342 344 344 345 351 354 359 358 356 347 345 340 336 334 336 337 340 339 338 333 339 336 337 336 335 334 335 335 336 334 334 334 333
328 330 330 328 334 337 334 342 340 337 337 336 346 342 340 339 344 344 344 346 350 355 357 356 353 346 344 343 337 339 341 340 337 338 337 335 334 333 335 336 336 335 334 333 335 334 333 332 332
330 330 329 329 330 332 338 340 342 340 336 334 331 337 339 341 342 346 347 348 351 355 354 353 350 347 345 342 339 341 342 339 337 338 337 336 335 337 336 336 335 335 334 335 335 335 333 333 334
328 328 331 335 334 335 337 340 337 338 335 334 336 336 335 336 340 344 344 347 352 354 353 352 351 348 344 342 341 342 336 335 336 337 336 335 335 335 334 332 333 334 334 333 333 333 332 333 333

GFSSGP_925_thetae_012.txt.gz
Theta_e
346 345 350 355 362 346 355 358 349 354 352 352 351 352 357 357 353 359 349 347 348 348 348 350 351 352 352 347 344 344 342 339 340 338 338 340 343 343 343 345 346 347 349 347 347 344 342 342 344
346 351 355 358 358 344 347 351 357 352 349 350 352 355 356 360 352 351 351 346 347 348 348 350 351 351 347 347 347 346 341 337 336 336 337 338 339 339 341 342 343 342 341 343 343 344 344 343 343
346 350 358 362 345 347 358 353 354 350 350 352 354 353 354 357 352 351 351 346 348 348 348 349 349 348 347 347 346 342 341 342 341 340 338 338 340 341 344 344 341 340 342 344 345 346 344 344 344
349 348 347 344 338 348 354 356 354 353 350 354 357 359 353 352 352 351 351 350 346 348 349 348 349 349 349 349 342 342 343 343 344 344 343 341 342 343 348 344 343 344 344 344 345 343 342 342 346
347 344 346 336 338 347 352 353 352 357 358 357 355 360 358 353 354 351 352 349 346 347 347 349 349 350 349 348 342 342 341 340 342 343 345 346 347 346 344 343 343 343 344 343 342 342 342 340 341
342 342 350 343 339 342 348 348 354 360 359 357 358 358 356 354 355 354 353 348 346 345 346 349 348 352 352 352 349 343 341 340 342 344 346 344 344 344 343 343 344 345 346 344 343 343 343 342 343
346 346 349 349 345 348 351 348 358 360 360 359 355 359 354 353 355 355 354 349 347 347 348 351 351 350 349 348 350 346 343 340 342 344 345 346 344 340 342 343 344 344 344 344 346 346 345 342 342
344 345 346 344 342 343 347 345 350 357 360 354 353 360 358 352 353 355 353 351 350 353 353 353 352 353 352 349 346 343 343 342 341 342 341 341 342 341 341 342 343 347 348 348 346 341 342 343 343
343 345 349 347 346 344 341 348 348 350 357 354 352 354 354 353 353 354 354 354 352 351 350 350 352 351 348 350 351 344 341 340 339 338 338 340 342 344 341 340 342 343 346 346 345 345 344 346 345
346 349 348 344 344 346 346 348 348 352 354 352 352 352 355 355 354 354 354 354 353 353 350 347 347 349 349 349 352 346 343 340 338 337 339 343 348 348 348 347 348 345 347 347 347 346 346 348 350
345 348 344 343 343 346 348 350 349 351 353 352 355 357 355 355 354 355 354 354 354 353 352 352 350 350 349 349 347 346 343 340 338 341 347 349 348 349 347 349 349 349 349 349 348 349 348 347 348
343 343 343 343 349 345 346 345 340 350 350 348 354 355 355 354 354 355 354 354 354 354 353 353 353 352 353 349 345 344 344 340 344 345 348 349 349 349 348 349 348 350 349 349 349 347 348 348 348
342 343 344 346 344 343 342 342 344 349 348 346 349 352 353 352 353 355 353 353 353 352 352 355 355 353 354 355 350 351 351 349 350 350 349 349 349 347 349 349 349 347 348 349 349 349 348 347 348
342 342 343 346 345 344 342 342 343 349 347 347 346 347 348 351 350 348 351 352 353 352 352 353 354 353 354 353 353 353 354 354 353 352 351 350 351 349 349 347 347 347 347 349 349 349 349 349 348
341 342 346 348 348 349 347 351 349 346 347 348 348 346 345 344 346 347 350 350 351 353 354 354 353 352 353 353 352 351 352 351 351 351 349 349 351 351 349 349 349 348 346 346 345 347 346 347 347
336 338 341 342 349 349 349 358 349 346 348 348 348 347 347 345 344 347 348 346 349 353 353 352 352 352 351 350 350 349 348 350 351 347 350 351 349 347 349 348 347 347 347 348 346 347 347 348 347
330 335 343 344 342 348 349 355 348 345 347 348 348 347 347 346 344 346 348 347 346 351 352 352 349 348 349 349 349 350 350 350 348 350 351 350 351 350 350 348 348 347 346 346 346 346 346 344 344
333 339 343 343 341 345 352 353 350 347 346 348 348 347 347 347 345 346 346 347 347 347 349 350 349 350 353 352 351 352 352 353 351 351 349 349 349 348 349 348 346 345 345 346 345 345 343 344 346
332 340 341 341 339 350 352 353 353 350 349 349 348 348 349 348 345 346 347 347 347 347 347 347 350 352 355 354 353 353 356 354 352 351 351 352 351 349 346 343 343 345 342 342 340 341 342 344 341
328 337 342 341 339 339 351 354 351 351 351 351 351 351 350 350 348 348 349 349 348 347 346 348 352 353 355 355 353 351 352 352 352 352 350 350 348 347 347 345 345 344 342 340 341 341 340 340 340
329 339 341 340 341 341 350 351 350 350 350 345 349 351 351 352 351 349 350 351 349 349 349 351 353 354 356 354 354 354 354 354 353 348 348 351 346 339 336 340 341 339 340 338 340 339 339 339 339
326 330 339 343 344 347 343 354 349 347 346 343 346 348 349 352 351 351 350 349 352 351 350 353 354 355 355 356 353 355 351 350 344 347 339 335 332 334 335 337 339 340 339 337 338 337 337 337 338
327 327 327 342 343 339 347 348 350 344 344 343 342 346 345 352 352 353 351 350 352 353 351 353 353 352 351 352 353 357 353 340 342 337 335 332 336 336 337 340 341 339 332 335 336 335 336 336 336
328 327 325 324 325 335 342 343 337 349 344 341 340 346 345 350 352 352 352 350 353 354 354 353 354 352 352 355 355 350 337 335 336 336 335 335 336 333 338 340 336 333 331 334 334 334 332 336 336
326 322 324 327 327 326 321 346 344 344 344 341 340 347 345 347 348 351 349 350 355 355 356 356 354 353 354 357 343 338 333 333 332 331 332 337 336 338 338 335 333 332 330 333 334 334 332 334 335
322 321 325 330 332 329 327 330 329 339 342 340 340 346 345 346 345 346 344 348 354 355 355 357 355 354 358 351 338 332 333 334 332 335 336 336 334 335 335 335 335 335 333 335 335 336 334 334 335
324 325 324 327 329 329 330 331 336 338 341 340 340 345 344 346 345 345 345 346 352 354 355 356 356 355 355 349 335 336 334 334 334 337 340 336 332 336 336 336 335 334 334 333 333 335 333 333 333
323 323 327 323 330 331 330 334 336 343 342 341 340 340 338 344 345 345 345 346 350 353 355 356 354 353 351 341 339 335 333 331 337 339 338 335 336 335 334 335 336 335 334 333 333 334 335 333 332
327 326 324 324 325 328 329 335 332 336 341 342 342 340 337 337 343 345 344 345 350 352 355 356 353 351 348 336 338 335 335 337 336 336 336 333 333 334 336 336 335 334 334 334 333 333 334 333 332
323 325 324 327 327 328 329 334 333 334 336 339 340 341 337 336 339 342 343 343 349 351 356 355 352 349 345 331 338 336 338 340 339 338 337 335 334 334 334 334 333 332 333 333 333 332 332 333 332

GFSSGP_925_thetae_015.txt.gz
Theta_e
346 350 350 352 359 349 358 356 350 353 353 352 352 355 357 355 353 355 346 347 348 349 350 351 351 352 352 350 349 350 350 342 340 338 338 337 338 339 342 343 344 344 342 344 343 345 347 345 345
346 349 353 356 341 355 356 352 355 351 351 352 354 354 356 357 351 350 349 346 347 348 350 352 352 352 349 346 344 345 350 343 339 338 340 340 340 342 342 345 343 341 341 345 345 345 344 343 343
351 353 356 359 339 352 356 352 351 350 351 353 355 352 354 355 350 349 347 349 348 351 351 351 351 351 351 346 343 338 340 338 337 337 338 339 339 342 347 345 340 341 344 344 343 343 343 342 343
349 348 345 334 345 350 353 350 350 352 352 354 354 358 353 351 350 350 348 349 350 350 351 351 352 352 351 347 341 338 338 338 337 337 341 343 344 348 348 342 342 344 343 342 341 342 343 343 345
346 340 334 340 350 354 353 351 348 352 355 356 354 358 357 353 351 348 351 347 348 350 350 351 352 351 348 343 343 345 347 350 349 347 347 347 347 351 346 346 345 343 341 341 342 343 344 342 342
341 338 342 340 349 354 353 350 351 357 357 356 356 357 357 351 350 351 349 345 348 349 350 351 351 350 343 348 350 344 346 346 344 346 351 349 350 348 347 345 342 341 343 344 344 344 345 344 344
343 340 347 342 349 354 353 353 358 357 356 357 353 359 356 353 352 351 348 345 347 349 349 350 350 350 352 348 345 343 345 342 343 345 345 344 343 341 343 342 341 342 346 347 348 344 343 342 342
341 337 342 343 352 353 353 353 354 356 358 351 351 358 359 354 353 352 348 347 347 348 348 348 352 353 352 351 349 345 342 340 341 343 343 341 341 339 341 342 343 345 347 346 346 342 343 345 344
342 339 345 343 343 346 346 354 354 353 355 350 351 352 352 354 354 353 353 352 350 349 349 350 348 350 347 346 349 349 344 342 342 345 343 343 342 342 341 340 341 343 345 345 345 344 344 346 346
344 343 344 340 341 345 344 353 352 353 355 355 354 351 352 354 353 352 353 353 355 355 353 350 352 351 352 346 348 346 345 344 342 341 341 342 346 347 348 347 347 346 345 346 346 345 344 347 348
344 347 343 342 343 342 347 349 348 355 355 355 357 354 352 353 353 353 352 351 352 349 350 350 350 349 348 348 346 344 343 343 341 340 341 346 346 349 347 347 349 349 349 349 348 348 347 346 346
346 341 341 341 346 344 347 346 350 352 350 351 354 353 353 353 353 353 352 352 351 351 348 348 348 348 347 347 347 345 345 343 341 339 344 348 348 348 347 348 348 348 348 348 348 347 348 347 346
337 340 341 343 343 343 341 344 349 349 348 350 354 355 355 353 353 353 353 352 352 352 350 350 349 349 348 347 346 344 343 343 342 343 346 347 348 348 347 349 347 349 347 348 348 348 348 348 347
339 341 343 343 341 342 344 347 348 349 353 355 356 355 354 353 353 354 353 352 353 352 352 351 352 351 352 353 351 348 350 351 349 349 350 349 349 350 350 349 347 348 347 348 346 346 346 347 347
341 344 347 346 344 340 344 349 352 348 354 356 357 356 355 352 353 353 352 352 352 353 352 352 353 351 352 354 352 352 352 352 351 349 350 351 350 350 350 350 347 347 347 346 347 347 346 347 346
341 341 352 348 347 344 347 355 351 347 349 352 352 354 353 351 351 350 351 352 352 351 352 351 353 351 352 353 353 351 351 350 350 350 348 349 349 347 350 347 346 347 346 345 346 346 346 345 344
333 351 345 350 345 348 350 353 349 347 347 348 347 350 347 347 345 347 349 351 352 350 352 353 353 351 352 352 353 352 351 350 350 350 348 349 349 349 350 347 347 346 345 345 345 345 344 341 343
343 343 347 351 350 347 351 351 348 348 347 348 347 347 346 345 344 346 348 348 349 350 352 353 353 351 351 352 351 350 351 351 350 349 350 350 348 347 347 348 347 344 344 344 341 339 340 342 344
330 338 348 348 344 350 351 351 349 348 347 347 347 347 346 345 343 345 347 346 348 351 352 352 352 351 351 351 352 353 352 352 352 352 352 351 351 350 348 344 342 343 342 341 340 339 340 341 339
327 338 343 340 344 349 350 353 348 347 348 347 347 347 346 345 343 344 346 346 346 349 351 352 351 350 351 352 353 352 351 351 351 350 351 350 350 347 345 343 344 343 342 340 339 339 339 339 339
327 329 338 340 343 346 351 353 352 349 347 346 345 345 345 346 345 344 345 346 347 347 347 348 351 349 350 352 354 353 351 354 352 352 349 351 350 348 345 343 343 341 339 336 338 338 337 337 338
330 327 334 340 343 349 350 359 349 350 351 349 348 347 347 347 346 345 346 347 348 347 346 346 348 349 351 353 354 353 352 351 349 348 347 349 341 333 334 335 336 337 337 336 336 335 335 336 336
330 326 327 338 340 344 347 348 348 347 348 351 349 347 349 347 347 346 346 348 348 347 347 347 348 350 353 354 353 353 353 349 344 345 339 334 333 335 336 338 338 339 334 334 334 334 335 334 335
328 326 322 324 333 344 348 345 342 349 350 348 346 343 349 348 349 347 347 347 348 348 348 348 349 352 352 354 354 352 353 351 341 340 335 332 335 335 336 338 340 335 333 333 333 333 332 335 335
323 321 323 329 339 343 333 345 343 342 346 347 345 341 346 347 350 349 348 348 348 350 350 349 351 353 353 352 352 352 353 345 338 337 335 334 335 334 337 339 334 332 330 331 333 334 333 333 333
321 321 322 325 327 331 324 343 344 339 339 344 343 340 343 344 349 350 350 349 348 350 352 352 352 352 353 351 352 354 345 335 333 333 331 334 335 335 336 334 334 334 332 333 334 334 335 333 333
323 321 320 321 324 327 326 328 328 335 333 341 342 337 342 343 348 350 350 349 348 350 352 353 353 352 352 352 354 346 336 331 332 331 335 336 334 333 334 335 335 335 333 333 331 332 334 333 333
322 320 324 320 327 331 327 330 329 331 338 338 341 337 342 343 345 348 349 348 349 351 352 353 354 353 352 351 353 343 331 333 333 333 336 338 335 334 335 335 335 334 334 333 333 332 333 334 333
323 321 321 320 322 326 328 328 326 331 335 339 339 338 341 343 344 344 346 346 347 352 352 353 354 353 352 351 353 339 334 333 333 334 337 338 335 335 335 333 335 335 334 333 333 333 332 333 333
319 321 320 324 323 323 324 326 329 332 335 337 337 338 341 342 342 343 343 344 344 348 351 353 353 352 350 351 349 335 333 333 332 333 334 334 330 331 332 334 335 334 333 333 333 332 331 331 332

GFSSGP_925_thetae_021.txt.gz
Theta_e
355 354 352 355 354 351 356 354 351 353 355 353 351 351 355 355 353 356 347 349 347 349 349 350 350 350 350 348 348 347 348 347 344 344 341 337 338 340 343 344 345 346 348 347 347 346 345 344 344
352 350 354 360 352 355 358 352 354 352 355 353 353 354 355 356 349 349 349 350 349 348 350 350 349 350 350 349 350 348 350 351 347 345 339 340 344 345 344 342 341 343 346 345 346 345 345 344 344
350 353 361 351 352 356 356 353 353 354 354 353 355 351 351 353 348 348 350 351 352 352 352 352 349 351 352 350 349 351 351 352 351 345 341 347 347 343 343 341 340 344 344 345 344 343 343 343 344
353 352 350 349 353 355 353 352 355 356 355 353 350 355 350 348 348 349 351 352 351 352 352 350 351 352 352 352 351 350 349 350 345 343 348 347 342 342 342 341 343 343 343 343 343 343 343 342 342
348 346 345 352 356 355 351 350 353 356 357 353 352 354 351 352 349 350 351 351 351 352 353 353 348 349 349 350 350 348 350 350 348 346 344 342 342 344 342 344 343 343 342 342 343 343 343 343 343
352 341 349 349 356 355 350 351 355 358 356 354 353 352 354 351 349 349 351 352 351 351 353 353 350 349 348 352 352 344 345 346 340 340 342 340 342 341 341 340 339 341 343 345 345 344 343 343 342
348 345 348 354 356 355 353 350 356 358 356 355 350 353 353 349 348 349 350 351 351 352 353 353 354 354 350 349 350 347 351 345 341 344 342 342 341 340 339 340 341 343 346 349 351 344 343 344 343
344 342 351 352 352 351 353 354 355 355 355 350 349 354 355 350 348 349 349 350 351 352 353 355 354 353 351 351 352 352 348 349 348 346 343 341 340 338 340 344 344 343 344 346 346 344 343 345 345
339 344 351 352 352 349 353 356 353 352 354 351 352 350 348 350 348 348 349 351 352 353 353 353 353 352 352 353 352 349 347 345 347 348 344 344 349 349 349 345 343 343 343 344 345 344 343 344 347
347 343 345 346 349 350 354 355 355 355 352 353 355 351 351 349 348 347 349 350 350 351 352 352 352 351 352 350 352 352 351 349 351 352 351 350 346 345 347 346 347 345 345 345 345 345 345 347 349
346 345 342 343 347 349 354 355 352 352 353 352 357 355 351 350 349 347 347 348 349 350 351 352 354 354 353 352 352 352 351 350 351 349 346 344 347 348 350 351 350 350 348 350 349 349 349 349 349
343 345 342 343 346 350 354 352 352 350 349 349 352 352 352 352 351 349 348 347 348 350 350 351 352 354 354 352 350 351 350 350 350 349 339 344 347 348 348 348 348 348 350 346 348 350 349 350 349
336 339 342 343 345 348 350 351 349 349 351 351 352 353 353 352 352 352 350 349 349 350 350 352 353 353 354 353 351 349 350 348 349 348 346 346 348 350 347 346 345 346 347 349 345 347 348 349 349
336 341 346 344 346 349 349 351 350 350 351 353 353 353 353 353 353 352 350 350 350 351 350 352 353 354 353 353 352 351 351 351 350 349 348 339 346 350 347 347 346 346 347 349 347 346 347 350 349
342 347 347 346 347 348 348 353 353 350 351 353 353 354 353 353 353 352 350 351 350 350 350 350 351 352 352 350 348 351 352 351 350 350 347 347 347 349 348 348 346 347 347 346 346 345 349 345 347
345 345 349 348 346 347 347 351 351 352 353 354 352 353 353 353 353 353 352 352 351 350 350 350 349 350 351 349 349 352 352 352 352 348 351 349 347 347 346 346 344 347 345 348 347 347 347 347 346
345 346 348 351 346 349 350 351 349 352 354 356 354 353 354 355 353 353 354 353 353 352 351 351 351 351 350 348 351 353 353 353 353 354 348 347 348 346 348 346 346 346 346 344 346 346 343 343 342
346 348 348 351 348 349 351 352 351 354 354 356 356 354 355 356 356 354 354 354 353 353 353 352 352 353 353 353 352 354 355 355 354 353 352 349 347 346 346 345 345 347 348 346 343 341 342 341 340
342 345 347 350 348 349 351 352 352 355 356 356 357 357 355 356 353 353 353 354 354 353 353 353 353 354 355 354 354 354 354 354 355 354 349 348 348 347 347 345 346 347 346 343 340 341 341 340 342
344 346 347 348 349 348 350 350 351 352 356 355 356 356 356 356 355 354 353 353 353 353 353 354 353 353 352 355 354 354 355 354 354 354 352 351 350 350 349 347 347 344 344 341 339 341 337 339 341
342 345 347 347 348 350 350 351 352 352 351 352 352 352 352 354 354 352 351 352 352 352 353 353 353 351 350 353 355 354 352 352 353 353 353 352 349 349 349 347 345 343 343 340 338 339 340 337 339
333 340 345 347 350 352 350 353 352 353 354 352 351 350 349 349 350 349 349 350 350 351 353 353 352 351 351 353 354 355 353 353 353 352 351 353 349 348 348 345 344 340 339 336 338 338 338 337 336
332 335 341 346 349 349 352 354 349 353 356 354 352 350 349 348 348 348 347 347 348 350 351 352 352 350 351 353 353 354 354 354 354 350 347 346 348 349 349 347 339 333 336 337 333 332 335 337 337
329 332 335 342 345 351 347 352 345 352 354 352 350 350 349 348 347 347 346 346 348 348 349 351 352 349 350 353 352 353 353 354 351 348 346 346 345 344 339 337 335 334 337 336 334 334 335 337 338
330 334 338 341 348 342 341 353 348 344 347 348 349 349 348 348 347 348 348 347 348 349 349 349 350 350 351 353 353 353 354 355 352 349 345 343 342 340 335 335 336 337 338 332 333 333 336 336 336
329 330 335 341 340 338 338 349 346 345 344 344 347 348 348 348 348 348 351 349 349 349 349 349 349 350 350 351 352 353 354 354 352 350 346 342 340 338 336 335 336 338 335 331 332 336 336 336 336
329 330 331 332 328 336 338 341 337 340 341 342 344 345 348 348 349 348 348 348 349 349 349 350 350 350 349 351 351 353 353 353 351 350 348 342 337 337 333 333 335 338 332 331 335 336 336 334 336
327 328 328 330 338 335 333 335 333 339 340 342 343 343 345 347 349 349 350 350 349 349 350 350 350 349 349 351 352 353 353 351 351 350 346 338 336 334 334 335 337 334 334 334 333 335 334 335 335
324 326 327 330 332 337 336 333 336 339 340 340 340 341 342 345 348 350 352 350 350 350 350 350 351 351 351 350 351 352 351 350 350 349 338 333 332 331 334 335 334 336 336 335 334 335 336 336 336
323 325 328 332 334 330 332 333 332 335 337 338 338 338 340 343 345 348 349 349 350 351 350 350 351 351 351 351 352 350 348 348 348 345 333 328 331 333 333 333 334 335 337 337 336 336 335 336 335

GFSSGP_925_thetae_024.txt.gz
Theta_e
352 356 355 358 367 352 358 356 352 356 356 352 349 350 354 356 359 362 350 350 350 350 350 349 347 345 347 347 350 348 346 345 343 346 342 344 344 347 351 351 349 349 351 351 351 351 351 349 349
356 354 354 359 356 352 356 353 355 355 354 352 352 352 354 357 351 350 350 349 351 350 350 350 345 347 348 348 350 352 352 349 349 347 341 344 345 346 347 349 346 346 350 352 351 348 350 349 349
353 353 361 349 348 350 351 352 354 355 353 352 355 351 352 355 350 350 349 349 350 351 351 351 348 348 347 348 350 352 353 352 352 345 340 344 344 345 347 342 343 345 345 345 343 344 347 350 350
352 356 355 344 347 350 348 351 354 356 354 351 351 356 351 349 349 350 351 352 352 352 352 350 350 352 352 351 352 352 350 351 349 343 344 343 344 346 342 341 343 344 342 342 343 346 345 344 342
353 351 342 342 347 348 349 351 353 356 355 352 351 354 356 351 350 352 353 352 352 351 352 353 352 351 352 349 350 349 351 351 350 345 345 345 347 346 343 341 341 340 342 344 346 348 345 342 341
355 348 337 339 347 348 348 350 353 355 355 353 352 355 357 350 352 353 352 351 351 351 352 351 348 349 350 350 352 351 352 351 346 345 346 344 344 341 340 340 340 342 346 352 351 345 343 344 343
351 347 342 340 346 348 348 350 353 355 354 352 348 356 355 351 352 352 351 350 350 352 352 351 352 352 351 353 352 352 351 351 346 343 343 344 343 340 339 341 343 347 352 352 351 345 344 344 343
350 345 345 341 343 347 348 349 351 352 355 349 347 354 358 350 350 350 350 350 350 351 352 353 354 351 349 349 352 352 352 351 346 347 345 343 339 337 342 344 350 343 344 346 345 344 343 344 346
344 346 346 345 343 347 349 351 351 350 353 351 350 347 348 348 348 348 349 350 351 352 352 353 353 351 350 351 352 351 351 348 347 345 342 341 348 349 349 349 344 345 344 344 345 343 344 343 346
347 346 343 343 343 345 348 349 353 353 352 352 353 347 348 347 348 349 349 350 351 352 353 351 350 350 351 350 351 351 350 349 350 350 352 349 349 351 350 348 346 345 346 347 345 345 345 349 348
348 348 343 343 345 345 349 349 349 349 351 351 355 352 349 348 348 348 349 350 350 351 350 350 349 351 351 350 350 350 349 349 350 352 352 350 350 351 351 351 351 352 350 349 350 350 349 350 349
347 343 340 342 346 345 349 348 348 347 346 347 350 351 349 349 348 347 348 349 350 351 351 351 351 351 351 350 350 350 349 349 349 348 351 350 350 351 351 350 351 350 351 350 350 350 351 351 351
344 340 341 340 345 346 348 350 346 348 350 346 350 350 349 349 347 346 346 347 349 350 351 351 353 354 354 353 350 349 349 348 348 348 348 349 350 351 352 352 349 349 349 350 350 350 350 351 350
340 339 342 341 345 348 350 350 346 347 351 349 351 351 350 349 348 348 347 347 348 349 349 351 352 353 353 353 352 350 349 348 348 347 348 351 351 351 349 348 350 350 349 351 351 350 350 350 350
337 341 344 344 347 350 348 352 353 350 352 352 352 352 350 349 348 351 350 350 350 350 349 350 352 353 354 354 354 352 350 349 349 350 352 353 352 351 350 349 349 348 351 351 350 350 350 349 347
338 339 345 348 349 350 349 353 351 351 353 353 352 351 350 350 349 350 350 350 350 350 351 351 351 352 354 354 353 352 351 352 351 352 351 353 352 349 349 349 347 348 351 351 350 349 344 341 340
340 342 342 351 348 350 350 350 351 352 353 355 352 350 350 351 351 351 349 350 351 351 351 352 351 350 352 354 354 354 354 355 354 353 354 352 352 351 351 350 350 351 350 349 349 344 343 338 336
342 342 340 346 350 351 351 351 351 353 353 354 354 351 350 352 353 351 351 351 352 352 352 353 351 352 353 354 356 354 353 354 353 354 354 354 352 352 352 350 350 349 350 349 346 346 340 336 337
339 341 341 343 349 351 350 351 351 353 353 353 354 353 352 352 351 351 352 352 353 354 354 354 354 354 356 356 355 354 354 353 355 355 355 354 353 351 352 350 350 348 349 347 347 341 334 334 338
336 340 341 345 349 350 349 351 350 350 355 353 352 353 353 352 353 352 352 352 353 354 355 355 355 356 358 356 355 354 354 353 353 354 355 355 355 354 351 351 351 350 345 348 345 339 333 335 339
338 340 341 345 350 349 348 350 350 347 350 354 353 351 352 353 352 353 352 353 353 354 356 356 357 357 358 357 357 357 356 356 355 354 354 353 355 355 354 352 350 351 347 341 340 338 339 334 336
338 338 340 344 350 352 350 350 346 348 351 353 355 351 351 353 353 352 352 352 353 353 355 357 358 359 358 359 356 356 355 352 349 350 348 349 352 353 353 352 351 351 343 339 337 337 337 338 334
334 336 339 342 347 347 350 353 347 347 351 352 354 352 349 349 349 349 350 348 350 352 353 356 358 359 359 358 358 357 357 352 352 352 353 351 351 353 350 353 351 349 339 340 340 339 338 335 336
331 334 337 340 343 348 346 349 348 348 352 349 350 352 349 346 346 346 345 346 348 349 351 353 357 360 360 359 360 359 356 355 352 354 353 347 345 348 352 351 350 344 338 342 340 338 337 338 338
329 334 343 345 345 347 345 346 346 342 341 345 344 349 350 348 346 346 346 345 345 347 349 352 356 361 360 359 358 359 359 358 357 357 354 345 343 343 347 348 345 343 343 342 339 338 337 337 336
328 334 340 344 343 344 343 344 343 343 342 341 340 343 348 350 349 347 348 347 347 348 350 352 356 360 360 358 358 358 359 358 357 357 352 347 341 341 344 345 344 343 343 342 339 337 337 337 336
328 334 335 338 339 341 339 341 340 339 341 340 340 341 345 349 350 349 349 349 349 350 353 355 357 360 360 357 359 359 359 358 355 356 356 349 345 341 343 344 344 343 342 340 339 337 338 337 336
328 331 335 337 343 342 339 339 340 340 339 338 337 339 342 345 349 349 350 349 350 350 352 354 357 359 358 356 357 357 358 358 357 357 356 350 346 342 342 342 342 342 342 339 340 337 336 337 334
326 330 333 335 336 340 340 338 336 336 337 336 335 336 337 340 346 349 350 349 350 351 352 354 356 357 357 357 357 357 356 357 358 356 354 350 345 341 341 342 341 342 340 340 340 338 335 336 337
326 329 333 337 341 337 338 338 335 336 336 335 335 335 335 337 342 346 350 350 349 352 352 353 355 356 357 356 358 357 356 357 357 355 351 346 342 335 330 335 331 336 340 340 339 338 335 337 337

GFSSGP_925_thetae_027.txt.gz
Theta_e
349 355 358 359 374 357 357 356 353 358 356 351 350 353 357 356 358 358 349 349 350 350 349 350 347 348 348 347 345 344 347 346 349 345 351 353 353 351 353 353 354 353 353 352 352 351 351 350 349
354 357 358 361 366 361 358 354 356 356 353 350 352 353 354 358 353 352 350 351 350 349 349 347 346 347 348 351 349 347 349 344 347 346 352 349 350 353 353 353 353 353 352 351 350 351 351 350 349
358 357 361 366 359 352 355 353 355 353 352 352 353 351 353 354 352 351 351 350 350 350 349 349 347 347 350 352 352 352 350 352 347 349 350 352 353 353 352 353 353 352 350 347 349 350 350 349 345
357 355 360 352 347 349 353 352 352 353 351 350 352 355 351 349 350 350 351 352 352 352 352 347 346 347 352 353 353 353 353 353 351 350 348 350 354 352 352 353 351 351 349 350 350 350 350 349 345
354 357 353 341 346 350 350 351 351 353 351 352 352 357 354 350 350 350 350 351 352 353 352 351 349 348 350 352 352 353 353 352 346 347 351 354 354 352 352 351 350 350 351 352 352 351 348 347 349
357 351 340 340 342 346 350 350 350 351 351 351 353 356 355 350 350 351 351 350 352 350 352 353 352 353 353 354 354 354 352 348 348 350 353 353 349 346 345 343 342 346 351 353 353 351 344 343 344
355 349 340 340 343 343 346 346 349 350 350 352 352 357 354 352 350 350 350 350 349 349 350 351 352 353 353 354 353 350 352 353 349 351 349 347 344 341 338 339 342 343 348 351 351 345 344 344 343
351 349 342 343 342 342 344 346 345 348 351 347 351 357 357 352 350 349 350 350 349 351 350 351 351 352 354 350 352 352 352 351 349 352 346 341 336 335 344 351 350 344 344 345 346 344 342 344 343
347 350 349 341 344 343 343 344 346 347 349 347 348 351 351 349 349 350 349 349 354 352 352 351 352 349 350 349 350 352 352 353 352 346 341 339 350 351 353 351 345 345 344 343 343 343 342 343 346
349 348 346 343 343 345 343 343 347 347 349 349 348 350 350 349 349 348 348 351 350 351 353 351 351 349 350 349 353 352 351 350 350 349 353 349 350 351 350 349 345 346 346 347 347 347 349 349 351
346 352 346 342 343 344 344 342 345 346 348 349 350 351 350 349 349 348 348 348 348 352 350 352 350 350 349 351 350 350 350 350 349 352 352 350 351 350 350 351 351 352 352 352 351 350 349 350 349
347 346 340 343 341 344 344 341 341 343 344 346 348 349 349 350 349 348 348 349 349 350 348 348 349 351 350 350 348 348 348 347 347 349 352 352 351 349 349 350 350 350 349 351 351 349 350 350 349
346 343 341 340 342 343 345 343 340 343 343 344 347 349 349 349 348 347 347 348 349 350 349 349 350 352 352 353 349 348 347 348 347 348 350 349 350 350 350 352 350 348 348 351 350 349 351 350 351
343 342 341 340 342 343 344 345 343 345 344 346 348 349 348 347 347 346 347 348 349 350 350 350 352 353 353 352 354 350 350 349 348 348 347 351 352 351 352 352 349 351 348 350 351 352 351 350 350
340 342 342 341 342 343 345 347 344 347 346 347 349 348 347 347 346 346 346 347 348 349 350 351 352 353 354 354 354 352 350 348 348 347 350 351 354 352 350 351 351 348 349 352 353 352 350 347 347
339 341 344 342 341 346 345 350 348 350 347 347 348 348 347 347 346 346 347 347 348 348 349 351 351 352 354 354 354 353 351 350 349 349 351 354 354 354 353 351 350 349 350 351 351 349 346 343 341
339 343 342 344 342 348 347 359 348 350 349 347 347 348 348 348 347 347 348 348 348 350 350 351 351 351 353 355 354 353 352 352 353 352 350 352 353 353 353 352 351 352 351 351 350 347 343 340 334
343 342 343 348 342 348 347 352 351 351 350 348 347 347 348 348 349 348 348 348 349 350 351 352 352 351 353 354 355 355 355 356 354 351 351 354 353 353 353 351 351 352 349 351 348 347 342 336 337
341 343 343 344 341 347 348 348 349 352 352 349 348 348 347 347 349 348 349 347 349 350 351 353 353 353 354 354 354 353 353 353 354 352 354 354 355 355 353 352 351 351 350 348 346 343 334 335 336
338 342 342 340 343 345 347 349 347 352 352 351 349 348 347 346 348 349 350 349 350 351 353 354 355 356 357 355 354 352 350 350 353 352 350 357 354 355 351 352 349 350 349 349 344 342 337 333 339
336 341 342 340 348 347 347 349 348 347 350 352 350 348 348 347 347 350 351 350 351 352 354 356 358 358 358 356 355 354 356 354 352 347 347 348 351 349 354 354 352 353 343 344 344 339 338 334 335
336 337 338 339 349 351 345 351 349 347 348 350 352 351 348 348 347 348 351 351 350 351 354 357 360 360 360 358 357 355 354 351 347 347 347 347 348 347 354 352 348 350 347 341 338 338 337 336 334
335 336 338 340 344 349 345 347 346 345 347 346 350 352 350 348 348 347 348 350 350 351 353 356 360 362 361 361 357 357 355 349 349 348 352 351 350 348 347 347 350 349 342 343 339 339 339 336 335
333 336 339 339 341 348 347 350 347 348 348 346 348 350 351 348 349 349 347 348 349 350 351 354 360 364 364 362 362 361 358 353 351 349 353 349 345 348 347 348 350 349 344 341 341 340 338 338 339
331 335 340 341 342 344 347 349 353 345 345 345 344 346 349 350 348 349 349 348 349 350 351 352 359 365 366 365 363 362 361 360 357 356 352 349 344 343 348 348 352 349 345 342 341 341 339 339 338
330 333 338 343 341 341 341 348 345 344 343 343 341 342 345 350 349 348 348 346 347 349 352 353 356 365 367 366 364 363 363 359 357 355 352 349 344 342 347 350 350 347 345 343 342 339 338 338 338
329 334 333 337 338 341 341 341 341 343 342 342 342 341 340 347 349 349 347 346 344 347 351 353 355 363 366 365 366 364 363 361 355 353 355 353 346 342 349 349 347 346 344 343 342 340 339 339 338
327 330 334 337 345 346 340 341 344 344 341 341 341 339 338 340 345 348 348 348 346 345 348 352 355 363 365 364 366 364 363 363 360 359 358 354 349 343 345 347 346 345 342 342 341 338 339 339 337
325 329 331 333 337 341 342 342 340 342 341 340 339 338 338 338 341 346 349 348 349 348 348 352 357 361 365 365 364 362 362 361 361 359 359 357 353 347 345 346 345 344 342 343 341 339 339 338 338
327 327 329 340 340 337 340 339 338 338 339 338 338 338 337 337 338 341 346 349 349 352 349 350 353 357 362 362 364 363 363 361 361 361 360 359 355 350 346 345 344 343 343 342 341 341 338 337 338

GFSSGP_925_thetae_030.txt.gz
Theta_e
349 353 356 356 369 368 364 359 358 358 355 353 354 357 359 357 353 363 349 349 350 350 350 351 349 351 350 342 346 344 345 347 349 348 351 351 351 351 351 352 353 353 353 352 352 352 352 351 350
353 357 356 357 368 368 362 358 361 355 351 353 353 354 353 355 350 350 350 350 351 349 350 349 347 347 345 344 345 344 350 348 347 347 349 351 353 352 353 354 353 353 351 351 351 351 351 351 350
353 356 354 361 361 364 362 357 356 354 353 353 354 351 351 353 349 349 350 349 349 348 348 346 347 345 346 350 351 347 348 348 346 347 353 354 354 352 353 353 353 350 351 351 351 351 348 348 347
356 358 362 369 354 355 357 356 353 352 352 351 351 357 352 350 349 351 350 350 350 350 349 346 346 347 352 352 350 346 352 350 344 352 354 354 353 352 353 352 351 351 351 351 352 352 351 347 345
359 362 368 350 352 353 350 352 351 351 354 353 351 359 355 349 350 351 350 350 351 351 349 349 347 352 351 352 353 353 353 351 351 354 353 354 352 353 352 351 351 351 353 353 353 351 349 347 346
363 359 365 341 343 351 350 350 349 351 352 353 353 355 355 351 350 351 352 351 352 352 351 352 349 351 352 353 353 352 353 352 353 350 349 347 349 348 344 346 347 349 353 353 351 344 344 343 343
360 359 358 340 341 345 345 350 349 347 352 352 352 356 352 352 351 351 351 352 350 352 352 353 354 354 353 352 352 353 353 352 349 344 342 344 342 336 338 340 343 343 344 347 347 343 343 342 342
355 355 353 344 341 341 342 346 347 347 351 350 350 355 356 350 351 351 351 349 350 351 353 354 354 353 353 352 353 352 348 348 342 341 341 341 338 338 346 351 348 345 343 344 342 341 341 343 343
352 354 351 346 343 341 343 343 348 346 346 351 349 350 350 347 350 348 349 349 351 350 350 352 354 354 351 350 350 349 348 345 343 344 340 340 348 350 353 353 346 342 342 342 342 342 342 343 347
351 355 351 347 344 342 342 343 344 346 346 350 351 349 347 348 347 349 352 352 350 349 351 349 349 351 351 349 348 352 351 350 344 351 349 344 352 352 353 351 346 349 348 348 347 349 348 346 350
345 352 347 347 344 342 341 343 342 345 347 346 352 350 348 347 349 352 350 353 352 353 352 353 350 348 349 353 347 352 351 351 350 351 353 352 352 350 350 350 353 351 347 348 352 345 350 352 351
350 346 344 344 344 342 341 340 345 343 345 346 349 349 349 347 346 345 350 349 352 351 350 351 353 348 351 352 348 353 352 350 351 351 351 351 351 348 350 350 351 351 353 352 347 351 351 350 350
352 349 349 341 340 342 342 340 339 343 344 346 349 350 350 348 346 345 346 346 352 349 350 353 352 349 351 353 347 349 349 347 347 351 350 349 352 350 349 351 350 351 350 349 351 351 351 350 351
337 346 344 340 340 343 344 341 338 341 343 346 348 349 349 348 346 346 347 348 349 349 348 350 351 351 352 353 353 351 350 350 347 349 352 347 348 352 352 354 351 351 349 351 352 351 347 351 349
335 342 342 341 340 343 342 344 342 341 341 346 348 348 347 347 346 347 347 349 350 350 349 351 351 353 350 352 353 355 351 348 350 346 350 351 352 353 352 352 352 352 349 349 351 351 349 349 347
333 338 345 342 340 341 341 354 342 344 341 345 347 347 347 347 346 347 347 349 349 350 351 352 351 355 354 356 355 352 351 351 348 348 348 351 352 355 353 354 352 352 350 350 350 350 347 346 339
334 339 343 343 341 343 344 356 350 347 341 344 346 346 346 347 347 346 346 348 349 350 353 351 352 353 355 354 355 354 354 351 353 349 351 350 352 354 353 351 351 352 349 350 351 347 346 341 335
334 339 341 346 344 342 352 352 347 344 345 343 344 346 347 347 347 347 347 347 348 349 351 352 352 352 355 354 355 356 352 354 353 355 353 350 355 352 353 352 351 352 351 350 349 346 342 336 337
334 339 341 345 345 343 351 353 353 345 347 344 343 345 345 347 347 347 347 348 349 350 353 353 354 352 358 358 357 354 355 352 353 347 354 354 351 354 351 350 350 351 350 347 347 343 338 334 338
334 338 343 345 347 348 345 356 354 349 348 346 345 345 345 346 348 349 349 349 349 351 353 356 355 357 354 356 352 352 353 355 354 353 352 353 353 351 349 349 352 350 350 348 345 342 340 335 339
334 337 341 344 346 344 344 345 348 350 349 347 347 347 345 346 346 351 351 350 349 353 355 356 356 358 355 356 352 354 356 355 356 356 353 356 355 350 355 352 350 351 349 350 344 341 337 338 338
334 335 338 342 345 348 344 348 351 348 353 350 347 346 347 346 346 347 350 352 350 353 356 357 358 358 359 353 359 356 354 357 350 346 346 348 353 348 349 347 352 350 347 344 339 341 333 335 336
334 335 337 338 343 348 350 350 350 351 351 352 348 348 347 348 346 346 349 351 351 352 356 359 360 360 361 354 359 359 356 349 352 348 350 348 349 347 351 350 348 348 347 341 338 339 337 339 335
332 334 336 337 339 347 350 346 351 352 351 348 348 345 351 347 348 347 347 350 352 352 355 358 362 363 362 362 356 358 357 353 352 350 354 352 351 348 349 346 348 347 345 342 340 340 339 337 339
330 333 339 341 343 342 344 352 352 348 348 346 345 347 351 351 349 350 349 350 353 353 353 358 364 365 364 364 364 355 358 358 350 355 356 352 347 349 347 348 351 349 345 342 341 341 341 340 338
328 331 338 344 344 343 341 345 351 349 346 344 345 344 348 350 351 351 351 350 353 353 354 356 363 366 366 365 366 364 356 363 360 355 356 351 350 347 348 347 350 351 346 343 341 341 336 339 339
328 330 331 335 337 341 341 341 343 346 345 347 347 344 343 346 350 351 353 352 351 354 354 355 364 366 367 368 367 366 366 361 362 359 354 356 349 348 347 347 351 349 346 343 342 340 339 340 340
327 329 330 332 341 345 342 344 346 352 348 346 345 344 345 343 350 350 349 352 350 352 354 355 358 367 368 368 369 367 367 366 362 359 357 352 354 349 348 347 348 347 346 344 343 339 340 340 339
326 326 328 330 335 341 344 344 343 346 350 348 346 344 344 340 347 350 350 349 350 350 353 355 357 364 368 369 369 368 367 368 364 361 358 360 352 352 350 347 346 349 348 345 343 341 339 338 338
328 329 328 331 341 336 338 341 338 347 347 347 344 344 343 342 341 343 350 351 350 349 351 353 356 357 365 368 368 368 368 367 367 361 363 361 357 357 349 347 348 347 348 345 345 338 339 341 340

GFSSGP_925_thetae_033.txt.gz
Theta_e
349 350 355 351 365 366 364 358 359 358 359 355 354 355 356 355 354 357 346 347 345 344 346 348 349 350 350 346 345 346 346 345 349 347 348 348 348 350 349 349 351 351 352 352 351 351 351 351 346
349 355 347 357 367 368 364 358 360 355 356 353 350 351 353 356 349 348 349 349 347 348 349 348 347 348 346 343 344 346 348 346 348 348 348 348 349 350 352 353 352 352 351 351 351 351 351 348 344
354 354 348 360 365 366 366 357 355 354 353 353 353 349 350 353 349 349 349 348 348 350 348 347 345 347 349 342 345 344 345 348 345 347 349 350 350 351 353 351 350 349 351 351 350 348 346 346 344
354 358 359 370 362 359 357 356 355 355 354 353 353 355 349 349 348 350 350 349 349 348 344 344 344 346 348 346 346 346 346 346 345 347 350 352 349 353 349 347 348 349 352 352 352 350 347 344 343
355 359 366 369 358 355 354 352 352 355 357 354 354 356 354 349 349 349 349 349 348 347 345 345 345 347 351 351 350 350 347 344 345 346 352 349 348 349 345 345 346 351 352 353 350 348 344 344 343
362 360 371 365 353 354 350 351 353 354 355 355 355 356 353 350 350 350 349 349 349 346 345 346 348 348 350 352 351 350 347 343 345 347 344 344 342 340 341 341 345 346 347 348 346 343 342 343 343
365 365 365 358 349 351 351 349 353 354 355 355 352 357 353 350 350 350 350 350 351 349 348 348 351 351 350 350 352 350 343 344 344 343 340 341 340 340 341 341 344 343 343 343 341 342 343 344 344
354 355 360 346 343 353 348 346 348 352 354 351 352 359 357 351 351 351 351 351 351 351 351 349 351 352 350 351 349 345 346 344 341 337 336 337 337 341 348 349 347 344 343 344 344 342 342 343 345
343 356 359 350 342 341 345 348 349 350 353 351 350 353 351 351 350 351 351 352 353 352 350 352 352 351 347 344 348 347 345 341 336 334 336 336 339 349 349 351 346 343 344 346 345 346 346 344 346
350 354 351 345 345 340 348 348 349 353 353 352 352 351 351 350 350 350 351 351 353 353 353 350 349 347 346 345 344 338 337 335 332 337 340 346 349 350 351 348 347 347 349 347 348 347 348 348 347
348 353 346 343 344 342 340 343 343 350 354 351 353 351 351 350 349 349 350 350 350 351 353 353 353 352 349 349 340 341 341 339 347 349 351 353 353 352 349 348 342 350 347 350 350 348 348 350 349
348 347 345 343 344 344 340 339 344 344 349 350 349 349 350 347 349 349 351 351 349 351 350 351 349 353 349 350 345 348 349 349 349 350 351 354 352 349 351 350 348 351 349 350 345 349 349 351 351
345 342 341 341 341 341 338 342 343 345 350 348 347 346 348 346 350 351 351 353 350 350 352 350 349 350 349 351 346 351 351 350 351 352 352 344 349 350 350 350 350 350 348 350 349 348 349 350 349
346 344 343 342 343 341 339 337 343 345 349 349 348 347 346 344 350 350 351 351 352 353 351 352 350 348 352 352 351 355 351 352 352 352 350 346 352 350 351 353 352 350 349 350 350 350 349 349 347
334 345 345 342 340 341 339 337 342 345 348 350 350 349 347 345 344 344 352 351 349 348 348 353 350 349 353 351 353 351 350 350 349 350 351 347 348 348 349 349 348 350 349 349 349 348 349 346 343
329 328 330 341 337 340 340 349 341 339 348 350 350 349 349 346 345 346 348 351 349 347 354 353 351 349 346 346 351 351 350 350 350 348 350 351 351 350 353 348 349 353 350 350 349 348 346 342 338
325 328 329 342 340 341 346 349 344 344 345 348 348 347 347 346 344 346 348 350 349 348 351 351 352 351 351 346 350 353 346 350 351 350 352 352 350 351 349 351 350 351 351 351 349 346 343 334 334
326 328 329 342 341 345 346 347 343 344 342 345 347 346 346 345 345 346 348 349 350 349 350 352 351 353 353 351 352 352 351 353 354 354 351 350 350 351 350 352 351 349 352 349 349 346 340 335 338
327 329 330 339 343 348 350 347 342 339 339 340 345 345 345 344 343 346 346 349 350 350 351 350 352 356 355 354 354 354 356 352 351 351 354 353 352 353 351 351 350 351 352 348 346 343 336 332 338
326 328 330 345 343 342 349 348 344 343 342 341 343 344 344 344 343 345 346 347 349 351 352 350 351 352 356 354 353 354 354 352 349 348 351 354 352 348 348 348 349 350 349 347 345 338 334 340 337
326 327 330 347 345 344 344 350 347 341 343 343 342 343 343 343 344 345 345 347 349 350 352 353 351 352 356 355 355 353 350 350 352 353 353 353 353 350 352 349 349 349 350 347 344 339 335 335 337
326 328 332 344 345 350 345 359 352 347 347 346 344 341 342 342 343 344 346 347 349 352 352 352 352 352 355 356 355 353 353 357 356 356 354 355 353 353 352 352 350 350 344 348 339 336 336 333 334
326 329 332 332 343 346 346 350 353 351 353 348 345 342 341 341 342 345 346 347 349 351 353 355 353 353 355 354 354 352 351 354 354 353 351 353 354 349 348 349 352 349 347 342 338 338 330 338 338
325 327 329 330 334 347 344 350 346 344 352 349 345 344 342 341 341 342 346 348 348 352 355 356 355 355 356 355 352 358 357 353 349 347 351 354 352 348 349 348 350 348 346 340 338 337 333 336 338
323 322 328 331 334 336 343 346 346 341 344 350 347 344 343 343 342 341 345 347 349 350 357 358 357 357 357 356 353 353 359 356 350 354 350 349 348 347 349 350 346 348 344 342 340 337 333 332 337
322 321 326 332 335 335 335 349 345 344 343 344 345 344 342 343 344 342 342 346 349 350 355 359 359 359 359 358 355 350 355 360 354 352 356 352 348 346 347 347 345 349 344 343 340 340 337 340 335
323 322 323 325 329 333 335 335 341 343 344 343 341 341 341 342 345 344 343 345 349 350 355 357 361 360 361 361 358 354 351 353 359 359 352 355 350 347 347 347 348 349 347 343 342 340 337 338 338
322 324 323 324 326 333 333 335 341 345 345 344 343 343 343 341 342 346 345 344 350 351 352 357 363 362 362 361 362 361 356 355 356 359 360 352 355 350 349 347 348 349 348 344 342 341 337 338 339
322 322 321 323 326 328 333 334 334 342 344 346 344 343 344 343 342 344 346 345 349 351 352 354 362 363 363 363 362 363 364 360 358 358 361 354 353 354 352 348 347 348 347 343 343 341 339 340 338
325 322 320 323 327 328 327 329 332 339 344 344 343 342 342 342 343 342 346 347 347 351 352 354 363 363 365 364 364 364 364 365 365 361 359 357 355 354 352 347 347 347 345 345 345 342 341 338 340

GFSSGP_925_thetae_036.txt.gz
Theta_e
346 348 354 349 363 363 365 360 357 360 359 355 353 356 356 354 353 355 345 345 343 345 345 347 349 351 351 348 345 346 344 347 348 348 344 349 348 349 348 351 352 352 351 351 352 351 351 348 344
350 354 346 355 366 366 363 357 358 358 354 350 350 351 352 354 347 347 347 343 345 345 346 348 348 349 351 346 343 346 351 348 348 348 343 349 350 352 352 352 351 350 351 351 350 350 350 348 344
354 350 348 359 364 364 363 357 358 355 351 350 351 348 350 352 348 348 346 344 345 347 348 348 347 348 350 349 344 349 350 351 350 350 345 347 351 351 351 349 350 350 348 349 349 346 342 341 342
357 356 358 366 366 359 358 356 355 355 352 349 350 355 350 349 348 348 348 345 347 348 347 349 349 350 349 348 347 349 349 349 351 350 345 345 350 348 346 345 348 349 350 351 349 346 345 343 343
353 354 365 368 363 355 354 355 353 355 355 352 351 356 353 348 348 348 347 348 348 347 347 348 349 349 349 346 350 348 347 350 347 345 346 344 345 343 342 344 346 348 351 350 346 344 344 344 344
360 355 364 366 360 355 354 353 354 355 355 354 354 354 351 349 349 349 349 349 347 345 346 348 349 350 345 350 351 346 346 347 342 344 345 341 340 338 339 342 345 348 348 347 344 344 343 343 343
356 352 362 361 361 357 355 353 355 356 355 355 350 354 350 348 349 348 348 347 344 344 346 348 350 352 348 349 352 348 345 343 340 342 342 339 337 340 340 344 345 344 344 344 345 343 343 344 344
350 351 358 357 354 356 352 353 352 353 355 350 349 356 355 349 349 348 349 348 344 344 346 347 349 352 348 350 353 350 344 338 339 339 338 336 338 345 349 348 348 344 344 343 343 343 343 345 346
345 356 358 353 351 351 351 354 351 350 353 349 351 351 349 349 350 349 350 349 348 347 346 348 349 350 348 350 351 347 340 337 336 334 335 334 337 343 347 347 345 343 345 346 346 346 347 343 346
349 351 352 347 346 345 349 352 352 354 354 354 353 351 350 350 350 350 351 350 351 351 348 347 350 350 349 348 346 339 336 334 332 333 335 340 344 349 350 346 347 347 347 346 348 347 350 348 347
349 350 346 346 342 344 351 353 351 355 355 354 355 352 350 350 350 350 351 352 352 350 350 348 349 348 344 339 337 335 333 332 333 335 347 350 351 350 347 345 345 348 348 349 349 348 347 349 348
352 348 344 345 343 342 348 351 353 352 351 350 351 350 350 350 349 350 351 352 351 352 350 347 346 344 338 336 335 333 334 333 340 347 349 352 351 350 349 348 348 349 350 349 345 349 349 349 350
347 346 345 344 343 341 340 348 353 351 350 349 351 351 350 349 349 350 350 350 351 352 351 349 349 346 346 344 341 340 345 344 347 349 350 352 352 350 349 349 350 350 348 349 348 348 348 346 349
344 343 343 344 342 341 341 342 347 350 349 351 352 351 350 348 348 349 349 348 349 351 350 351 351 350 348 348 348 346 350 349 349 350 351 352 349 350 350 349 348 351 349 349 346 347 349 349 346
342 339 344 343 341 342 339 348 353 351 349 352 352 351 348 346 348 348 350 349 348 350 349 350 349 349 350 348 350 349 354 353 352 351 351 352 350 349 350 348 348 349 349 348 349 348 348 341 337
324 335 344 342 342 339 336 350 353 349 348 349 351 350 347 346 348 349 350 351 349 349 351 350 349 348 349 350 352 353 351 351 350 350 350 350 349 349 349 349 347 349 350 348 348 347 345 341 338
321 323 326 327 335 342 342 344 351 348 349 349 347 347 347 346 348 348 350 350 350 351 350 352 350 349 349 353 353 352 350 349 350 350 348 350 350 350 351 348 349 350 352 351 349 346 343 334 336
322 324 325 331 343 343 342 344 348 350 350 350 349 348 347 346 344 345 350 350 349 349 349 350 351 349 352 352 348 350 349 348 351 354 349 350 352 352 351 348 350 350 351 351 348 347 342 333 335
322 323 324 328 337 343 343 343 346 348 349 350 349 349 348 347 344 344 350 350 348 348 350 351 352 350 348 348 347 348 348 347 352 354 351 351 350 351 350 348 350 351 351 350 347 345 339 332 337
321 322 323 341 344 345 345 344 341 341 348 348 348 347 347 346 344 343 347 349 348 348 351 352 352 350 350 351 349 349 348 349 351 352 352 353 353 350 352 348 349 348 351 348 346 340 332 337 336
321 322 323 328 343 343 346 347 344 341 338 339 346 345 344 345 343 343 344 347 349 348 351 350 351 351 352 352 352 351 350 351 354 353 349 350 351 347 350 348 348 349 349 348 345 337 334 336 338
322 323 324 328 337 343 341 347 347 343 341 340 341 344 344 343 343 342 344 347 348 349 350 350 351 352 353 354 353 352 353 354 352 350 350 351 353 353 349 351 347 348 349 348 345 339 335 331 337
323 323 324 327 340 342 343 345 343 347 347 340 341 341 343 342 342 342 343 344 347 348 351 350 350 352 353 354 354 352 352 350 349 353 354 354 353 353 352 350 350 348 349 347 344 337 332 334 335
323 321 323 324 332 341 341 346 348 348 347 344 342 342 341 341 342 342 343 344 345 348 350 351 351 353 353 353 354 353 353 351 350 354 355 354 354 354 352 351 351 349 344 347 340 338 335 334 336
321 318 320 323 324 329 337 347 345 343 346 345 344 344 341 341 341 341 342 344 345 347 350 352 353 354 354 354 355 355 352 350 349 351 353 350 353 353 348 352 351 349 346 344 340 338 337 333 337
318 319 319 321 326 327 329 346 344 340 341 345 345 345 343 340 340 341 342 344 345 347 351 353 353 354 354 354 355 354 352 349 350 353 350 350 350 352 348 350 350 349 346 344 341 340 336 331 332
320 318 317 318 324 327 328 335 335 338 339 343 346 346 343 340 339 340 341 343 345 347 351 354 354 353 355 354 353 353 353 354 355 355 353 352 351 349 347 347 349 347 346 346 342 339 337 335 336
322 317 319 314 319 322 324 330 333 337 340 341 346 346 343 341 340 340 340 343 346 346 351 353 354 353 354 355 355 354 352 353 356 356 355 352 348 348 347 347 348 346 346 347 344 340 339 337 335
321 319 317 317 318 322 323 325 326 329 338 341 345 346 343 341 342 341 341 340 344 347 349 354 355 354 354 356 356 355 354 352 354 357 358 357 354 353 348 347 347 346 347 347 345 342 339 337 334
324 322 318 321 319 320 323 325 328 327 335 340 340 342 342 340 343 342 342 341 342 347 348 353 356 356 355 356 357 357 356 354 352 355 356 357 359 354 353 350 347 347 347 348 347 343 339 338 336

GFSSGP_925_thetae_039.txt.gz
Theta_e
350 351 351 350 362 363 366 361 356 358 358 353 352 352 355 351 353 355 344 345 345 345 345 343 350 351 351 350 349 349 350 351 349 345 345 347 349 346 347 351 351 350 350 348 350 350 345 344 344
350 353 347 354 365 366 363 357 359 357 352 349 350 350 351 353 347 346 346 344 345 345 345 346 348 349 351 350 349 350 351 352 351 351 352 352 348 349 351 350 350 350 350 350 349 349 347 348 348
352 350 347 358 364 365 365 356 357 353 350 350 351 349 350 353 346 346 345 343 344 345 346 347 350 348 351 351 351 351 352 352 346 343 349 351 351 351 349 346 345 347 351 351 346 344 344 344 344
355 354 356 362 364 360 358 357 355 353 350 349 351 354 350 348 347 347 344 345 344 346 347 349 351 350 351 351 351 351 351 351 348 345 345 349 349 347 348 347 346 348 351 352 351 347 346 345 344
350 354 359 362 361 356 355 355 353 354 352 351 351 354 353 348 347 344 345 345 346 347 347 347 348 349 351 351 351 350 349 349 346 346 344 345 344 346 345 347 349 351 353 349 346 344 344 344 344
353 354 359 362 359 356 355 353 353 354 353 352 351 353 351 348 347 347 346 347 347 346 346 346 348 349 350 351 351 351 346 348 346 345 343 343 344 342 343 346 348 349 347 345 343 343 343 343 343
349 352 357 359 358 358 356 351 355 354 352 352 349 355 350 348 348 347 348 347 346 346 345 347 349 350 350 351 350 346 343 343 342 340 339 341 340 340 344 346 346 345 345 343 343 343 344 343 344
349 353 358 357 357 359 354 353 352 352 354 347 348 354 353 349 348 348 348 347 346 346 347 347 349 350 349 350 351 346 341 342 339 337 339 340 343 347 348 348 347 344 344 343 341 342 344 345 345
346 356 357 356 354 356 354 355 351 349 351 348 349 348 348 349 348 347 348 348 346 348 348 348 350 351 346 348 351 347 341 340 337 336 339 338 341 346 347 346 346 344 346 346 345 346 346 344 347
350 352 349 346 345 353 354 353 352 352 351 354 350 347 348 348 347 347 347 347 347 348 350 348 350 350 348 349 350 342 340 336 334 334 336 338 342 348 348 346 347 347 346 345 347 346 347 347 347
349 351 345 345 344 347 353 352 351 351 353 353 351 350 349 348 348 348 348 348 347 346 348 348 350 350 346 346 345 341 337 334 333 333 336 340 346 349 348 345 345 347 346 347 348 347 345 348 348
350 348 346 343 342 348 353 350 353 350 350 349 348 348 349 349 349 349 349 349 349 349 347 347 347 349 347 345 340 336 335 333 332 334 339 348 350 350 348 347 347 348 349 348 345 347 348 346 347
350 348 345 344 341 342 350 352 352 352 349 348 348 350 349 349 349 350 350 350 350 350 348 346 347 347 344 339 337 337 334 333 332 339 346 350 350 349 348 348 349 349 349 348 347 348 348 345 349
344 346 345 344 343 344 352 352 351 350 350 351 350 351 350 349 349 349 350 350 350 349 348 347 346 345 340 335 336 335 335 335 339 344 348 349 351 350 349 347 346 350 348 348 346 346 347 348 347
339 345 345 343 342 342 341 349 354 349 351 352 351 350 350 349 349 349 350 350 350 349 347 348 346 344 338 336 340 341 342 347 347 348 349 350 350 350 350 349 348 350 349 348 348 348 348 339 336
327 331 333 329 340 340 340 344 351 350 352 354 352 350 350 348 348 349 350 349 349 349 350 349 347 347 344 345 346 348 347 350 352 351 350 350 351 349 349 349 349 347 348 348 348 347 346 342 335
318 325 326 326 338 338 339 345 351 350 351 354 353 350 350 348 347 348 349 348 348 349 349 349 350 348 348 348 348 349 352 351 350 350 350 350 351 350 349 349 347 347 350 350 348 348 343 334 335
322 323 323 325 339 338 338 341 353 350 351 354 353 351 351 348 347 347 348 349 347 348 349 348 349 348 347 349 349 349 352 350 349 350 348 348 350 348 350 349 348 349 351 349 349 347 344 333 334
321 322 323 324 324 341 339 345 354 351 349 352 352 351 350 347 345 347 348 349 349 348 349 349 349 349 348 348 350 353 351 350 348 351 352 349 350 350 352 348 349 350 348 350 348 347 343 336 336
320 320 320 325 337 338 340 344 352 351 349 348 349 349 348 345 344 346 347 349 349 348 349 349 350 350 349 348 349 352 351 350 349 347 352 350 350 351 351 350 349 349 350 350 347 345 333 334 335
320 320 321 322 337 342 343 344 349 351 348 348 347 346 346 345 343 342 345 349 349 348 348 349 350 350 350 349 351 351 348 348 348 350 352 352 352 351 349 350 348 349 348 350 346 343 331 336 337
320 320 322 323 329 336 341 348 344 346 347 347 348 348 347 345 344 342 345 348 349 348 348 349 349 350 350 349 349 349 349 349 348 349 350 349 351 352 351 350 348 348 348 349 346 343 337 334 335
323 322 322 323 324 329 335 341 341 341 344 342 342 347 346 345 344 343 342 346 348 348 348 349 349 350 350 350 350 350 350 349 347 347 349 350 350 350 351 350 349 348 347 347 347 344 336 332 335
322 322 320 321 322 331 328 341 342 347 343 341 338 341 345 344 343 343 342 344 346 348 347 349 349 350 351 350 350 351 352 351 349 350 350 349 350 351 352 352 351 349 348 347 347 343 335 331 334
319 317 319 319 321 324 322 337 337 337 342 341 340 338 341 343 343 342 341 342 344 347 347 348 349 350 351 351 352 352 352 351 350 348 349 354 354 354 353 353 352 350 349 346 345 341 337 335 334
318 319 317 319 322 321 323 331 330 335 337 340 341 339 338 341 342 342 341 340 342 345 347 349 349 350 353 353 353 352 353 352 351 350 347 350 353 350 351 353 351 350 350 345 345 341 338 337 333
318 319 318 316 321 320 323 329 333 335 337 337 340 340 339 339 340 341 340 340 342 343 346 348 350 350 352 353 353 353 353 352 352 351 348 347 351 351 349 352 348 351 350 347 344 341 339 336 331
321 314 318 310 319 320 318 325 329 336 337 336 340 342 341 341 339 339 340 340 341 343 345 347 349 350 351 352 353 353 352 352 352 351 349 348 350 350 349 352 348 349 349 348 344 342 340 337 334
318 320 315 316 313 320 318 320 323 329 333 335 336 341 342 342 341 339 339 339 340 342 344 347 350 350 350 352 352 352 353 353 353 352 349 348 353 351 350 351 348 349 349 347 345 344 342 338 336
321 320 318 317 316 315 320 320 324 324 324 332 335 337 341 343 342 339 338 338 340 342 344 348 350 351 350 352 352 352 352 352 353 353 350 351 353 352 350 349 347 347 348 347 346 345 344 340 338

GFSSGP_925_thetae_042.txt.gz
Theta_e
350 352 351 350 360 361 366 360 355 359 358 352 350 350 353 351 353 359 345 345 344 344 344 344 345 350 351 349 348 345 340 341 338 344 351 352 351 350 349 346 348 350 351 351 350 349 344 345 343
351 352 348 354 364 366 363 357 358 356 352 349 349 349 351 353 347 345 346 345 345 344 343 343 347 349 351 350 345 346 351 346 348 349 350 351 350 349 350 350 350 350 350 350 350 350 350 348 344
351 352 346 356 363 365 363 356 355 352 349 349 351 349 349 353 346 346 345 345 345 344 343 345 348 348 351 350 350 350 351 351 350 351 351 347 346 345 350 350 350 349 347 347 349 349 348 349 343
354 353 353 360 363 359 358 355 353 351 350 349 350 354 349 346 345 345 344 345 345 345 344 348 350 351 351 351 351 352 352 350 348 349 346 344 345 347 350 351 350 348 348 350 350 349 345 344 342
349 351 357 358 359 356 353 354 351 353 352 352 351 354 352 347 347 344 344 344 345 346 346 350 349 349 351 351 352 351 351 349 342 342 343 346 348 348 349 349 350 350 350 351 348 346 345 344 345
347 352 358 359 358 354 354 352 353 353 352 350 351 352 352 345 344 345 345 344 345 346 347 350 349 348 350 351 351 348 347 341 341 342 345 347 344 345 346 347 349 351 351 347 343 343 343 343 344
347 351 356 356 358 357 356 351 354 353 352 351 348 354 350 345 345 345 345 344 345 346 345 348 349 350 351 351 350 345 339 342 342 345 343 341 342 343 345 346 346 346 346 345 343 343 343 342 344
348 350 357 356 357 357 354 352 351 350 353 346 346 351 353 347 346 346 345 346 346 346 344 347 348 348 349 350 350 346 342 341 343 344 341 343 345 346 348 347 345 344 343 344 343 344 344 345 345
346 350 353 355 355 354 353 355 350 348 349 348 348 346 346 347 346 347 348 347 347 346 346 345 346 347 346 347 349 347 343 340 342 341 339 341 344 347 347 346 345 344 346 345 345 346 346 344 346
347 349 349 348 347 354 354 353 351 351 349 352 349 347 347 347 347 347 346 346 348 347 346 346 347 346 345 346 348 346 342 340 340 338 338 339 341 346 347 346 347 347 346 345 347 346 347 346 345
347 350 344 344 344 350 354 352 349 351 350 351 351 350 348 347 347 347 346 346 346 345 346 346 348 348 346 345 347 347 339 338 337 336 337 340 343 347 348 345 345 347 346 347 347 347 346 347 346
350 348 345 342 341 351 353 350 352 348 346 348 347 348 348 347 347 346 346 345 345 346 345 345 346 349 347 347 347 343 337 337 335 334 336 341 347 348 348 345 346 347 347 347 344 346 346 346 346
350 350 346 344 340 349 349 352 352 347 349 345 346 348 348 347 347 347 346 346 344 345 344 346 346 350 347 344 343 340 336 334 334 335 336 344 349 347 348 347 347 347 347 347 347 347 346 346 347
344 346 345 343 342 344 352 352 351 349 347 348 348 349 348 347 347 348 347 347 346 344 344 345 346 347 347 345 343 336 334 334 335 334 339 346 349 348 350 348 347 347 347 348 346 346 345 347 346
337 338 338 344 342 342 349 354 353 349 349 350 350 349 348 347 348 348 348 348 348 346 344 345 345 345 346 344 340 335 334 334 334 337 342 346 348 349 349 349 347 347 348 348 348 348 346 341 335
333 338 341 335 336 339 347 356 352 350 352 352 351 350 349 348 348 348 349 349 349 349 348 347 345 345 344 341 337 334 335 337 342 345 347 348 349 350 349 349 349 349 348 348 348 347 347 342 336
318 325 327 326 330 336 345 344 342 350 352 352 350 350 350 349 348 348 348 349 349 349 349 347 346 345 343 341 336 336 342 344 347 350 351 350 350 350 349 349 348 348 348 348 348 347 346 334 335
324 322 322 325 331 337 338 339 346 351 352 352 350 349 350 349 348 348 348 349 349 349 349 347 346 345 342 339 338 341 346 348 351 349 349 349 348 349 349 349 349 348 348 350 349 347 343 335 333
323 322 324 323 324 337 336 340 352 351 352 352 351 349 349 348 346 347 347 348 348 348 349 348 348 347 346 346 346 347 347 349 351 349 349 347 347 349 350 349 349 348 349 349 350 347 344 339 333
320 321 321 320 322 333 335 338 352 351 352 352 352 351 349 348 346 345 346 348 347 347 348 348 348 348 348 347 346 348 348 348 351 349 348 350 349 348 349 349 350 347 349 349 349 346 342 330 335
319 320 320 322 328 339 340 341 353 351 349 349 350 350 349 348 348 344 346 347 348 347 347 348 347 347 348 347 347 348 349 350 351 349 348 350 350 349 349 346 351 349 348 348 348 346 339 330 336
318 319 320 321 322 323 340 347 345 352 352 349 347 350 349 348 346 344 345 346 347 348 347 347 347 348 348 348 348 348 349 350 351 350 349 348 350 350 351 351 350 350 348 347 348 346 337 335 335
321 320 320 321 322 323 328 341 338 348 354 351 348 346 346 346 346 343 343 345 346 347 347 347 347 348 348 348 348 348 349 350 350 347 346 348 350 351 350 351 351 351 348 346 348 345 341 335 333
320 319 316 317 319 324 322 329 330 345 351 351 348 348 347 345 344 343 341 343 345 347 347 346 347 348 348 348 349 349 348 349 348 348 347 348 349 348 349 349 351 349 348 347 347 346 342 334 329
319 318 318 319 320 324 319 331 327 337 341 345 347 346 345 346 345 344 343 341 344 346 347 346 347 348 348 349 348 349 349 349 348 349 348 347 348 349 349 350 351 351 350 348 347 346 343 336 332
318 317 317 320 318 323 320 325 326 329 337 339 340 341 341 342 345 345 344 342 341 345 347 346 347 347 348 348 348 349 349 349 349 350 350 348 346 347 351 352 351 351 351 349 348 346 344 336 335
316 318 315 314 317 316 319 321 326 328 329 336 338 338 338 338 341 343 343 342 341 343 346 346 347 347 347 349 349 349 350 350 349 350 350 350 346 348 352 352 352 352 352 349 348 344 343 338 337
316 316 319 312 320 320 317 321 324 330 331 331 333 338 338 337 337 341 342 341 341 341 344 346 346 347 347 349 350 350 350 350 350 350 350 350 349 346 348 351 350 352 352 349 349 345 343 339 338
316 315 315 317 313 318 317 319 319 327 328 327 329 335 338 337 337 338 340 341 341 340 342 345 346 347 347 349 350 351 350 350 350 350 350 350 350 349 346 349 350 350 352 348 350 347 344 340 339
321 320 312 319 316 313 314 318 318 320 325 329 330 331 335 338 337 337 338 339 340 340 341 343 345 347 348 348 350 351 351 351 350 350 350 350 350 350 347 348 350 349 351 348 349 348 345 341 340

GFSSGP_925_thetae_045.txt.gz
Theta_e
351 353 351 353 362 362 364 361 357 357 357 353 351 352 353 352 355 363 346 346 345 346 346 345 348 351 352 349 345 344 344 340 340 343 350 352 346 350 351 349 350 349 350 350 350 350 350 350 347
352 351 351 354 365 367 365 358 361 358 354 350 350 351 353 355 347 348 347 347 346 347 346 349 348 350 351 348 348 350 348 342 343 349 351 348 350 351 351 350 350 350 350 350 350 350 347 342 342
353 352 349 358 363 366 364 358 357 355 350 350 353 349 351 353 347 347 347 347 346 347 346 351 348 351 350 350 349 348 349 346 349 352 351 351 351 351 351 351 349 348 348 349 349 347 345 343 342
355 354 355 363 359 360 358 357 353 353 351 350 351 354 350 347 347 347 347 347 346 346 347 349 350 351 352 352 351 350 351 352 351 350 351 351 351 351 351 347 347 348 351 350 349 346 344 343 342
353 352 359 359 356 357 355 355 352 354 353 352 350 354 352 348 347 346 347 347 345 346 348 349 349 350 352 351 350 351 350 343 349 351 351 350 350 350 351 349 348 351 351 348 347 346 344 344 344
351 353 359 355 356 354 355 352 353 354 353 351 352 352 353 347 346 346 347 347 346 347 349 349 349 349 350 352 351 352 350 350 349 351 347 345 344 345 347 348 349 351 351 347 343 343 343 343 344
352 353 357 355 356 357 357 353 355 353 352 352 348 354 350 346 346 346 346 347 347 348 350 350 348 351 352 352 351 350 350 348 349 345 344 343 343 344 346 345 345 347 346 344 344 344 344 344 345
349 352 354 354 357 358 355 354 352 350 352 347 347 353 354 346 346 346 346 347 348 349 350 351 349 349 349 350 351 348 348 345 345 344 342 342 343 346 348 346 345 345 343 343 344 344 344 345 345
346 358 355 354 355 355 354 356 350 349 350 348 348 349 347 346 346 347 347 347 348 349 348 349 348 349 349 350 350 348 345 344 343 343 343 347 352 351 351 347 346 346 346 345 346 346 346 345 345
356 359 350 347 349 354 355 355 353 353 349 351 351 347 346 346 347 347 347 347 347 348 348 347 347 347 348 348 350 350 349 348 350 350 347 351 347 347 347 348 346 346 345 346 346 346 347 346 349
352 353 347 345 346 350 355 355 352 352 352 351 354 351 347 347 347 347 346 345 346 346 346 347 348 348 348 348 349 350 347 348 348 339 339 342 346 346 350 348 349 346 347 350 350 349 348 346 349
350 348 347 346 345 348 354 353 354 350 346 345 349 348 347 348 347 346 346 345 346 346 347 348 349 350 349 348 349 350 347 347 346 346 337 340 345 347 349 351 346 347 347 347 345 349 346 344 344
348 349 348 347 346 344 351 354 354 352 350 348 348 348 348 348 346 345 345 345 345 345 346 348 350 351 351 349 350 351 349 345 345 341 336 341 347 348 349 348 347 347 348 349 348 347 348 345 346
347 349 348 344 344 348 353 354 353 351 349 350 350 349 348 347 346 346 345 345 344 344 345 347 349 350 351 350 350 350 348 346 340 343 340 337 345 348 350 349 347 347 347 349 347 345 346 348 347
336 338 336 340 343 346 351 356 356 351 350 351 350 350 349 348 346 346 345 345 344 344 345 347 349 350 351 351 348 348 346 344 343 342 335 339 344 348 348 350 351 350 348 348 348 347 345 343 337
333 337 340 340 343 344 349 351 353 351 351 352 350 350 349 348 347 347 346 346 346 345 345 347 347 349 350 351 349 347 345 343 343 343 343 340 345 348 349 352 352 352 349 348 345 350 349 342 335
328 334 336 338 340 342 349 346 348 352 352 353 351 351 350 349 348 347 347 348 347 347 347 347 348 348 349 350 348 345 341 339 343 345 348 347 348 348 349 349 351 348 351 350 348 350 347 337 337
331 331 331 335 334 338 348 345 343 354 354 354 352 351 351 350 349 347 348 348 349 349 350 350 349 350 349 348 347 346 344 343 347 348 350 349 349 350 350 349 349 349 352 348 350 348 344 340 338
326 329 334 333 330 337 338 339 341 352 354 355 353 352 351 350 348 348 349 349 349 350 350 351 351 350 349 348 347 345 344 346 349 350 350 348 349 348 348 349 349 349 347 347 346 349 346 342 337
324 326 331 329 325 328 332 336 341 350 354 354 354 353 351 349 349 349 349 350 350 350 350 352 352 350 348 348 346 343 344 348 350 352 350 349 349 348 348 349 351 350 352 349 348 348 344 338 336
323 324 327 330 326 335 336 337 347 350 353 353 353 352 350 350 350 349 349 349 350 350 351 351 350 350 347 347 348 348 349 350 351 351 353 351 349 350 348 349 349 351 350 352 349 348 344 339 339
323 322 323 327 329 333 339 340 347 350 355 355 354 353 351 350 350 348 348 349 349 350 350 351 351 350 349 347 349 349 348 350 351 352 352 353 349 349 349 349 349 351 353 352 350 348 345 337 339
323 322 323 324 329 329 331 336 337 349 355 354 354 354 352 350 350 349 348 348 348 349 350 350 350 350 349 349 349 349 350 350 351 352 353 352 352 349 349 350 350 351 351 351 347 347 346 340 338
324 324 324 324 326 331 331 332 336 345 352 353 351 352 352 351 350 350 348 347 348 348 350 350 350 350 350 349 349 349 350 350 351 352 352 352 352 352 350 352 351 351 352 350 348 346 346 342 336
324 325 326 327 328 330 330 329 332 333 341 346 350 351 350 350 351 351 351 349 349 349 350 350 350 350 350 350 350 350 350 350 351 351 352 351 351 351 352 351 349 352 350 349 348 346 346 344 338
325 323 323 326 326 326 327 330 331 330 330 339 341 346 349 349 350 350 352 350 348 349 349 350 350 350 350 350 350 350 350 351 351 351 351 351 351 351 350 348 349 348 350 350 350 347 346 344 340
324 326 323 322 322 324 326 328 328 330 332 332 342 344 346 348 349 349 348 349 348 347 348 350 350 350 350 351 350 351 351 351 351 351 351 351 351 352 349 345 347 350 350 351 351 349 347 345 340
322 323 322 324 324 324 324 326 328 333 333 335 338 343 344 345 346 348 350 349 348 347 348 350 350 351 350 350 351 351 351 351 351 351 351 351 351 350 351 348 350 353 352 352 351 350 348 345 341
321 324 323 323 323 323 322 323 328 333 336 334 335 340 341 342 343 344 347 349 348 347 346 349 350 350 351 351 351 351 351 351 351 352 351 350 349 349 350 347 350 352 350 351 352 350 348 344 343
322 323 324 325 327 323 323 323 325 329 333 334 335 336 337 339 341 342 342 344 346 348 347 347 349 350 350 350 351 352 352 352 352 352 352 350 350 349 349 349 349 353 352 351 351 351 348 346 345

GFSSGP_925_thetae_048.txt.gz
Theta_e
349 351 352 354 366 365 365 362 358 359 359 355 353 355 356 356 358 367 347 346 347 348 346 349 350 352 352 352 351 348 349 350 349 351 352 349 351 349 348 349 349 349 351 350 351 350 351 349 347
353 352 354 357 369 368 366 359 360 358 356 354 353 353 355 357 350 349 350 346 348 347 349 351 351 351 352 349 347 347 352 351 351 351 351 351 352 349 351 350 349 348 349 350 351 351 349 347 343
352 353 355 361 365 366 363 359 359 357 353 353 354 352 355 355 350 349 347 347 349 348 349 350 348 349 350 348 348 351 352 351 353 352 352 352 351 351 351 351 351 351 350 348 349 348 345 342 342
355 355 357 368 360 359 359 358 356 356 353 352 353 358 351 349 349 350 348 348 347 348 350 347 349 352 352 351 351 351 352 352 352 352 352 352 351 352 352 351 351 352 351 350 347 343 342 341 342
356 356 363 365 358 358 357 356 355 355 355 354 353 356 355 349 349 349 348 348 348 347 348 349 350 351 352 352 352 352 352 351 351 351 352 352 352 352 352 351 352 352 350 349 345 344 344 344 344
359 356 360 357 357 356 357 355 354 354 354 353 354 354 355 350 349 349 348 348 347 346 345 348 349 351 352 353 352 350 351 350 350 351 352 352 351 348 347 351 352 352 350 345 343 343 343 344 345
360 357 356 357 356 357 358 354 355 353 353 354 351 357 354 350 349 348 348 347 346 346 344 346 347 350 352 353 352 351 351 347 351 351 347 345 345 345 346 345 347 347 346 347 345 344 345 345 344
355 354 354 350 352 353 357 355 354 351 353 349 350 356 357 350 348 348 347 347 347 346 345 346 347 348 348 348 351 349 347 350 350 345 343 342 344 347 345 349 343 344 343 344 345 345 344 346 345
352 358 355 351 354 355 356 356 352 349 351 350 350 351 350 348 347 348 347 347 348 347 345 345 346 348 348 348 348 345 346 347 344 344 344 349 352 353 352 346 345 346 345 345 346 347 346 346 344
358 359 351 349 351 354 355 354 355 352 351 352 352 350 349 349 348 349 348 349 349 348 346 344 344 346 348 346 349 348 347 346 349 351 352 353 353 353 352 349 345 345 345 345 345 346 346 350 350
355 356 348 347 349 351 355 355 354 352 351 352 353 353 350 349 349 349 348 349 349 347 345 344 344 346 346 344 347 347 346 347 349 353 353 352 352 353 352 351 351 352 349 352 351 350 349 348 348
354 352 348 348 348 349 353 354 355 352 347 347 350 350 350 350 350 348 348 348 348 347 346 345 346 347 346 346 346 347 344 345 346 348 351 352 351 353 354 352 351 353 352 350 351 351 350 349 349
351 351 350 348 348 347 349 353 355 353 349 348 349 350 350 350 348 347 347 347 347 348 347 347 348 349 348 348 346 347 345 343 343 347 349 349 351 353 354 351 352 351 352 350 350 349 350 348 348
345 348 349 348 345 346 353 354 354 354 351 350 350 351 350 349 348 347 346 346 347 347 347 348 349 349 349 349 350 350 348 344 345 345 347 349 350 352 353 351 352 351 352 353 351 350 350 349 349
345 348 347 343 343 348 351 356 356 354 352 352 351 351 350 349 348 348 346 346 346 345 345 347 348 349 351 351 351 350 346 344 343 343 346 348 350 353 349 353 352 351 353 350 350 349 348 346 341
336 336 342 343 343 346 350 351 353 354 355 354 352 351 350 349 348 347 346 345 345 345 346 347 347 348 351 351 351 348 345 344 342 343 346 349 351 353 356 354 353 353 353 350 348 348 347 345 339
332 341 342 345 344 346 349 349 350 353 355 356 354 352 350 350 348 347 346 345 345 345 345 347 348 348 350 351 350 349 346 345 342 345 347 350 353 355 356 354 353 356 352 352 352 349 348 345 342
336 336 341 345 343 343 348 348 345 351 353 355 354 353 351 349 349 346 346 346 346 345 346 348 348 348 350 350 351 348 345 344 343 346 349 352 355 357 357 355 354 355 352 351 352 349 349 346 344
334 335 337 340 341 340 343 344 342 343 352 353 355 354 352 349 347 346 346 346 346 347 347 349 349 350 351 350 348 346 344 344 345 349 352 356 357 357 359 355 356 354 352 350 351 350 349 347 344
330 332 335 338 337 335 340 341 340 340 350 352 354 355 354 351 348 347 346 346 346 347 349 351 351 352 353 350 347 344 344 343 346 350 353 356 356 358 357 353 352 355 353 351 351 349 349 346 340
330 332 332 336 336 334 335 338 339 341 345 349 352 353 353 353 350 349 348 347 346 347 349 350 353 355 355 350 349 348 345 347 348 351 353 355 357 356 357 354 349 355 351 350 352 352 350 345 343
329 328 329 330 333 338 337 343 342 341 346 349 351 353 353 353 351 348 347 348 346 346 348 351 354 356 357 353 348 348 344 345 346 350 350 351 354 355 355 355 354 352 353 352 353 352 351 349 341
326 327 327 328 330 332 335 338 338 341 343 349 350 352 352 353 352 350 347 346 346 348 349 351 354 356 357 356 350 350 348 343 347 351 352 354 353 356 354 355 354 356 356 354 356 353 353 348 343
324 325 326 327 329 332 333 336 337 339 343 344 347 350 352 351 351 352 346 345 347 348 350 351 355 357 357 357 355 353 351 348 350 353 354 354 354 353 356 355 356 357 357 356 357 355 353 350 347
324 326 327 327 329 332 332 335 336 336 337 341 343 346 351 352 351 352 352 348 346 348 349 351 354 358 358 357 356 355 354 353 354 355 355 354 351 351 352 356 356 357 358 356 357 357 352 352 349
325 326 325 330 330 330 331 333 334 335 335 335 340 342 350 351 352 352 353 351 349 348 351 352 355 358 358 357 357 357 356 354 353 353 353 353 352 350 351 354 355 357 356 358 358 356 354 351 350
327 329 325 325 327 328 329 331 331 332 334 334 336 338 341 347 351 353 352 351 351 350 351 354 356 358 358 357 358 358 357 356 353 354 356 354 354 352 353 354 356 356 357 358 358 356 355 351 351
327 326 325 325 328 328 327 328 330 332 332 334 335 336 339 341 347 351 352 351 351 351 352 354 356 359 358 357 358 357 357 357 356 356 356 356 355 355 352 355 355 356 357 358 359 356 356 354 350
326 327 326 325 325 328 329 328 329 330 332 333 334 335 337 340 345 350 351 350 351 351 351 353 356 357 357 357 357 357 357 357 357 357 357 357 357 357 357 355 355 355 357 360 360 358 355 355 352
326 326 327 328 329 327 327 327 327 328 329 332 332 334 336 339 341 346 348 350 350 350 351 351 353 355 356 356 358 358 358 357 357 358 358 357 358 358 358 358 356 355 356 359 360 358 355 355 353

GFSSGP_925_thetae_051.txt.gz
Theta_e
348 349 352 352 372 368 370 362 358 358 358 355 353 355 360 358 362 367 346 345 342 346 346 348 350 353 352 351 347 344 348 352 347 349 350 350 350 352 352 349 350 351 351 352 351 351 351 350 350
350 353 354 359 374 375 366 357 360 358 356 355 354 354 356 358 352 351 347 348 348 347 348 351 351 352 352 351 351 352 353 352 351 350 352 352 351 351 350 349 349 350 352 352 351 350 350 349 349
353 354 360 366 368 372 367 356 356 355 354 354 355 354 356 357 352 350 346 349 347 350 351 353 352 352 354 353 352 351 352 352 351 353 353 352 352 352 352 352 352 351 350 350 350 350 350 348 346
354 356 358 368 368 358 356 355 354 355 353 353 353 358 354 350 352 351 347 348 349 352 351 351 353 353 352 352 352 353 353 352 353 353 352 352 352 352 352 352 353 352 351 351 350 347 344 345 345
355 361 369 368 365 357 353 352 353 354 354 354 355 359 356 351 351 348 348 350 349 351 349 351 350 350 351 352 352 353 353 353 353 352 352 353 352 353 353 353 352 351 351 350 347 345 346 345 344
362 359 367 367 360 356 352 351 352 352 353 354 357 358 357 350 348 347 349 349 349 348 346 348 349 348 351 353 353 353 353 353 353 352 352 352 352 352 352 352 352 352 350 349 344 344 344 345 345
360 362 360 361 351 357 352 350 352 351 353 355 352 360 356 352 349 349 349 348 348 343 344 348 349 350 353 353 352 352 352 352 353 352 352 351 346 344 343 344 350 350 350 349 345 345 345 345 344
356 358 357 351 352 359 351 352 347 350 354 351 354 360 360 352 350 349 349 347 345 343 345 346 348 348 350 350 353 352 352 352 352 351 345 343 343 343 348 346 342 345 348 348 345 344 345 345 345
353 361 358 348 354 349 349 349 349 348 352 351 351 354 353 351 349 349 348 347 347 343 343 344 346 347 347 347 349 349 349 348 350 343 344 350 352 351 351 346 342 344 346 346 346 345 345 345 343
356 360 357 348 351 350 349 345 346 349 351 351 353 353 351 350 349 349 348 348 348 344 343 343 344 346 346 345 347 346 346 348 352 352 351 352 354 352 352 348 343 344 344 345 345 344 346 348 350
352 363 358 345 347 351 346 347 345 348 351 350 355 355 352 351 349 349 348 348 348 345 343 342 344 346 346 346 346 346 346 347 351 354 353 353 352 352 351 352 351 352 350 351 350 350 350 351 346
350 352 349 347 348 349 351 347 347 346 345 347 351 352 352 352 352 351 349 350 348 346 344 343 345 347 346 346 346 345 344 346 348 351 354 354 352 351 352 351 351 353 351 351 353 350 350 348 349
347 349 349 348 349 348 348 349 349 347 344 346 350 352 352 352 351 350 348 349 348 347 345 344 345 348 348 348 345 344 344 344 345 349 352 350 350 352 353 353 351 352 351 352 351 351 350 350 348
345 347 350 349 348 347 348 350 353 351 348 348 350 352 352 352 351 349 348 348 348 346 345 345 347 349 349 349 348 347 346 344 344 345 348 351 350 351 353 352 352 350 352 351 351 351 349 351 349
345 348 350 350 348 347 347 350 351 352 350 352 349 351 351 351 349 349 348 347 347 347 346 347 348 349 351 351 351 350 347 345 344 344 347 350 351 353 352 353 352 352 352 352 352 350 349 346 343
346 348 351 349 347 346 347 354 350 355 353 354 351 349 350 350 349 348 348 347 346 346 347 347 347 348 351 351 351 350 346 344 343 343 345 351 353 356 356 354 353 352 353 350 348 348 346 344 341
338 344 344 347 345 346 348 354 353 354 354 355 354 349 349 350 349 348 347 346 346 346 346 347 347 347 350 351 351 350 346 346 343 342 345 352 353 354 357 354 353 356 352 351 350 347 350 345 340
337 337 341 344 345 345 347 350 351 353 353 355 355 353 350 349 349 347 347 346 346 346 347 348 348 348 350 351 352 349 346 346 344 343 346 351 354 356 357 353 355 355 353 350 350 351 347 344 340
337 336 339 343 344 345 347 348 349 350 351 353 355 355 352 350 347 346 346 346 345 346 347 349 350 350 351 351 351 348 346 345 344 343 347 351 355 357 355 354 354 352 354 352 352 350 350 348 342
339 338 338 341 344 345 345 346 346 345 348 349 352 355 354 351 349 347 346 345 345 346 347 350 351 353 352 351 350 346 345 344 344 345 349 354 356 357 358 357 354 353 353 354 351 350 351 343 339
340 336 337 339 341 343 341 343 344 342 342 347 349 353 354 353 351 347 347 345 345 346 348 350 353 353 354 351 350 348 346 345 345 345 349 353 356 357 358 358 353 356 351 353 354 352 350 348 341
331 332 333 334 340 344 340 344 342 342 342 345 349 352 354 354 352 349 346 346 345 345 348 351 355 356 355 355 351 349 347 345 344 345 348 351 354 356 356 358 356 355 353 353 354 351 352 345 343
329 330 333 334 335 338 340 342 341 342 344 344 347 349 351 353 353 351 347 345 345 345 346 350 356 357 356 357 353 350 349 344 345 346 348 351 354 355 354 355 356 356 354 352 353 355 353 350 346
328 328 330 333 334 336 337 342 341 341 344 344 345 346 349 351 352 352 347 344 345 345 345 347 355 359 360 360 357 355 351 348 343 347 349 352 353 354 356 354 355 355 355 355 357 356 356 353 346
327 327 329 332 334 335 335 338 339 338 338 341 344 346 348 350 351 352 351 347 345 345 345 347 354 360 362 362 360 356 356 354 350 351 352 353 351 350 352 356 357 355 357 357 355 359 356 356 352
327 326 328 332 332 332 333 336 336 335 336 337 341 343 345 349 350 352 352 349 346 347 348 349 355 361 363 362 362 361 358 355 352 350 354 353 352 350 350 359 358 357 357 356 358 357 357 355 354
328 329 327 328 330 331 331 333 334 335 335 337 337 341 343 347 349 351 352 351 348 349 351 353 355 360 364 363 363 363 362 358 355 352 354 354 355 351 351 352 357 357 357 357 358 357 358 355 354
329 329 327 328 334 332 331 333 334 335 336 336 337 338 341 346 349 350 351 352 351 349 351 353 355 361 363 363 363 364 363 362 358 357 357 356 355 355 353 353 355 357 358 358 359 357 357 357 354
328 330 328 328 328 330 333 332 332 334 335 334 335 337 339 342 348 349 349 350 353 351 350 354 357 359 363 364 363 364 364 363 363 360 360 359 360 359 357 358 356 357 358 359 361 359 356 359 357
329 329 331 333 333 328 329 331 331 331 331 333 334 336 337 340 341 344 348 351 351 353 352 352 354 357 362 362 363 364 363 363 363 363 360 361 361 362 362 358 360 358 357 359 361 362 356 358 359

GFSSGP_925_thetae_054.txt.gz
Theta_e
345 349 351 353 368 368 371 367 359 362 359 356 354 359 360 358 362 364 346 345 343 346 349 352 352 352 349 341 338 340 344 346 348 348 347 350 353 351 352 354 352 352 352 352 352 350 350 350 350
348 351 353 360 372 370 371 361 363 361 356 354 355 355 357 359 350 348 347 344 345 345 348 352 352 352 352 345 342 345 351 352 351 347 350 351 351 349 349 350 352 353 352 352 351 351 350 350 350
351 353 360 367 371 372 369 359 358 354 354 355 357 355 356 357 349 347 344 341 347 346 351 351 352 353 348 347 349 349 351 353 349 351 352 352 353 353 352 352 351 350 351 351 351 350 350 350 349
353 355 360 369 367 364 360 355 354 355 355 355 355 359 353 350 349 345 345 349 346 350 352 350 353 353 351 351 349 348 351 347 348 351 352 353 353 353 353 353 352 352 352 351 350 349 348 347 347
355 361 369 369 366 361 357 354 354 355 356 357 357 359 357 351 348 348 348 347 349 350 352 354 352 352 351 350 348 349 348 349 349 353 353 353 353 352 354 353 352 352 352 351 350 349 347 347 347
363 364 363 366 363 358 351 352 351 354 357 357 358 358 357 352 347 349 348 349 350 351 351 353 350 349 348 351 353 351 353 353 352 353 353 352 352 353 353 353 352 351 350 348 347 346 346 345 343
360 364 367 360 361 358 351 350 349 351 354 359 355 360 355 351 348 349 350 351 349 346 349 351 350 353 348 352 353 353 354 353 353 351 345 344 345 346 349 351 351 351 347 346 345 345 345 344 338
351 355 362 362 360 356 352 348 347 353 355 353 354 360 357 350 349 350 350 350 347 345 347 349 349 354 351 351 352 352 351 351 345 343 344 345 345 345 342 342 344 344 345 344 344 345 344 344 344
349 358 362 358 353 354 351 349 349 349 356 356 355 354 350 348 349 349 349 347 347 346 346 348 348 351 349 350 352 352 352 346 340 342 344 347 352 353 354 350 341 344 345 345 345 346 344 341 344
351 357 365 357 349 349 348 348 348 349 351 355 356 353 350 350 350 349 349 347 346 345 345 346 346 348 348 346 343 351 350 348 348 350 348 352 353 351 351 344 341 344 344 345 346 344 347 346 348
352 360 355 353 348 348 348 345 346 348 350 358 359 355 351 351 350 349 348 348 346 344 344 345 346 346 346 347 344 348 346 350 352 352 351 353 354 350 350 349 348 348 348 350 348 343 347 349 347
351 352 349 349 349 347 347 346 345 346 349 352 353 352 351 351 350 349 348 348 347 344 343 344 347 346 348 348 345 346 347 348 352 351 351 351 353 354 350 352 353 351 352 351 350 349 350 350 345
348 352 352 352 352 347 346 348 346 345 347 350 352 352 352 351 350 349 348 348 349 346 344 344 348 345 347 347 345 345 345 346 349 353 346 354 352 348 351 353 349 351 351 346 350 352 351 347 347
346 346 349 348 347 351 353 349 345 343 345 350 352 352 352 351 351 350 350 350 349 347 345 346 350 346 347 348 349 347 345 344 347 347 350 346 353 353 349 354 352 351 352 350 352 350 349 351 348
343 346 346 350 348 349 346 352 353 347 345 348 352 352 352 352 350 351 351 350 349 348 345 347 348 350 348 349 351 348 347 346 344 347 350 350 348 353 354 350 351 353 353 351 349 352 349 344 345
342 345 350 346 350 350 348 360 352 348 350 349 350 351 352 352 350 352 350 350 350 346 346 348 346 350 350 351 351 351 350 346 345 344 347 350 351 355 352 353 352 353 353 350 350 348 347 343 341
344 350 350 350 347 348 346 356 354 349 352 352 350 350 350 352 351 349 347 348 347 346 347 347 346 349 351 352 353 351 349 347 345 343 345 349 352 355 352 353 346 351 349 351 347 348 349 347 341
347 343 348 349 349 349 347 353 349 351 353 352 351 350 351 350 350 349 347 347 347 348 349 347 348 349 351 352 352 352 350 347 346 344 344 351 353 354 355 355 352 351 353 351 351 348 347 347 338
341 338 341 342 341 348 345 355 351 350 348 352 353 351 349 349 349 348 347 347 348 348 350 348 351 348 352 354 354 353 350 348 347 345 344 353 353 355 356 354 355 352 353 353 352 348 348 347 337
340 340 337 337 343 346 346 356 352 348 353 354 353 353 351 349 349 350 348 348 348 349 350 351 351 349 355 353 354 351 350 348 346 345 344 349 352 355 355 355 354 354 353 353 351 350 349 349 337
340 342 340 337 346 345 346 349 356 354 357 355 352 354 352 352 350 350 350 349 347 349 351 352 352 355 354 353 352 351 349 347 347 345 345 350 352 357 355 355 354 353 353 352 351 351 350 346 338
335 338 340 338 346 349 346 354 353 346 347 349 351 353 353 353 352 348 349 349 348 349 350 353 353 354 355 353 353 352 350 349 347 347 347 351 353 354 358 357 355 356 354 354 351 353 352 346 347
333 334 339 338 337 340 346 348 341 345 345 344 348 352 351 353 352 350 348 348 347 348 351 352 355 355 357 352 355 351 351 348 347 346 346 348 356 353 356 358 357 355 351 354 354 352 351 353 344
330 330 332 335 334 340 338 345 347 343 347 345 344 348 352 351 353 352 348 347 347 348 350 353 356 357 357 358 351 356 352 350 347 348 348 352 352 355 354 355 357 357 353 353 355 355 354 350 349
329 328 331 332 337 338 336 338 343 342 344 343 345 347 349 353 354 354 352 349 348 348 349 351 357 360 359 360 359 351 358 350 351 347 348 351 355 356 357 354 356 357 354 354 355 355 356 352 352
329 328 331 336 336 336 334 339 339 340 340 342 345 346 346 349 354 354 354 350 348 347 349 351 356 360 361 359 362 360 355 360 349 350 353 350 355 353 354 355 353 357 357 354 357 357 357 357 353
328 329 328 328 330 333 333 335 335 337 338 339 337 345 347 347 351 354 355 351 348 348 349 349 355 359 361 362 362 364 359 356 360 352 350 356 352 352 355 354 354 358 357 359 353 360 358 357 355
329 329 328 329 332 335 332 337 338 338 340 339 337 338 344 347 350 353 354 353 349 348 349 349 353 358 361 363 363 363 365 359 355 358 352 350 356 357 357 358 357 358 358 357 359 358 357 357 358
328 330 328 327 329 331 333 334 336 341 339 339 338 339 340 346 349 351 353 353 351 349 349 350 351 359 362 364 365 364 364 365 360 357 358 353 353 352 355 360 361 357 358 356 360 360 359 357 358
329 329 330 334 335 331 332 332 334 336 339 338 338 340 339 342 347 350 353 354 353 352 350 351 353 355 362 364 365 365 365 365 365 361 359 359 359 361 354 356 360 359 357 358 361 361 358 361 361

GFSSGP_925_thetae_057.txt.gz
Theta_e
342 343 350 352 365 366 370 367 362 365 363 356 354 357 360 357 360 360 345 342 345 350 352 352 352 351 348 341 342 342 349 348 348 347 351 352 351 353 352 352 352 352 353 352 349 349 349 347 348
346 349 353 359 372 364 365 363 364 363 357 354 354 355 357 357 349 346 344 343 348 349 353 352 350 344 341 339 337 345 350 347 348 348 349 350 351 351 352 353 352 352 351 351 351 350 349 346 342
349 352 358 364 368 368 369 361 360 358 355 357 357 353 355 354 347 345 343 344 348 350 350 350 351 348 342 338 343 346 350 348 346 348 350 350 352 352 351 350 351 352 352 351 351 350 350 347 342
351 354 357 368 368 365 363 358 357 358 356 355 355 358 351 346 346 345 342 345 348 351 349 351 352 348 343 348 345 349 347 348 349 351 350 350 353 353 351 352 351 351 351 350 350 349 347 345 342
354 356 365 365 364 362 359 356 355 358 358 357 356 357 353 345 345 341 345 347 352 351 348 352 350 348 349 346 347 349 347 347 348 350 352 352 353 353 352 352 352 352 352 351 350 349 347 344 342
359 356 363 364 362 358 356 354 355 358 358 357 356 356 354 343 343 346 348 350 351 351 349 352 350 349 346 350 349 349 347 347 349 351 351 352 352 352 352 352 351 351 351 350 348 346 345 344 342
361 363 362 360 362 361 357 352 357 359 358 357 354 360 350 345 347 347 348 349 351 351 351 351 350 349 350 350 353 347 350 346 348 348 344 345 346 347 348 350 349 347 347 346 345 345 342 340 337
357 360 359 366 365 363 352 350 355 358 358 352 352 360 354 349 347 348 349 350 350 352 351 350 347 350 351 351 352 350 349 348 349 345 345 343 346 348 342 342 345 346 347 347 345 345 344 344 339
354 363 359 362 361 356 350 354 352 353 356 354 353 354 348 348 348 349 350 349 350 349 348 348 352 347 345 346 350 347 346 347 345 343 343 344 349 351 349 345 343 343 345 345 345 345 343 342 342
358 352 361 356 355 355 351 351 353 356 358 355 354 350 348 349 350 350 350 349 347 348 350 347 352 348 348 346 347 341 340 342 342 347 348 350 351 352 353 343 342 344 345 346 344 343 346 344 344
351 355 356 351 351 351 347 347 347 356 360 355 354 351 349 350 349 349 349 347 345 347 349 346 351 348 349 348 337 340 343 348 350 341 349 349 352 352 352 345 344 346 347 337 346 343 345 347 348
351 352 351 348 348 347 347 347 348 353 358 352 350 349 350 350 348 349 347 346 345 346 347 345 348 348 347 345 343 344 346 350 351 350 351 348 350 350 349 351 351 350 348 346 348 347 348 346 347
345 352 348 347 347 348 349 347 346 359 356 352 350 350 350 350 349 348 347 346 344 345 345 345 346 347 346 346 345 346 346 348 351 351 348 351 349 348 351 350 349 349 349 343 349 350 348 345 346
340 349 349 348 348 350 352 350 347 357 354 353 352 351 350 349 349 348 348 347 344 343 344 345 344 349 349 346 346 349 347 348 351 351 345 352 349 351 351 353 351 350 348 345 351 351 349 347 346
336 342 351 349 350 351 351 354 354 350 353 354 353 352 350 349 349 348 348 347 349 346 347 347 344 345 346 347 348 348 347 344 350 351 348 346 349 354 352 349 352 351 351 350 350 351 349 346 345
337 339 346 344 348 349 352 362 352 346 350 354 354 353 352 350 349 348 348 348 349 348 350 347 346 343 344 346 348 347 349 346 344 349 349 346 348 354 352 352 351 351 351 351 349 350 343 343 342
338 343 343 345 345 348 351 356 349 347 352 353 353 353 352 351 350 349 348 348 347 348 349 350 348 347 344 343 347 348 349 349 347 345 347 345 344 353 352 350 350 350 350 349 348 348 346 350 348
341 341 341 347 345 347 352 352 347 347 352 354 349 348 352 351 350 349 350 350 347 348 347 347 350 349 348 344 347 348 347 350 347 346 345 348 347 351 351 350 349 349 349 350 350 347 348 347 336
339 341 342 342 345 347 349 352 352 352 351 352 350 349 349 351 349 349 351 350 349 348 348 346 348 350 349 349 349 351 349 350 346 345 346 349 350 352 354 353 353 351 350 352 350 345 347 345 335
336 338 340 338 339 345 353 354 352 349 350 348 349 352 351 349 347 348 347 348 348 350 346 348 347 351 350 350 349 352 353 348 347 344 344 351 353 355 356 355 353 354 353 352 350 351 349 345 337
335 336 338 339 337 343 352 355 353 348 349 349 350 351 350 348 347 348 346 347 347 350 348 346 349 350 351 351 351 349 352 350 348 346 343 348 352 351 354 354 352 353 352 353 350 349 348 346 339
334 334 337 340 341 347 341 356 354 353 353 348 351 352 347 347 346 347 346 347 348 350 350 347 348 348 352 352 353 352 350 351 350 347 344 343 349 352 357 355 352 354 352 353 350 350 346 347 343
330 332 333 336 339 341 344 346 356 351 351 351 351 352 346 347 346 347 347 347 347 349 351 350 347 350 353 353 353 353 351 350 347 349 345 345 348 349 351 357 354 352 355 353 353 351 352 352 344
331 331 331 332 335 340 335 345 344 351 351 350 352 353 351 349 347 346 347 347 347 349 351 352 350 352 352 354 353 350 352 351 349 346 345 346 348 352 352 358 357 355 355 351 353 353 352 349 351
331 330 330 331 335 340 331 337 341 340 341 349 353 353 351 349 348 346 347 346 347 349 351 353 353 352 355 353 351 355 351 350 347 347 348 347 351 356 354 353 358 357 356 353 353 355 353 349 351
330 330 328 330 330 333 328 332 333 334 337 340 348 352 351 350 349 347 345 346 346 347 350 353 354 354 354 357 354 350 355 355 349 348 345 347 353 353 351 354 353 357 356 354 356 354 353 354 345
327 328 325 324 327 329 329 330 330 331 331 334 339 348 350 350 350 349 346 346 346 347 349 352 355 354 355 354 356 355 350 355 358 348 349 349 349 353 353 354 354 354 356 354 352 355 357 356 354
326 325 326 324 326 329 329 331 333 330 331 331 332 341 344 349 351 349 347 345 346 346 348 350 355 356 356 356 357 357 355 350 355 358 349 347 352 351 351 355 356 354 354 355 355 353 359 357 356
328 326 325 322 323 325 330 330 328 331 331 331 332 333 342 345 351 350 348 346 346 345 347 349 352 357 358 359 357 359 360 358 353 357 359 349 345 352 359 358 358 356 353 356 359 357 355 359 358
329 326 325 326 324 324 324 327 332 330 332 331 333 332 335 342 350 350 349 346 346 345 346 348 351 355 357 358 360 358 360 363 361 355 355 358 351 344 350 358 361 356 354 355 356 358 357 356 357

GFSSGP_925_thetae_060.txt.gz
Theta_e
340 343 349 352 361 363 368 366 363 364 360 352 350 353 357 355 357 352 344 343 345 346 349 351 351 349 350 344 345 351 349 351 346 351 351 351 349 351 352 352 352 352 350 349 349 349 348 349 343
343 349 351 358 369 362 366 364 366 361 358 353 355 355 356 357 348 345 342 344 347 349 350 352 351 349 349 341 347 350 351 348 351 351 351 349 352 352 352 352 352 352 352 351 351 347 346 348 346
349 351 356 363 365 367 366 359 361 359 354 356 356 353 353 353 345 342 342 348 350 350 350 350 348 348 345 341 350 349 349 349 350 350 351 350 350 350 350 351 352 352 351 351 349 344 343 344 340
350 353 357 368 368 363 363 360 358 358 356 354 354 356 348 346 343 343 347 349 351 351 350 347 342 346 343 346 351 350 350 350 351 350 350 350 351 352 352 351 351 351 351 351 347 345 344 342 341
352 356 363 362 363 362 359 358 356 359 358 356 354 355 350 344 344 343 345 349 350 349 351 351 347 340 344 347 350 347 350 351 351 351 351 352 351 352 352 352 352 352 351 350 347 345 343 343 340
360 353 364 365 361 358 355 355 357 359 357 354 353 354 349 344 342 343 348 350 349 349 350 349 346 347 347 351 348 349 350 351 351 352 352 350 350 351 352 352 352 352 351 350 348 346 344 343 341
359 362 362 361 362 362 358 354 356 359 357 355 353 355 344 342 342 344 350 351 348 349 350 350 350 350 350 350 352 349 348 350 351 351 348 348 347 349 350 351 352 351 349 346 345 344 342 339 341
355 358 359 358 357 363 354 356 356 357 357 351 349 350 346 340 343 346 351 350 347 350 349 350 349 344 349 351 352 348 347 347 349 346 343 343 345 345 344 345 348 349 346 345 345 344 344 342 340
353 366 362 361 362 359 352 356 355 352 355 354 352 347 341 346 347 348 350 352 350 350 350 349 344 346 349 351 352 347 344 343 344 342 342 346 345 343 343 344 345 345 345 345 345 344 343 342 341
358 363 363 355 355 356 353 355 356 356 357 357 352 343 344 347 346 348 349 351 351 351 349 344 344 346 348 345 346 340 340 343 343 343 346 350 351 351 349 343 344 345 345 346 343 345 344 342 343
352 361 354 353 351 351 351 352 355 358 359 356 352 349 348 346 348 348 348 350 349 348 347 346 345 341 338 337 339 337 339 341 345 347 348 349 351 351 351 343 344 346 344 340 343 343 343 344 345
347 349 350 349 348 349 349 347 358 357 355 352 349 348 348 348 348 349 348 347 348 348 345 347 347 342 338 335 334 337 340 346 346 344 349 349 350 350 350 347 346 348 345 345 345 345 345 346 347
342 345 349 349 347 346 347 350 358 357 352 350 348 349 349 348 348 349 347 346 347 348 346 342 346 346 343 340 336 342 346 350 350 350 350 349 348 349 349 349 347 347 347 347 348 347 347 344 344
335 338 348 346 342 345 352 355 358 354 350 350 350 350 349 348 348 348 347 345 345 347 347 341 346 346 345 344 342 345 345 347 349 351 351 348 346 347 348 349 348 348 348 345 349 349 346 347 346
328 331 339 348 344 351 350 353 362 354 350 351 351 350 349 348 348 347 346 345 344 345 346 345 346 346 346 346 344 346 349 347 347 351 351 350 348 350 350 348 349 350 349 347 349 349 348 347 345
330 330 333 344 346 350 353 357 356 354 353 352 351 351 351 349 348 347 347 345 344 343 344 344 346 346 347 347 346 349 349 347 348 351 348 347 350 351 350 350 351 351 350 350 350 348 346 344 342
328 333 336 338 346 352 354 357 350 355 354 354 353 352 351 350 348 347 347 347 345 343 343 345 345 347 349 349 348 346 348 349 346 346 349 348 351 352 350 349 349 350 349 349 350 347 346 347 346
329 337 337 340 348 353 355 352 348 349 356 355 354 352 351 350 349 347 347 347 346 348 346 345 345 348 348 346 345 344 348 347 349 348 346 346 347 348 349 349 347 349 349 349 349 348 348 344 336
332 335 338 338 347 355 355 351 350 348 350 355 355 354 352 350 348 347 347 347 346 347 348 346 346 345 344 344 346 345 347 348 348 347 347 347 347 347 349 347 349 349 350 350 350 348 345 345 335
330 333 337 338 337 344 353 355 353 347 346 352 354 354 353 351 349 348 347 347 347 346 348 348 347 346 345 345 344 344 345 346 347 347 345 347 348 349 352 350 350 351 350 350 350 349 349 343 336
331 332 334 336 336 347 352 356 352 347 349 350 349 349 350 351 350 349 348 348 347 347 347 346 348 347 347 347 345 343 344 343 348 348 345 346 350 352 354 353 351 353 353 352 351 350 350 347 341
331 331 333 335 337 345 349 361 354 352 351 349 347 347 347 347 349 348 348 349 349 348 347 346 348 348 348 348 347 346 349 352 349 347 344 344 350 353 355 353 353 353 353 352 352 349 348 347 339
332 331 332 333 333 336 343 353 353 351 351 349 346 347 347 347 347 348 347 349 349 348 347 348 348 348 349 348 348 348 349 351 351 347 346 345 345 352 353 354 354 351 353 351 351 350 348 347 345
330 329 328 328 327 333 333 341 344 353 350 346 344 345 347 348 346 346 346 348 348 348 347 346 349 350 349 349 349 349 349 348 349 349 349 346 344 347 352 354 355 353 351 352 351 352 351 351 349
330 326 329 329 331 332 328 334 338 349 347 346 345 344 345 348 345 345 346 345 346 348 348 346 348 351 351 350 351 350 349 349 347 348 347 348 345 346 348 350 354 356 353 354 350 352 353 352 350
328 328 330 333 329 331 328 334 334 338 346 345 345 343 344 348 345 344 345 345 345 347 349 348 347 349 352 351 351 351 351 351 350 348 348 346 344 346 346 350 352 356 356 355 352 352 353 352 351
330 329 327 324 322 324 326 328 327 326 333 335 344 345 345 348 347 345 344 346 346 347 349 349 348 348 351 351 352 352 351 351 349 349 348 346 347 345 348 349 353 353 356 356 354 352 353 353 352
331 325 328 320 332 328 324 327 330 327 327 326 343 346 347 349 348 347 344 346 346 347 348 350 350 349 349 352 351 350 351 352 352 350 348 347 345 346 349 352 351 352 353 355 355 353 354 355 355
332 331 324 324 319 326 325 326 324 326 326 326 334 347 349 350 349 348 345 345 345 346 348 350 350 350 350 350 353 352 351 349 350 355 355 349 347 348 350 351 354 355 355 354 356 355 353 355 357
328 327 324 326 323 319 321 326 325 325 326 326 327 343 349 349 349 348 346 345 345 345 346 349 350 351 350 351 351 353 353 353 350 349 354 356 353 347 347 354 358 353 354 356 354 355 354 354 357

GFSSGP_925_thetae_063.txt.gz
Theta_e
348 348 348 351 359 362 367 367 362 364 362 351 348 351 354 354 354 350 342 343 344 345 348 350 345 351 350 348 349 349 350 348 351 351 351 351 351 351 350 351 351 348 348 350 350 350 346 344 347
346 348 350 356 367 360 366 361 365 361 358 350 352 354 355 355 346 344 342 343 344 346 350 350 344 350 350 351 351 352 351 351 351 350 352 352 352 350 351 352 350 352 350 351 350 349 347 345 346
346 350 357 363 364 367 365 359 361 358 355 355 356 351 352 351 344 342 343 344 345 349 349 350 346 348 350 352 352 351 351 349 346 348 345 344 349 352 352 351 350 351 351 351 350 350 348 345 346
349 351 357 367 368 361 361 361 359 358 356 354 352 354 347 345 342 342 347 347 346 349 350 351 349 350 350 353 351 351 350 349 351 351 350 351 350 349 350 350 351 351 349 346 345 347 347 341 342
350 355 363 361 362 361 359 358 358 359 358 355 352 352 349 343 343 345 349 349 349 350 350 350 349 350 351 351 352 351 351 350 351 347 349 351 353 353 351 351 350 346 344 345 345 344 343 341 341
360 354 362 365 362 357 357 357 357 359 357 350 349 349 347 343 344 345 349 350 348 348 345 346 347 349 351 352 351 351 351 349 348 348 348 351 352 352 352 352 351 350 348 346 344 343 342 341 342
361 359 362 361 361 361 358 355 358 359 356 354 348 351 344 342 343 347 349 349 349 351 349 347 348 351 351 352 352 351 351 348 349 349 350 351 352 352 352 352 352 351 350 349 345 342 340 341 342
357 356 359 359 357 361 355 355 353 357 357 349 344 350 348 342 343 351 350 349 349 350 348 347 351 351 350 351 351 351 348 348 346 347 346 348 349 351 350 348 352 352 351 345 346 345 341 340 341
353 363 360 359 363 359 353 357 355 352 354 353 349 344 343 342 344 351 351 351 351 351 349 350 350 347 348 350 351 346 346 344 345 347 343 344 343 348 347 346 349 348 347 346 345 343 342 341 342
356 361 362 354 355 356 353 358 356 356 356 354 344 341 342 342 348 350 350 349 351 351 350 350 345 344 347 347 349 342 345 344 344 344 346 348 347 346 346 344 347 348 347 346 345 344 341 342 343
355 361 356 353 352 350 352 354 354 357 359 353 345 343 345 345 349 349 350 348 349 349 350 347 341 345 347 343 341 340 341 341 342 344 348 350 350 350 346 343 344 344 345 341 343 343 343 343 344
347 351 356 353 348 352 351 352 358 356 356 350 341 346 347 346 348 349 350 349 349 349 348 343 342 344 342 337 336 336 338 343 345 346 347 349 350 350 350 343 344 347 346 345 344 343 344 345 344
337 340 343 347 346 346 348 349 357 357 353 344 342 347 347 346 347 348 349 349 348 348 347 341 340 338 334 333 335 337 339 343 343 345 348 349 348 349 349 348 348 347 346 346 347 346 346 345 344
329 332 336 340 344 345 352 358 355 355 351 346 344 347 347 347 347 347 347 347 347 346 344 341 344 335 335 333 335 340 343 348 349 347 348 348 347 347 349 349 346 346 346 345 348 346 347 346 345
324 325 327 332 345 353 350 355 360 354 350 350 348 347 347 347 348 348 346 346 347 345 341 340 344 338 338 335 335 339 343 346 347 350 350 348 347 347 348 348 348 349 347 345 346 346 345 343 344
326 324 327 328 346 349 349 356 358 352 352 352 350 349 348 347 347 348 345 345 346 345 344 340 342 343 340 343 342 342 345 347 347 346 351 349 348 349 349 345 349 350 347 347 348 343 346 345 343
320 327 330 332 347 351 353 356 358 352 352 352 351 350 349 348 347 347 346 344 344 345 344 343 341 345 344 344 345 345 350 347 346 347 349 349 350 351 347 349 350 350 349 348 345 347 346 344 347
320 331 332 333 340 351 354 353 358 353 352 352 351 350 350 349 348 347 346 344 344 344 344 344 343 345 346 346 346 346 349 347 348 348 350 349 348 351 348 348 349 348 350 349 348 349 347 346 337
326 331 332 334 337 351 353 352 354 357 354 353 351 351 350 349 347 347 346 345 343 343 343 343 344 344 345 346 347 348 347 349 349 347 350 349 349 349 348 345 348 347 348 348 347 348 346 343 336
319 322 327 331 346 350 352 352 350 357 357 354 353 352 351 349 347 347 346 346 345 344 343 343 344 344 345 348 348 347 345 346 348 348 346 348 347 347 348 346 349 348 350 350 349 349 346 343 335
321 322 326 332 346 349 352 358 351 351 350 353 353 351 350 349 349 348 346 346 346 345 346 344 344 344 344 348 347 346 344 345 347 348 347 345 348 347 349 349 348 349 350 350 350 349 349 345 339
325 326 329 331 334 344 350 354 352 350 351 346 349 353 352 350 348 346 347 346 346 345 346 347 346 344 345 346 346 344 344 345 345 346 347 345 346 348 349 352 352 350 352 351 350 350 348 348 342
328 328 329 330 332 333 347 352 352 349 352 348 348 351 352 351 349 348 346 346 346 346 345 346 346 345 345 345 344 344 345 343 344 343 346 346 344 349 350 352 354 352 352 352 351 351 348 347 342
330 329 329 327 330 335 332 346 338 352 350 348 347 348 348 349 350 348 347 347 346 346 345 345 346 347 346 346 346 346 345 343 344 344 345 346 345 345 350 352 354 353 352 351 350 350 350 345 348
329 325 331 330 330 334 326 331 334 343 346 346 345 346 346 346 346 347 348 347 347 347 346 346 345 347 347 347 347 347 346 345 345 345 347 346 346 345 346 352 352 354 354 351 350 351 351 349 350
328 329 329 332 330 332 325 329 331 334 343 344 344 344 344 344 345 346 346 347 347 348 348 346 346 347 348 347 348 348 347 347 346 346 346 348 347 347 344 345 351 353 353 354 352 353 350 352 351
326 329 326 325 321 322 326 326 327 329 332 342 344 342 342 343 344 345 345 345 347 348 348 346 347 347 348 348 348 349 348 348 348 347 347 345 346 346 346 345 345 348 351 354 354 354 350 352 352
325 323 328 321 333 331 325 325 331 328 326 342 344 343 342 341 343 345 344 345 345 346 347 347 346 347 349 349 349 349 348 348 348 348 347 346 347 347 345 343 346 347 349 352 356 355 354 350 352
324 327 324 325 323 332 329 329 320 326 326 327 336 341 342 342 342 345 343 344 345 345 346 347 346 346 347 349 349 349 349 349 349 349 348 348 346 346 345 345 346 350 351 352 353 355 355 353 353
321 320 327 328 326 318 322 330 323 322 323 323 323 330 336 342 341 344 343 343 344 344 346 347 347 346 346 348 349 349 349 350 349 350 349 348 347 346 346 345 345 348 352 353 353 353 354 355 354

GFSSGP_925_thetae_066.txt.gz
Theta_e
349 349 348 350 361 361 367 367 361 364 357 349 347 350 353 353 354 353 342 343 343 347 347 348 349 350 351 350 349 351 351 350 351 350 350 349 349 348 349 350 349 348 351 350 349 345 345 347 348
348 348 349 356 366 357 365 360 365 361 356 347 352 352 354 354 345 343 342 344 342 347 348 347 349 349 350 350 350 350 351 351 351 350 351 349 351 351 352 352 349 350 350 350 349 347 345 346 346
347 349 357 363 363 363 365 358 360 357 351 352 355 350 351 350 344 342 342 345 344 347 348 345 348 349 350 351 351 351 351 350 348 351 351 351 351 351 351 351 352 350 350 350 349 348 347 347 348
348 350 355 365 368 361 362 360 359 358 356 352 351 353 346 344 342 342 345 345 345 347 349 347 350 351 351 352 351 350 347 349 347 350 349 350 352 351 352 352 351 350 350 350 350 349 341 342 342
348 356 362 358 362 361 358 358 358 359 358 353 350 351 348 342 342 345 347 346 347 348 349 349 348 350 351 352 351 351 351 351 351 348 347 351 351 351 351 351 351 351 347 348 347 348 341 340 342
358 354 360 363 362 358 357 356 358 358 355 349 348 349 347 343 346 348 348 346 347 348 350 348 349 349 349 352 351 351 349 346 348 349 349 351 351 351 351 352 352 352 351 347 344 344 341 341 342
362 357 361 362 362 360 358 355 358 359 355 351 345 350 345 344 346 349 349 348 349 350 350 348 348 350 351 352 352 351 348 347 347 349 351 349 350 351 352 352 352 352 345 347 343 341 340 341 342
357 356 358 358 358 360 356 355 354 357 356 345 343 349 348 343 347 349 350 349 347 344 344 345 346 350 350 350 352 351 349 349 347 346 349 349 350 351 350 348 351 349 350 346 343 341 340 341 343
353 362 359 357 362 358 354 357 353 352 352 351 346 344 342 343 349 350 351 351 349 348 346 344 349 348 350 350 351 351 350 348 348 350 348 348 349 348 348 347 348 347 348 347 342 341 340 340 343
355 359 358 352 354 354 354 358 355 355 355 347 346 343 343 346 349 348 347 347 349 350 346 349 349 347 349 349 352 347 349 347 345 346 344 343 343 344 344 346 347 346 345 344 342 341 341 342 344
354 361 356 354 352 349 355 357 354 356 358 347 346 345 344 346 348 345 346 345 347 349 347 349 348 345 348 347 347 343 343 342 343 346 348 348 347 347 344 343 346 346 344 342 343 343 342 342 343
350 349 355 354 351 349 350 353 357 355 355 346 343 343 344 347 347 346 346 346 347 349 349 348 346 342 346 345 342 339 340 341 343 346 348 347 348 348 346 343 344 346 346 345 342 342 344 343 343
343 340 344 349 348 347 347 354 357 356 349 342 342 343 345 347 348 348 347 347 348 349 348 346 342 342 345 343 338 337 339 343 345 346 347 347 348 348 348 348 345 347 346 346 345 344 345 345 345
328 334 335 336 337 342 347 354 354 354 343 343 344 346 346 347 348 348 348 348 347 347 346 344 339 341 342 337 336 337 339 342 343 345 347 348 347 347 348 348 346 346 346 346 345 345 345 345 345
324 325 323 326 335 348 353 358 359 351 343 346 347 347 347 346 348 348 348 347 346 345 344 342 337 336 335 333 334 337 339 344 346 347 348 347 347 346 348 347 347 348 346 346 345 344 344 344 343
322 323 327 328 327 349 347 353 358 350 345 347 349 348 347 347 347 347 348 347 346 344 343 340 337 338 333 333 334 338 341 344 346 347 349 348 349 347 348 347 347 348 347 346 343 343 342 344 341
316 327 327 329 333 350 351 353 356 351 348 347 348 348 347 348 347 347 346 346 346 344 343 339 339 341 334 334 335 338 342 344 347 348 346 349 349 348 349 347 348 348 346 346 343 346 345 343 345
319 324 329 333 334 350 353 352 356 352 352 350 348 347 347 348 348 347 345 346 346 345 342 339 337 340 336 338 342 344 344 347 348 346 347 348 349 349 350 348 349 348 349 346 347 346 347 344 336
320 329 332 332 330 350 351 351 358 354 352 353 351 350 348 347 346 346 347 345 344 345 344 342 339 337 342 343 344 345 345 348 346 347 347 349 348 348 350 348 348 348 347 347 346 347 346 341 337
318 320 321 326 331 343 345 351 356 355 353 352 352 351 349 347 346 347 346 344 344 343 344 344 341 337 342 345 345 345 345 347 347 345 345 348 349 347 349 348 346 347 348 347 347 347 345 343 335
315 318 320 329 335 347 351 354 353 356 354 352 350 350 349 349 348 346 346 345 343 342 343 343 343 341 342 344 345 346 346 347 347 348 347 348 348 347 346 348 348 348 347 348 348 348 347 345 336
314 317 320 326 330 345 348 354 351 350 358 356 353 350 349 349 347 346 346 346 345 343 343 343 343 343 343 343 344 347 347 346 346 347 347 346 344 346 346 348 350 350 350 349 347 349 349 348 344
317 321 321 325 330 331 339 343 339 348 354 356 355 353 350 349 348 347 346 346 346 345 344 343 343 343 343 343 344 345 347 346 344 344 346 346 345 344 346 348 350 352 351 351 349 350 350 348 345
325 326 325 326 328 335 332 347 344 348 350 350 349 351 352 350 348 347 346 346 346 346 345 345 344 343 343 343 344 345 346 346 344 343 343 345 346 344 345 348 350 352 353 351 351 351 351 348 346
327 326 330 330 331 335 328 332 338 335 345 345 347 345 347 350 349 348 346 346 346 345 345 345 345 345 344 344 344 345 345 345 343 343 342 341 344 345 343 345 349 351 352 353 351 350 350 351 347
325 326 329 334 329 332 324 332 332 330 330 341 342 343 343 348 350 349 348 346 345 345 345 345 345 345 345 345 345 345 344 344 344 344 342 338 338 342 344 344 343 347 351 352 353 351 351 350 350
324 328 325 326 321 323 325 324 325 327 328 338 341 343 345 346 348 349 348 347 346 346 345 345 345 345 345 345 346 346 345 345 345 345 344 343 340 341 343 344 344 343 346 350 353 353 352 352 349
320 321 327 321 335 334 326 324 331 327 329 328 341 343 343 344 345 346 346 347 347 347 346 345 345 345 345 346 346 346 346 346 345 345 345 345 344 343 344 346 346 345 345 346 350 351 354 353 353
320 320 322 324 325 334 331 331 320 326 327 326 333 340 342 342 342 343 344 345 346 347 347 346 345 345 345 346 346 346 347 346 346 346 346 346 345 344 342 344 345 344 344 346 348 350 352 354 354
318 321 318 323 326 319 326 330 324 322 322 323 325 341 341 340 339 341 342 344 344 346 347 347 346 345 346 346 347 347 347 347 347 347 346 346 346 346 344 343 345 345 345 345 349 351 352 352 354

GFSSGP_925_thetae_069.txt.gz
Theta_e
347 349 349 351 363 361 367 367 361 362 357 349 348 350 352 353 355 358 344 345 347 347 349 350 348 350 351 350 350 349 347 347 347 349 349 347 347 346 351 350 348 351 350 349 345 347 347 349 347
349 349 349 356 365 367 367 360 365 360 353 348 352 352 354 356 346 345 346 347 347 347 350 349 348 349 350 348 348 349 347 348 349 350 348 349 347 350 350 348 350 351 351 348 346 345 346 347 348
349 350 357 362 366 367 364 359 360 355 349 351 355 351 352 352 345 345 344 347 347 348 349 351 347 348 348 347 351 351 352 351 349 351 349 350 349 348 350 350 351 349 350 349 349 348 346 348 348
350 351 355 367 366 363 362 360 360 356 351 352 353 355 346 344 344 344 346 347 347 347 348 350 349 352 349 348 351 351 350 346 346 347 350 350 351 351 352 351 351 350 350 349 349 347 347 344 342
350 355 364 362 362 360 357 358 358 358 358 355 351 353 348 343 343 345 346 347 347 346 347 349 350 350 349 351 350 351 351 350 351 351 350 351 351 351 350 349 350 349 345 348 348 346 343 344 344
359 356 363 365 362 358 358 356 358 359 356 353 352 351 348 345 345 347 346 346 347 346 346 347 348 349 348 351 351 351 351 351 351 351 349 351 350 348 348 350 351 350 348 345 347 344 341 343 343
361 360 363 361 361 360 358 355 359 360 356 355 349 353 347 345 347 348 347 347 347 348 347 348 347 351 350 349 351 348 349 350 349 348 349 347 348 348 348 350 351 350 349 346 347 341 341 341 343
359 361 361 359 359 359 357 355 354 357 357 347 345 352 350 346 348 348 348 348 348 349 349 349 348 350 353 352 347 349 348 349 350 348 347 348 348 350 347 347 346 347 344 345 341 341 341 342 343
354 365 363 357 360 358 355 358 354 351 350 349 346 346 344 345 349 348 349 350 351 351 348 346 347 350 352 353 350 350 349 347 350 347 348 348 352 351 350 346 345 345 343 342 341 340 340 342 341
358 362 361 353 354 354 355 357 357 357 354 351 349 344 344 347 348 348 348 349 348 348 346 345 348 349 351 350 352 351 350 350 350 350 349 348 345 346 348 346 344 345 344 343 341 342 341 345 347
354 361 357 355 354 351 356 358 355 358 360 353 352 348 346 347 347 346 346 346 345 344 344 345 350 350 350 349 350 350 350 349 349 345 345 346 347 347 349 348 345 342 343 345 346 345 347 347 348
355 354 356 354 352 352 355 356 358 357 355 352 348 346 346 347 347 345 345 346 346 347 345 348 350 350 351 349 349 348 348 349 350 349 348 348 350 346 344 344 347 346 347 343 343 344 343 348 347
345 347 345 349 348 346 347 355 355 357 353 348 346 346 347 347 346 345 345 345 347 347 346 348 349 349 350 349 349 347 348 348 350 349 347 347 348 348 350 346 347 348 346 345 344 345 348 349 349
332 338 341 340 337 342 344 350 356 354 348 348 347 347 346 346 345 345 345 344 345 347 347 348 348 347 349 347 341 345 346 348 348 349 348 348 348 348 348 347 350 349 349 345 344 344 345 349 348
331 332 331 331 333 338 347 356 357 351 349 349 348 347 346 347 345 345 345 345 346 347 347 347 347 345 345 343 339 342 344 346 347 349 346 347 346 346 347 346 346 350 346 345 343 344 343 346 345
322 326 336 336 336 336 351 357 360 350 350 351 349 348 347 347 347 347 346 345 347 346 347 347 343 344 344 342 336 340 342 345 347 347 349 349 349 347 347 347 346 347 346 344 344 342 348 347 346
324 321 331 337 333 343 355 356 359 350 351 352 350 349 348 348 347 347 347 346 346 346 346 346 344 343 341 335 337 337 340 343 345 345 346 347 349 349 348 347 347 345 346 346 346 347 346 348 349
322 322 330 338 338 343 354 355 359 352 352 354 352 350 349 349 348 347 347 347 346 346 346 345 344 344 339 339 338 342 343 344 344 348 347 346 348 349 350 348 348 347 345 348 348 345 347 345 339
324 326 327 334 338 340 345 353 359 357 352 353 353 351 350 349 346 346 347 347 347 346 346 345 344 345 345 343 344 346 347 348 350 346 346 346 347 348 349 349 349 349 350 352 348 348 348 342 337
321 325 329 331 331 339 342 344 353 358 357 354 351 351 350 349 349 348 348 347 347 347 346 345 344 342 345 344 345 347 348 348 351 346 347 345 348 348 349 349 349 347 349 345 345 348 349 347 337
320 322 326 329 331 336 345 347 354 357 357 355 353 350 349 350 350 349 348 348 347 347 347 346 343 341 339 344 346 346 346 346 349 349 346 344 346 348 348 348 347 347 349 347 347 345 349 347 339
320 320 322 325 327 340 346 352 356 357 360 357 356 354 352 350 349 348 348 348 347 347 347 347 345 343 340 341 346 348 347 347 348 350 349 345 345 346 347 347 348 349 349 348 347 349 350 348 347
318 318 318 321 326 330 333 353 348 354 360 359 356 355 353 351 350 349 348 347 347 347 347 347 346 344 343 343 344 348 349 349 349 349 348 347 345 344 345 346 348 349 351 350 349 347 348 351 349
319 323 320 320 322 329 332 337 345 348 352 353 355 355 353 351 350 349 347 348 347 347 346 346 346 344 344 344 344 345 347 349 348 348 348 349 349 348 344 345 347 349 349 352 350 349 349 351 348
322 323 330 327 326 328 332 334 338 339 345 344 350 355 354 352 351 351 350 348 348 348 347 346 346 346 344 344 346 345 345 347 348 348 348 347 347 348 348 344 345 349 349 350 352 351 350 350 352
326 328 326 330 327 325 331 337 338 336 336 342 345 348 351 353 352 352 351 349 349 349 349 348 348 347 345 345 345 344 344 347 347 347 347 347 346 346 347 344 343 344 346 350 352 354 354 352 353
326 330 327 328 327 328 329 333 333 332 334 335 337 343 347 349 353 353 351 350 349 349 349 348 349 348 347 346 345 345 344 345 347 346 345 347 346 345 340 340 343 343 343 345 351 354 354 353 352
324 326 331 330 329 333 330 332 334 337 335 334 337 340 342 346 348 351 351 350 350 349 349 348 348 349 348 347 347 347 347 346 346 347 346 346 345 344 345 339 341 344 344 344 347 353 355 354 355
324 325 326 329 330 331 333 331 330 333 336 336 335 339 343 346 347 348 352 351 350 349 349 349 348 348 349 348 348 348 348 348 348 348 347 346 344 344 344 342 342 345 346 346 347 348 353 356 356
317 322 325 329 334 332 331 331 330 331 331 331 332 334 339 344 346 347 350 351 350 350 349 349 348 348 348 348 348 348 348 348 349 348 348 347 346 344 345 345 342 342 344 346 349 352 353 356 356

GFSSGP_925_thetae_072.txt.gz
Theta_e
348 348 351 354 367 363 369 367 362 362 356 351 348 350 353 354 357 365 349 349 348 348 349 349 348 351 350 347 347 346 347 347 344 344 345 346 349 349 349 346 349 350 350 346 347 348 349 348 348
349 351 351 356 371 372 366 363 365 360 353 350 351 352 352 357 349 350 349 349 349 350 349 348 348 351 351 351 348 348 347 350 350 351 352 351 348 352 350 349 351 350 349 347 346 347 348 350 348
351 351 358 365 368 370 365 363 362 358 351 352 356 353 354 356 349 348 349 348 350 349 348 348 349 349 352 350 351 348 347 351 349 347 346 346 349 351 349 351 349 351 350 350 348 347 348 349 349
352 353 358 369 368 363 361 362 357 355 352 351 354 358 351 348 348 348 349 348 350 348 347 347 350 352 352 352 350 352 352 350 351 349 347 347 350 350 352 352 351 351 349 349 349 348 347 343 342
352 357 367 367 364 361 358 359 359 356 356 356 354 357 353 347 347 348 349 348 348 346 347 347 350 351 349 351 351 350 349 350 350 350 348 350 352 351 351 350 351 345 349 349 348 348 348 347 343
359 359 367 367 362 360 360 359 361 360 358 355 356 356 352 347 347 348 348 347 343 345 344 347 349 348 351 351 352 350 352 350 352 351 352 351 351 347 348 351 350 349 348 349 348 346 343 343 342
362 364 365 364 363 361 360 358 360 361 359 357 354 359 350 347 347 347 347 344 342 343 344 346 349 350 350 351 352 350 351 352 348 349 351 348 348 348 350 352 351 350 349 348 345 341 341 343 342
358 363 362 360 361 364 358 357 357 360 360 353 351 358 355 348 347 346 345 343 342 343 345 345 349 351 348 348 352 352 350 350 352 352 351 351 351 345 345 344 347 350 350 348 340 340 342 342 341
353 367 363 360 360 361 356 358 354 355 356 353 351 350 349 348 348 346 344 343 344 344 344 345 347 352 349 348 351 350 351 350 349 348 347 350 350 350 350 344 345 349 349 348 341 340 342 342 339
354 363 361 355 356 357 357 359 359 358 356 355 352 348 348 349 348 347 345 344 344 344 344 343 345 349 348 348 349 349 348 349 350 351 352 350 351 350 348 346 344 345 347 344 341 340 342 347 346
349 358 356 355 354 352 357 359 357 358 360 356 354 351 350 349 349 347 346 345 344 344 343 343 346 348 347 349 348 349 348 349 351 352 351 350 350 350 349 349 347 348 347 347 347 346 348 348 347
346 347 356 355 353 352 357 357 358 358 358 354 351 349 350 351 349 347 347 346 345 344 342 343 347 348 348 348 347 347 347 348 348 350 353 352 350 352 350 349 349 351 350 348 349 348 350 349 349
341 345 348 351 353 351 351 355 356 357 355 352 350 349 350 350 347 346 345 345 343 342 342 345 348 349 349 350 347 346 348 348 348 350 351 351 353 352 351 351 352 351 350 350 350 350 349 349 349
329 335 341 345 348 348 351 353 355 356 354 353 352 350 349 349 347 345 345 345 343 343 342 346 347 349 349 349 350 349 350 351 350 351 351 354 354 351 351 351 352 351 350 349 350 349 350 348 348
327 330 332 335 345 345 347 352 357 356 354 355 353 351 349 349 347 346 345 345 344 344 343 345 347 347 350 349 350 348 350 350 351 352 354 353 354 350 351 351 352 351 351 352 350 348 350 345 346
323 326 332 334 343 344 350 357 357 355 356 357 354 352 350 349 347 346 345 344 343 343 344 345 344 344 348 348 347 348 349 349 350 350 352 355 354 350 351 350 351 350 351 349 349 348 347 344 345
322 323 327 343 344 347 352 356 361 355 356 357 355 353 351 350 348 346 345 344 343 344 345 345 344 342 346 348 346 347 348 349 350 351 351 354 355 355 353 351 349 350 350 347 345 346 347 344 343
322 322 325 340 345 349 354 357 360 357 356 357 356 354 352 351 350 347 346 345 343 345 345 345 344 342 346 345 346 346 347 349 350 350 351 354 354 355 353 350 351 350 347 347 348 346 347 344 341
323 323 324 331 343 348 350 355 360 357 357 357 357 355 352 352 349 348 347 346 343 344 345 345 344 344 345 344 344 346 348 348 350 352 353 355 355 355 355 352 351 350 349 350 347 350 349 343 344
322 325 326 330 339 345 348 351 353 359 357 357 357 356 352 352 351 349 348 347 344 344 345 345 344 345 346 343 343 345 347 349 350 351 353 354 355 356 354 354 352 350 349 350 349 350 347 344 343
322 323 325 328 334 341 346 350 348 351 356 354 355 355 353 352 352 351 349 348 347 345 346 346 345 345 346 342 344 349 350 351 352 352 351 352 354 355 355 352 353 352 350 350 351 350 351 344 344
322 322 322 326 332 342 343 351 350 348 357 356 356 356 354 352 351 351 349 349 348 346 346 347 347 346 345 346 345 349 348 347 346 348 349 350 353 354 354 354 352 353 351 350 350 350 351 351 342
322 321 322 322 327 334 344 350 346 349 355 357 356 355 354 353 351 350 351 349 349 348 347 347 348 347 343 346 345 349 349 344 346 347 350 353 354 354 353 355 355 355 353 352 352 350 352 350 348
321 321 321 322 322 329 335 342 346 352 354 356 355 355 354 353 352 351 349 349 350 349 347 347 348 349 347 345 346 346 347 346 348 349 348 349 349 351 353 354 355 353 352 354 354 354 352 354 351
323 322 327 324 322 322 327 334 340 342 349 350 353 355 354 354 354 353 352 350 350 350 349 348 349 352 350 349 346 346 348 351 352 352 350 347 347 347 348 355 355 354 354 354 354 355 355 352 353
325 326 325 330 324 322 323 329 334 337 339 343 344 347 351 353 353 354 353 351 350 350 349 349 351 353 351 351 350 349 349 349 351 351 349 349 347 346 347 352 353 354 353 355 356 355 353 355 353
328 328 327 326 329 330 325 324 331 334 337 340 340 343 347 351 352 353 353 352 351 350 351 351 352 354 353 350 352 352 351 350 348 349 351 350 350 348 349 350 351 351 352 354 356 355 356 356 357
327 328 330 330 332 334 330 328 327 333 338 339 339 339 342 344 349 351 352 352 351 351 351 351 352 354 353 351 352 352 352 352 350 350 352 352 350 351 350 350 349 349 352 353 355 353 355 358 356
326 328 329 330 331 334 333 330 329 331 334 336 337 338 338 339 342 348 351 351 352 352 352 352 352 353 353 352 352 352 351 352 352 351 352 354 354 353 354 351 351 348 351 353 355 355 353 355 358
322 327 328 332 335 333 333 330 331 330 332 336 336 336 337 338 342 345 350 352 352 352 352 352 352 352 353 353 354 353 353 352 352 353 352 353 354 355 355 354 353 351 350 353 355 355 352 355 357

GFSSGP_925_thetae_075.txt.gz
Theta_e
346 347 352 354 368 370 373 369 363 358 357 352 350 351 356 355 361 369 350 349 349 349 348 348 349 352 346 344 347 347 345 349 350 351 350 352 351 351 347 347 353 352 347 347 349 349 349 349 349
350 351 354 359 374 375 371 365 364 357 354 352 351 352 355 359 353 352 350 349 349 349 349 349 348 350 351 349 347 348 352 352 348 348 350 351 352 352 348 352 352 350 348 347 347 350 351 349 352
352 352 360 368 371 373 369 362 361 355 352 355 356 351 356 356 351 351 349 349 349 349 349 351 348 348 351 349 350 352 353 352 350 348 347 349 353 348 352 351 351 351 351 347 347 348 350 350 350
353 354 359 371 368 362 364 362 358 355 353 354 354 359 353 351 350 350 350 350 348 348 348 351 348 350 352 352 348 347 352 349 347 351 351 352 352 351 352 351 352 350 350 349 349 349 344 347 346
352 359 368 371 367 360 361 358 357 357 355 354 355 360 356 349 349 349 350 350 349 346 347 349 351 351 353 352 352 352 351 349 348 352 352 353 353 352 353 351 349 350 350 349 349 344 345 347 347
360 360 370 371 365 360 360 359 356 356 357 355 358 358 356 349 349 348 350 350 345 345 345 349 351 352 352 351 351 350 352 351 353 351 350 350 352 351 352 351 349 348 350 349 349 346 346 348 342
362 366 368 363 363 363 361 359 358 360 358 357 355 361 355 349 349 348 349 345 345 342 345 348 350 352 352 352 350 353 353 351 350 353 351 352 352 353 353 352 351 350 349 349 345 343 343 343 341
357 362 367 360 363 367 356 360 357 356 359 354 355 362 358 350 349 348 347 343 342 343 346 348 348 348 348 352 352 352 352 352 353 352 349 347 345 344 344 343 350 350 350 349 345 342 343 341 341
348 360 367 361 360 364 357 359 357 357 357 355 354 355 352 349 349 348 344 342 342 343 345 347 348 347 347 350 352 351 352 350 349 346 346 349 349 351 352 345 350 350 349 348 341 342 341 340 338
351 354 364 357 359 363 357 356 357 357 357 357 354 352 349 348 348 347 344 342 341 343 344 345 348 348 347 349 353 351 351 351 351 349 354 351 352 350 348 346 348 349 345 340 339 340 344 346 346
348 353 363 362 355 357 358 358 357 355 356 356 356 355 350 349 348 346 343 342 342 343 343 343 346 345 349 347 350 346 351 350 351 351 353 348 348 348 348 349 349 349 349 347 346 346 348 349 348
346 346 348 356 353 352 360 357 355 359 360 354 353 352 351 350 349 346 343 343 342 343 343 343 347 347 350 346 347 347 347 348 348 350 350 350 351 350 349 348 350 350 349 350 348 348 348 347 348
339 344 344 355 355 354 355 358 357 357 354 353 352 352 352 350 349 346 344 343 343 344 343 345 346 348 350 349 347 346 346 346 349 350 351 349 351 352 351 352 350 351 348 349 349 347 348 346 345
334 338 342 348 352 353 353 355 353 356 354 354 353 354 352 351 349 347 345 344 343 343 343 346 347 349 350 351 349 348 346 350 346 348 351 355 353 353 352 352 351 348 349 349 349 349 345 345 347
331 332 334 340 346 349 351 356 356 356 355 356 354 353 352 351 349 348 346 345 343 342 342 346 347 348 350 352 349 349 350 346 350 351 354 353 353 355 353 351 352 350 351 352 350 350 349 346 342
327 329 333 334 337 343 349 357 354 357 356 357 356 353 353 351 349 348 346 345 343 341 342 346 345 347 349 350 350 349 348 348 350 351 353 354 354 355 354 352 352 351 351 349 348 348 346 346 341
324 327 330 334 335 342 349 355 363 355 356 358 357 353 353 351 349 347 346 346 343 341 343 345 345 345 348 350 349 350 351 350 349 350 352 354 355 353 355 353 353 353 350 347 346 348 345 346 343
324 324 328 332 338 344 349 355 363 360 356 358 357 355 354 353 351 348 346 346 343 342 344 345 345 343 347 350 349 350 350 349 350 349 353 353 354 355 356 353 354 351 347 346 347 348 344 341 343
325 325 325 330 340 345 348 352 365 357 356 358 358 357 354 354 351 348 347 346 344 343 344 345 346 345 347 349 347 348 347 348 349 348 352 353 354 354 354 352 354 352 349 349 349 348 345 340 340
325 325 326 327 330 344 348 350 357 356 357 357 357 358 354 354 352 350 348 347 345 343 345 345 346 347 347 346 345 346 347 347 348 348 352 353 353 356 353 354 351 351 351 352 350 352 346 341 340
325 325 326 327 329 336 345 349 357 363 360 356 356 356 354 353 353 352 350 348 346 344 346 347 347 348 347 344 345 346 347 349 349 351 351 353 353 354 356 356 352 353 353 352 352 351 350 348 340
325 324 325 326 328 338 341 349 349 364 365 356 355 357 355 350 353 352 352 350 348 345 346 347 347 348 348 346 343 347 348 347 347 349 347 352 352 353 355 354 355 355 350 353 353 351 354 350 341
325 325 324 324 326 330 337 342 342 349 355 356 355 355 355 352 351 353 352 350 349 346 345 347 348 349 347 347 344 347 348 346 346 346 351 351 352 353 352 354 354 356 354 354 354 355 355 347 349
326 325 325 325 324 326 332 338 342 346 349 354 354 354 354 354 352 352 350 350 350 349 346 347 350 351 349 349 346 349 347 347 344 346 350 350 351 353 353 353 355 355 355 355 355 355 355 355 352
327 327 328 326 326 325 325 331 344 341 347 349 353 354 354 353 353 352 352 351 351 350 349 347 351 354 351 350 348 351 352 349 349 350 347 347 346 347 351 354 355 355 354 356 356 357 355 355 352
328 327 328 330 327 325 324 327 334 338 344 346 350 352 353 354 353 353 353 352 351 351 352 351 352 355 354 351 349 348 350 347 346 352 348 347 346 346 352 356 354 354 356 354 355 356 354 353 355
328 328 327 328 329 328 326 325 327 331 336 345 346 351 353 354 354 354 353 352 351 352 354 354 353 355 356 352 351 351 350 347 347 350 351 352 348 346 348 349 354 354 353 354 355 354 355 355 356
327 329 329 329 333 332 331 329 326 329 333 337 341 346 348 352 352 352 354 353 352 351 352 354 354 357 357 353 354 353 352 351 351 352 355 352 350 350 351 352 351 353 352 353 354 353 355 358 355
327 328 330 330 330 333 333 333 331 329 332 336 337 341 344 345 349 350 351 352 353 352 351 353 355 357 358 356 354 353 354 352 351 353 354 353 354 353 353 353 353 351 351 354 355 354 352 356 356
323 326 327 333 335 332 333 333 332 330 330 334 337 339 340 341 344 346 349 351 352 353 353 353 353 353 356 356 355 355 355 354 355 353 352 354 355 356 356 356 354 353 350 352 355 356 351 354 354

GFSSGP_925_thetae_078.txt.gz
Theta_e
343 347 351 353 370 370 373 369 362 359 356 352 351 355 358 359 360 367 349 350 350 350 350 350 348 347 346 344 343 351 351 352 352 352 352 352 353 351 347 352 352 347 349 349 349 350 349 350 351
348 349 353 361 372 375 372 364 361 356 352 352 353 354 357 360 352 351 351 350 349 349 349 351 348 348 346 349 351 352 353 352 351 351 352 353 352 346 351 352 350 348 347 348 351 350 350 351 350
352 353 359 367 372 373 372 361 357 355 354 352 358 355 355 356 352 350 349 349 349 349 351 349 346 348 352 353 353 352 353 352 350 350 351 353 349 352 351 352 351 352 347 347 350 350 350 350 347
354 354 360 371 371 368 365 362 355 356 356 354 355 359 352 351 350 350 349 349 348 350 352 344 351 348 353 352 353 352 351 352 352 352 352 352 351 353 352 352 351 351 350 349 349 346 348 347 343
352 360 369 373 368 365 360 358 354 355 356 357 356 359 355 350 350 350 350 349 348 349 350 352 349 349 351 353 353 353 353 353 352 351 354 353 353 353 352 351 351 350 350 349 344 345 348 344 340
360 362 373 373 367 359 357 356 356 355 356 357 357 356 354 350 350 350 349 349 348 347 347 351 350 352 352 351 350 351 353 351 352 353 353 352 352 352 351 350 350 350 350 350 348 349 349 343 337
356 366 370 368 366 363 362 356 357 358 357 359 355 360 353 350 351 349 348 348 345 344 349 352 353 353 352 352 353 353 353 352 353 349 348 348 349 352 352 352 350 350 349 349 348 345 344 339 335
351 358 367 367 366 369 361 358 358 358 358 353 355 360 357 350 350 349 349 344 342 347 349 350 353 350 353 353 352 349 348 351 350 346 350 345 349 349 349 345 351 350 349 349 347 345 341 338 337
347 355 365 368 367 367 360 361 358 352 357 357 355 355 351 348 349 350 350 343 345 345 348 347 349 349 352 352 352 350 350 351 348 347 345 346 351 352 353 347 349 348 348 346 346 344 340 341 340
349 354 365 361 360 358 357 358 348 359 361 357 356 353 350 349 348 349 344 343 343 346 347 346 345 348 349 351 349 352 351 351 351 352 349 344 349 351 348 342 343 340 338 341 346 343 339 342 342
348 351 352 354 354 355 357 355 359 361 363 356 359 354 352 350 349 348 342 343 344 344 346 347 349 347 349 348 352 353 352 353 352 351 350 350 352 349 349 345 346 342 342 343 344 344 340 346 345
346 346 351 352 352 358 361 358 361 357 359 355 354 352 351 350 349 346 342 341 344 344 344 348 346 349 349 349 353 349 350 353 347 351 350 350 350 344 341 350 351 351 349 348 346 346 347 345 346
341 343 343 349 351 357 352 355 359 351 354 353 353 351 351 350 348 345 343 342 344 345 344 348 347 348 347 348 349 349 349 348 350 346 352 342 351 352 351 352 346 348 350 348 342 349 350 348 347
337 338 339 346 354 355 357 357 359 360 354 356 354 352 351 349 348 345 344 343 344 344 345 348 348 350 349 350 349 347 345 350 349 349 352 352 352 353 351 352 350 348 342 348 348 343 345 346 346
331 334 334 340 344 351 352 355 359 358 355 356 355 352 351 350 347 346 345 344 344 344 345 347 347 349 347 353 351 348 345 350 351 354 354 350 349 350 354 353 352 350 349 347 348 347 346 341 342
328 329 334 334 337 345 350 358 356 354 357 356 355 353 352 350 349 347 346 345 344 344 345 347 346 349 348 352 349 350 348 351 348 349 354 353 350 355 354 353 352 352 347 350 350 346 347 340 343
327 327 330 333 336 338 345 355 365 356 356 357 355 354 353 351 350 349 347 346 344 344 345 347 347 348 348 351 348 350 349 351 352 351 348 353 354 354 354 353 351 351 351 347 350 341 343 347 345
327 326 326 330 334 336 338 357 357 352 350 356 356 354 354 352 351 350 347 346 344 344 345 348 348 348 349 350 349 351 350 350 351 353 353 353 356 354 353 355 348 352 349 344 349 345 342 342 342
327 326 325 327 331 335 338 355 353 347 345 352 356 354 354 353 351 349 348 347 344 343 346 349 346 349 349 350 351 351 349 350 350 350 354 354 353 355 353 354 353 354 346 349 351 349 347 348 341
328 326 326 327 328 332 343 358 350 348 344 348 353 355 353 354 351 351 349 348 346 344 347 347 347 348 347 352 350 350 351 348 349 351 352 350 354 355 353 352 353 351 352 352 349 346 346 348 340
327 326 326 327 328 329 338 362 352 348 350 353 356 355 353 355 353 353 350 349 347 346 349 347 350 351 348 350 347 348 347 349 347 353 352 354 352 355 355 355 352 351 353 351 352 351 352 349 341
326 326 325 326 327 328 330 335 365 360 362 358 357 354 353 352 354 352 350 350 348 347 349 349 350 352 346 347 347 348 350 351 348 348 354 352 354 354 353 355 355 355 351 353 352 352 350 348 351
326 326 326 325 326 327 328 337 339 364 361 350 352 354 352 349 354 353 352 350 349 348 349 351 349 353 348 346 348 347 350 348 352 349 349 354 352 353 354 352 355 355 354 353 353 355 353 348 350
326 326 327 326 325 326 327 330 338 363 352 343 348 355 353 350 350 353 352 350 350 349 348 351 351 352 350 343 349 348 348 350 349 348 353 355 351 353 354 355 354 355 353 353 356 354 351 354 352
328 327 328 328 326 325 325 327 335 344 357 350 348 355 355 352 351 353 353 353 352 350 348 350 352 352 351 350 347 353 346 347 351 347 354 350 355 353 351 354 355 353 353 354 356 353 355 354 354
328 328 330 331 328 326 326 328 328 332 335 355 357 353 355 356 351 353 355 353 353 352 349 349 354 353 352 353 346 348 352 346 349 353 347 350 349 350 352 350 355 354 354 353 355 354 354 355 351
328 330 328 329 329 328 327 327 327 329 334 345 350 352 354 349 355 354 355 354 354 354 353 350 354 355 354 352 352 347 354 354 349 351 351 347 347 349 352 350 355 353 355 355 354 353 353 355 354
327 328 330 330 333 335 330 333 330 330 332 344 348 349 351 349 351 355 354 354 354 354 355 353 354 356 356 353 353 351 348 352 349 344 351 352 353 347 353 356 354 354 356 354 357 354 354 355 354
328 329 328 329 329 332 332 331 333 333 332 333 349 350 351 352 353 354 355 354 354 355 354 356 354 357 358 357 353 352 351 350 346 351 347 352 350 350 352 352 352 354 353 355 354 354 356 355 356
326 327 328 332 335 332 333 333 336 334 330 331 334 347 347 347 351 349 353 355 355 355 355 357 356 358 359 358 356 353 353 351 350 345 356 355 357 355 355 353 356 353 353 353 354 356 353 355 356

GFSSGP_925_thetae_081.txt.gz
Theta_e
341 337 348 352 368 367 372 366 362 357 356 349 350 357 361 359 359 360 347 345 349 350 345 349 349 346 344 345 349 349 349 348 347 349 351 352 351 351 352 350 347 350 349 348 352 349 351 350 351
342 347 351 357 370 370 366 363 364 356 353 353 355 357 357 359 351 348 349 348 351 348 347 347 346 344 343 341 346 349 350 350 351 350 352 351 350 351 351 350 346 348 350 348 349 350 351 350 347
348 351 356 364 369 371 370 361 356 354 354 355 357 353 355 355 350 350 349 349 349 349 347 347 344 345 347 348 351 349 349 351 350 349 351 349 352 352 352 352 350 347 349 350 350 350 351 342 344
352 354 356 367 373 360 366 358 358 357 356 354 354 358 352 350 350 349 349 348 349 351 348 344 349 351 352 352 352 351 351 352 352 352 352 351 353 351 353 351 350 349 349 349 349 348 340 336 338
354 356 366 370 370 364 362 356 355 358 358 356 356 359 355 350 349 349 348 350 351 349 340 349 350 352 352 351 352 350 352 352 350 352 352 353 352 351 351 351 350 350 349 348 349 346 340 336 336
358 358 368 370 370 363 360 356 354 358 359 355 357 356 354 349 349 349 349 351 351 342 352 351 349 348 350 353 349 351 352 352 349 352 352 352 353 352 350 350 351 350 349 348 348 340 337 334 340
357 362 368 364 367 366 359 355 354 359 357 355 352 358 353 349 349 348 348 349 347 346 350 348 351 352 346 346 348 351 352 351 350 351 350 346 350 351 351 351 350 350 350 349 344 338 336 333 341
354 357 363 358 368 362 359 356 357 359 359 351 351 358 356 349 349 347 348 347 348 348 348 351 349 349 348 351 353 352 349 351 346 345 346 345 348 352 347 349 350 350 349 347 342 339 339 338 338
346 353 361 364 363 354 352 361 359 356 359 355 353 352 350 350 348 348 344 347 349 349 351 349 345 349 348 349 351 348 349 347 348 348 345 347 349 350 351 345 350 349 349 343 341 339 339 339 340
350 352 357 359 359 357 359 361 357 359 360 360 354 351 351 351 349 345 344 347 349 350 350 348 348 351 347 347 345 345 344 345 346 344 340 345 349 351 346 343 346 349 344 344 342 339 339 336 342
345 350 356 354 353 352 354 355 354 359 363 360 355 352 350 349 349 347 346 345 347 348 348 348 349 350 352 343 343 345 348 350 349 349 346 349 350 348 345 342 341 343 345 344 342 337 341 340 344
345 345 349 351 350 356 357 357 361 360 360 353 351 349 348 348 349 347 344 344 346 348 347 347 348 349 348 346 349 351 352 351 350 352 351 347 348 335 345 347 347 345 346 344 335 342 343 345 346
342 341 345 350 353 357 355 360 356 352 352 352 350 349 349 348 348 343 343 343 343 347 346 347 347 348 347 350 352 352 351 348 348 349 348 344 348 348 347 347 345 347 344 341 344 346 347 345 347
337 339 339 351 353 356 359 360 355 354 352 354 352 351 349 347 348 341 343 343 343 348 349 349 348 348 348 353 352 350 351 352 348 347 348 348 349 350 347 342 346 346 341 336 344 346 347 346 346
328 329 329 339 346 359 359 359 355 351 354 355 353 351 348 347 348 341 343 343 342 349 349 348 347 347 351 349 351 350 351 351 349 350 348 348 349 352 350 349 348 346 343 345 343 344 346 346 343
328 324 327 329 334 345 359 366 361 356 356 358 353 352 349 347 346 343 343 343 342 349 348 348 350 347 348 349 349 348 350 352 351 352 351 348 349 351 353 352 350 349 348 346 347 346 344 341 344
329 322 324 327 329 335 348 367 361 358 358 358 353 352 350 348 344 344 344 344 342 348 347 347 347 346 346 348 348 350 350 350 351 352 350 351 349 352 354 353 350 351 347 349 347 343 345 342 344
329 324 322 323 328 332 338 366 362 358 358 359 354 352 351 349 348 345 344 344 344 348 347 346 347 346 348 350 347 350 350 350 350 350 350 352 352 351 354 352 349 349 347 348 349 343 344 343 343
328 328 324 323 324 330 336 366 364 358 351 356 357 355 350 349 347 347 345 344 345 347 346 347 348 348 347 350 344 349 351 350 350 352 354 353 353 350 354 353 349 348 347 349 349 348 348 348 343
326 326 326 324 325 326 353 362 356 353 347 352 349 347 350 349 348 349 346 344 345 346 347 346 348 348 349 350 346 349 350 349 349 349 354 354 353 352 351 351 352 351 347 348 349 346 346 348 341
324 324 324 325 324 324 350 357 349 347 347 345 351 349 347 350 349 349 347 344 345 345 348 347 350 348 350 349 345 349 351 346 353 352 353 352 354 353 353 353 351 353 351 348 351 347 347 348 343
322 325 325 325 323 323 324 350 354 349 353 351 353 352 351 349 349 348 347 345 343 346 346 349 350 347 351 349 346 348 350 350 351 354 351 353 350 355 353 352 352 348 353 352 349 351 350 347 349
324 325 324 325 322 321 322 322 354 351 355 354 352 344 348 349 350 348 347 347 344 347 346 347 350 348 347 351 347 347 348 348 351 351 350 353 353 354 354 352 353 351 352 351 353 354 351 350 353
325 324 323 323 322 320 320 323 349 358 352 347 355 351 352 352 350 348 347 348 346 347 347 346 351 349 346 346 349 346 347 348 352 348 350 353 352 353 354 350 352 353 352 352 352 355 351 351 351
325 325 324 323 323 324 319 320 321 357 354 349 354 355 349 349 351 350 348 347 347 346 349 347 352 352 347 345 348 347 345 347 350 352 354 353 351 352 353 354 353 352 349 353 353 355 353 351 351
323 322 324 327 327 325 321 322 322 329 353 348 348 348 343 350 351 350 349 348 348 347 350 350 349 353 350 346 344 349 346 346 349 355 353 353 351 349 348 354 353 352 349 352 353 354 349 354 351
323 323 323 324 324 327 326 324 323 324 330 348 343 345 349 352 347 351 350 349 348 348 348 351 350 350 352 349 343 346 349 344 346 348 353 352 352 352 352 349 354 352 352 351 355 354 350 355 354
323 324 325 323 328 330 328 327 328 323 323 348 351 351 355 353 351 351 348 350 349 349 348 350 351 350 352 350 346 344 350 346 343 344 351 350 348 349 351 351 351 353 352 353 353 354 352 353 354
319 323 323 324 325 327 327 327 326 336 327 341 349 350 353 353 353 352 351 348 346 350 349 348 353 351 352 350 351 345 345 350 348 351 347 351 349 354 354 353 350 355 353 353 354 355 354 355 353
316 317 325 327 328 328 331 330 333 336 340 333 346 347 348 349 349 347 346 345 342 341 352 349 353 353 352 351 351 351 344 347 350 351 346 346 349 351 355 352 353 353 352 352 355 353 353 355 355

GFSSGP_925_thetae_087.txt.gz
Theta_e
350 348 343 350 365 364 364 363 356 358 354 346 342 348 353 355 357 351 340 339 336 343 344 348 349 349 349 345 343 346 346 348 350 350 350 350 350 348 348 348 350 349 351 352 352 351 352 352 348
348 345 348 356 368 368 364 360 363 357 351 343 344 354 356 357 348 342 345 341 341 343 345 348 346 345 346 350 350 351 351 348 349 351 347 350 351 348 349 349 349 349 352 349 351 351 351 350 346
344 348 355 362 361 365 365 361 360 353 347 348 356 352 352 352 344 342 345 339 343 344 346 346 344 348 351 351 351 351 349 350 350 350 350 350 351 349 347 348 350 350 348 350 351 350 349 347 347
346 351 355 366 364 356 360 360 356 356 356 353 353 355 349 345 341 347 343 341 344 347 347 348 346 350 351 351 351 349 349 351 349 349 350 347 351 350 347 349 351 349 350 351 349 349 345 344 345
350 352 362 365 366 359 358 355 356 358 359 355 353 356 350 346 347 347 343 344 344 347 345 346 348 351 350 349 351 351 351 351 351 351 351 350 351 350 350 349 349 349 348 347 348 348 346 344 347
356 354 365 366 365 356 358 360 357 358 357 354 354 353 351 349 348 348 347 346 345 345 344 347 350 350 351 352 352 352 351 350 350 351 352 349 352 350 350 350 349 349 349 349 348 342 341 346 345
356 358 364 361 362 360 355 353 358 357 356 354 351 356 351 347 347 348 348 345 345 344 348 349 350 351 351 352 352 351 352 351 352 350 350 350 350 352 351 351 350 349 349 348 347 340 343 344 345
352 355 360 361 364 361 352 355 355 356 356 349 349 355 353 347 349 349 347 346 343 347 349 350 353 352 351 352 352 352 352 352 349 351 351 351 351 350 351 349 350 350 349 348 346 339 341 343 345
348 358 357 358 363 360 354 356 353 354 354 353 353 350 347 348 349 348 348 348 348 348 348 348 351 349 345 351 352 352 352 351 350 350 351 348 350 349 348 348 350 349 348 348 343 338 342 343 344
351 354 356 356 357 360 356 353 354 357 356 356 352 348 347 349 348 347 348 348 351 350 349 348 347 341 348 348 353 351 350 350 349 348 347 348 348 347 347 349 350 349 349 341 340 340 341 341 342
343 353 353 357 354 353 353 353 355 361 360 353 353 350 348 348 348 347 347 347 348 348 349 348 341 345 349 349 347 347 348 346 346 347 348 347 348 347 349 350 345 347 343 338 338 339 336 341 343
340 341 353 355 353 351 354 354 356 357 358 353 349 348 348 348 346 347 346 346 345 348 346 342 342 344 347 346 345 343 344 344 342 345 346 348 347 341 344 345 342 341 342 339 337 339 340 343 344
337 338 347 352 352 352 355 355 355 359 355 354 350 348 347 347 346 347 346 346 346 347 346 340 346 346 346 344 343 345 346 346 346 348 348 347 344 341 341 340 340 341 341 336 339 342 344 345 346
335 336 336 351 351 353 357 357 356 356 355 355 351 349 347 346 345 346 346 347 347 346 346 343 346 346 346 342 343 347 348 349 349 348 345 347 344 342 344 341 340 344 341 341 344 344 344 345 345
334 336 335 351 355 354 356 358 356 356 355 358 354 350 348 347 344 345 346 346 346 343 346 346 347 347 344 343 347 348 349 349 350 350 347 346 346 343 343 344 343 342 337 341 343 344 344 344 344
328 323 323 347 358 357 357 362 358 355 357 356 354 352 350 348 344 345 344 345 346 345 346 346 348 347 345 347 349 349 349 350 350 349 346 347 348 346 343 345 343 342 342 342 343 344 343 345 343
323 331 327 343 355 358 358 361 356 355 356 355 354 352 350 348 343 344 343 344 346 345 345 346 347 348 348 349 351 350 351 349 349 349 348 346 347 347 346 345 344 342 342 343 344 345 342 341 344
331 328 324 323 355 357 359 359 357 355 358 355 353 350 349 348 344 343 342 343 346 346 344 345 347 348 349 349 351 351 351 350 349 349 348 349 349 348 350 345 346 345 343 343 345 345 344 342 343
325 325 326 325 323 336 360 358 358 354 356 355 354 350 350 349 341 342 340 344 346 346 345 345 346 348 350 349 350 351 351 351 350 350 349 349 350 348 350 347 348 349 347 348 346 345 343 345 342
327 327 325 323 322 320 343 360 355 355 355 355 354 352 350 348 342 341 340 346 347 346 345 346 347 347 349 348 349 350 351 350 349 349 349 351 350 351 350 348 347 348 347 348 347 346 345 346 342
326 325 325 324 325 355 356 363 361 354 354 356 349 351 350 349 343 341 340 346 346 346 346 347 347 347 346 347 346 349 350 350 350 350 350 351 350 351 350 349 348 347 348 347 347 345 345 341 340
327 323 324 323 320 321 338 354 357 358 356 355 355 348 351 350 345 341 340 345 346 346 346 346 347 346 344 344 345 346 350 349 350 349 351 351 352 351 350 348 349 347 348 348 346 345 345 342 341
326 325 323 322 319 318 319 323 339 356 358 354 353 352 350 350 347 342 341 344 346 345 345 346 345 345 342 343 343 344 349 350 350 349 350 352 353 353 350 350 349 351 348 346 346 348 348 344 346
324 322 318 315 315 319 319 318 322 357 357 352 349 348 352 349 347 344 342 342 345 345 345 346 346 345 344 343 342 343 347 350 349 348 349 351 353 353 352 351 350 349 350 350 348 350 349 348 349
318 318 321 321 319 320 316 319 320 332 346 350 348 346 348 350 346 346 343 341 343 345 345 346 346 346 345 345 343 341 345 349 348 348 351 350 350 354 352 351 350 350 350 350 349 350 350 348 349
318 318 320 324 323 321 315 321 328 336 335 338 339 343 345 347 347 347 345 342 342 344 345 347 347 347 346 346 345 343 342 347 347 348 349 351 351 351 350 353 351 350 349 350 348 350 351 350 347
317 316 316 317 317 321 321 321 325 338 340 340 340 341 342 343 346 347 346 343 342 343 345 347 347 347 347 346 346 344 343 341 343 346 349 352 351 351 350 351 353 351 351 349 351 349 351 349 348
312 312 318 316 322 325 323 325 339 344 343 344 348 347 343 342 343 345 347 346 342 343 343 347 347 346 346 347 346 345 344 342 340 345 346 351 350 349 349 350 353 351 352 349 350 351 350 350 347
311 312 311 315 317 321 323 339 338 343 340 342 342 345 342 344 343 345 345 347 344 342 343 344 348 347 346 346 347 347 345 343 341 343 344 345 352 351 350 349 350 352 352 352 350 348 351 351 349
312 311 310 314 317 317 319 336 333 336 336 337 338 336 338 341 343 346 347 346 346 344 344 343 345 348 347 346 346 346 346 345 343 340 342 345 346 351 352 350 350 349 350 352 352 351 351 352 351

GFSSGP_925_thetae_090.txt.gz
Theta_e
350 346 343 349 363 363 363 361 356 356 351 343 342 345 350 352 354 348 339 338 336 342 344 346 348 348 347 349 350 349 345 345 350 348 346 343 344 344 344 349 349 350 349 349 351 350 351 351 351
349 345 347 356 364 367 363 359 361 357 347 342 343 352 355 356 346 339 341 338 337 342 346 348 347 346 348 345 346 346 344 347 347 345 347 350 346 349 350 348 350 350 350 350 351 350 351 348 347
345 348 354 359 361 366 364 361 359 351 343 343 354 350 352 351 341 340 341 338 341 342 346 346 345 349 351 346 350 350 344 350 349 346 347 349 348 348 347 350 349 350 349 350 350 350 350 350 347
344 348 353 366 364 358 359 358 355 352 351 352 353 356 345 344 339 345 340 340 342 343 346 347 347 349 352 349 350 351 350 348 350 349 348 349 349 346 350 345 350 349 350 350 349 349 344 345 345
349 352 361 363 362 355 356 358 355 356 357 354 353 352 345 345 346 342 341 342 343 344 346 346 345 349 351 351 351 350 349 349 348 349 349 347 350 350 348 347 349 348 348 349 349 348 345 345 345
356 355 364 366 363 357 356 356 358 358 355 353 350 351 351 347 345 344 342 343 345 345 346 345 346 348 350 351 350 350 351 350 347 349 348 351 348 350 349 348 347 348 347 348 348 346 346 345 344
356 358 363 361 362 359 355 352 359 359 355 354 349 355 351 347 345 345 344 344 346 345 343 347 350 351 351 349 351 349 351 350 350 350 349 351 350 347 350 350 349 349 348 347 346 345 344 343 342
351 356 360 358 363 362 353 354 355 358 355 347 348 353 354 346 347 346 346 345 345 344 346 349 349 351 349 351 348 351 350 351 350 347 350 350 350 350 347 346 349 348 347 346 343 342 344 345 344
346 357 357 358 361 359 354 358 352 352 353 354 353 348 346 348 348 348 348 348 347 350 350 350 352 351 350 351 351 350 351 350 351 351 347 349 349 347 348 347 349 349 348 346 339 341 343 344 344
349 353 356 355 356 357 355 352 355 357 356 353 351 347 348 348 347 347 347 347 348 351 351 349 350 347 347 350 352 351 351 351 350 349 348 348 347 346 346 349 349 349 349 346 342 341 342 343 343
346 354 349 357 355 353 355 351 354 357 359 353 352 351 349 347 347 347 345 345 346 349 348 346 347 341 342 353 351 349 348 347 346 347 347 348 346 342 346 350 350 349 341 337 339 340 341 340 342
339 343 350 354 355 353 353 353 351 353 357 350 348 349 348 347 347 347 346 346 348 349 348 347 341 344 346 347 346 346 345 344 346 347 347 347 344 342 343 347 346 344 339 337 339 336 340 343 344
337 336 342 352 351 351 352 357 357 357 355 350 348 349 349 347 346 346 345 345 346 345 347 346 339 346 346 346 345 344 342 343 343 344 346 346 342 340 339 343 344 344 342 336 338 340 343 344 344
334 334 336 350 351 354 356 355 355 357 355 352 349 349 348 347 346 346 345 344 344 344 345 343 342 344 345 343 344 344 342 344 345 346 346 346 341 341 340 339 340 341 342 341 343 343 344 344 344
333 333 337 350 351 354 355 359 359 356 355 353 350 348 348 346 346 346 345 344 341 342 343 339 344 345 344 341 343 345 346 348 348 346 347 345 345 343 343 343 341 344 340 342 343 344 344 344 343
325 322 323 349 353 355 355 359 357 356 358 355 351 349 347 345 345 346 346 344 342 343 342 341 344 344 343 341 342 345 347 347 347 347 346 345 346 344 339 344 343 342 338 342 343 344 344 344 342
324 330 324 353 355 358 360 359 358 355 357 359 352 350 348 346 344 345 345 345 343 341 343 344 345 344 344 344 346 347 348 348 347 347 348 346 346 346 341 344 343 341 342 341 343 343 342 343 343
331 326 324 326 351 356 360 358 357 357 357 358 354 351 350 348 343 344 344 344 344 342 344 344 345 345 345 346 346 349 350 350 349 349 348 344 346 347 346 345 344 342 342 343 345 343 342 341 342
325 325 326 324 341 356 357 355 356 356 356 356 354 352 351 349 344 344 343 343 345 344 344 345 346 346 348 348 349 350 349 350 349 349 349 347 347 345 347 345 345 343 342 343 345 344 343 343 342
326 326 326 323 325 327 330 347 355 354 356 355 353 351 350 348 345 343 342 341 344 345 344 345 345 346 347 349 349 349 349 349 349 349 350 349 348 348 347 346 347 346 346 346 346 345 344 345 342
325 325 325 325 326 352 353 351 358 353 353 354 352 350 347 348 347 341 341 341 344 345 345 345 345 346 348 349 349 348 350 350 350 350 349 350 349 349 350 347 347 347 347 347 345 345 344 343 342
329 323 325 324 320 320 335 326 351 355 354 353 354 349 349 347 345 340 340 342 344 345 345 345 345 345 347 349 348 348 349 349 349 349 349 350 351 350 350 349 348 347 347 347 346 345 344 342 340
327 322 323 322 319 318 321 319 322 351 356 353 351 351 348 348 344 341 340 342 345 345 345 345 345 346 347 348 347 347 348 348 348 349 348 350 351 350 350 349 348 349 346 347 347 344 345 344 345
322 318 315 313 313 319 319 317 317 349 345 350 349 349 349 347 348 341 340 340 345 345 345 345 346 346 346 347 347 346 345 348 348 348 349 349 350 351 349 349 348 349 349 348 345 346 346 346 347
317 316 318 320 319 319 313 317 334 333 337 339 338 342 348 349 348 345 341 340 344 345 345 345 346 346 346 346 345 344 342 347 348 348 348 348 349 351 352 350 350 349 348 349 348 348 349 347 348
317 316 318 322 319 319 316 319 333 339 338 341 343 341 339 346 348 347 342 341 342 344 344 345 345 345 345 344 342 344 342 344 348 348 346 346 349 349 349 350 350 350 349 350 350 348 349 349 348
316 313 313 315 315 320 319 327 326 339 339 339 338 340 341 341 347 347 346 341 341 344 344 345 345 345 345 344 343 343 343 342 347 348 347 346 347 350 349 350 348 351 350 350 350 349 349 350 350
311 312 317 314 321 325 322 338 343 341 340 340 338 339 340 341 343 347 346 344 341 343 344 344 345 345 345 345 344 344 344 341 340 346 346 346 347 350 351 350 351 350 351 351 349 350 350 351 350
310 311 310 313 314 320 327 340 337 340 339 337 337 337 339 342 345 342 345 345 342 341 343 344 345 345 345 345 345 345 344 344 341 341 343 344 346 350 350 350 349 351 349 351 351 348 348 350 350
310 311 308 319 318 314 324 334 334 336 336 335 333 334 336 337 339 339 342 344 343 341 342 344 345 345 345 345 345 345 344 345 344 343 340 339 345 345 348 352 350 350 350 351 351 352 350 348 350

GFSSGP_925_thetae_093.txt.gz
Theta_e
349 345 345 349 362 363 363 362 356 354 352 345 343 345 346 346 352 354 340 340 342 344 347 347 346 351 349 350 349 346 344 350 348 345 349 349 348 345 346 346 346 347 351 352 351 352 352 352 352
347 346 348 356 363 368 364 360 363 355 348 344 345 346 354 355 346 341 340 341 342 345 348 349 346 349 350 350 349 350 350 349 349 349 349 348 349 349 349 350 347 348 351 351 351 350 349 349 346
347 348 356 361 362 367 367 360 359 349 344 345 355 351 353 354 342 339 341 342 344 347 349 351 347 349 350 350 350 350 350 347 346 347 347 346 348 349 348 349 348 349 351 350 351 351 347 347 345
347 350 355 366 366 360 359 360 351 346 348 354 353 355 345 343 339 343 341 343 346 348 349 349 347 350 350 351 350 349 350 347 344 345 347 350 346 350 345 347 349 350 350 351 350 350 349 346 346
350 355 364 365 362 358 357 359 350 348 350 355 353 351 344 346 345 341 343 345 346 347 350 351 349 350 349 349 351 350 348 350 346 345 347 347 348 349 347 350 349 349 350 349 350 349 345 345 345
358 357 365 369 362 357 358 356 357 357 355 352 350 348 348 347 341 343 344 345 346 348 349 350 348 350 351 351 350 350 350 349 350 348 350 348 350 350 349 348 348 347 348 349 349 346 345 345 343
358 361 364 362 363 360 356 354 359 359 355 354 349 352 350 345 341 344 345 347 347 349 350 350 350 351 350 349 349 349 350 350 349 350 349 347 345 348 350 349 349 348 348 347 346 344 342 342 343
355 358 361 359 363 364 353 356 354 358 355 349 348 353 350 345 344 345 347 348 348 349 349 352 353 353 352 352 352 349 351 350 349 348 350 349 350 350 348 344 348 348 347 346 344 344 344 343 343
347 359 360 358 361 361 354 357 354 353 354 354 350 347 344 344 344 346 348 349 349 349 349 351 352 352 352 351 352 349 348 350 350 347 350 347 350 349 348 346 349 348 347 345 343 343 343 344 344
353 358 357 355 356 357 355 354 357 357 356 354 352 347 345 345 344 346 348 348 348 350 351 351 352 352 352 352 353 353 352 352 351 349 348 349 348 349 348 349 349 349 347 346 342 342 343 345 347
352 358 352 356 354 353 354 355 354 358 359 354 353 349 345 344 344 346 347 347 348 351 351 351 352 350 351 352 352 352 351 350 347 346 346 348 348 349 349 350 348 347 344 346 342 343 344 345 347
345 343 350 354 353 353 352 353 354 354 357 351 349 345 344 345 346 346 346 346 346 349 350 349 350 347 351 354 351 351 349 350 349 347 347 347 348 348 350 349 349 345 338 339 339 342 341 346 345
344 341 340 350 354 352 352 356 351 355 353 349 347 345 345 345 347 346 345 344 344 346 347 348 347 348 348 351 351 350 349 350 350 347 346 347 346 346 348 345 348 343 339 338 338 340 345 346 349
338 340 339 351 354 351 355 356 355 355 352 351 348 346 347 348 347 347 345 344 344 346 347 348 345 350 348 350 347 350 349 349 349 346 346 345 342 340 345 343 344 343 340 339 342 343 346 347 346
335 337 340 344 351 355 353 357 357 355 354 352 352 350 349 348 347 347 346 345 344 345 347 347 345 348 347 346 345 349 349 349 350 346 345 346 342 342 343 343 340 344 341 342 343 344 344 347 345
330 328 333 353 351 352 356 360 357 356 357 355 353 351 350 350 348 347 347 344 343 343 346 346 345 347 348 344 344 348 350 350 348 347 346 346 345 345 342 346 345 342 338 343 344 347 347 346 346
331 340 329 355 352 357 358 359 359 356 357 356 353 352 351 350 349 348 348 346 343 343 345 345 346 348 348 342 344 347 347 348 347 347 347 345 346 345 339 346 345 341 342 345 347 347 345 347 346
338 330 329 342 356 359 358 359 359 358 358 356 354 352 351 350 349 348 348 348 345 344 345 345 346 348 346 347 344 349 348 351 349 348 348 346 346 346 344 345 344 342 344 346 348 345 344 345 345
330 330 330 328 345 358 351 352 356 358 358 359 356 354 352 350 347 347 348 348 347 345 345 346 347 348 348 350 349 350 352 353 350 351 349 346 346 346 347 346 343 342 345 346 344 345 343 347 344
331 332 331 327 334 347 333 338 354 356 359 359 358 355 353 351 349 347 347 347 347 345 344 347 348 348 347 350 351 352 353 353 352 352 349 347 347 345 347 346 347 343 347 346 344 343 348 349 343
332 333 330 328 326 348 352 353 358 356 358 358 357 355 353 352 350 348 347 346 347 347 346 347 346 347 348 350 349 349 349 350 353 351 352 347 346 347 348 346 348 346 348 350 347 346 345 347 346
336 329 328 329 327 328 344 333 354 356 358 359 358 356 353 352 350 348 347 346 346 347 347 347 347 346 347 347 351 351 351 350 352 352 351 351 348 347 347 347 347 346 349 347 347 346 347 343 346
332 328 329 328 328 325 339 329 338 358 356 349 354 357 354 350 350 350 347 346 346 346 347 347 348 347 346 347 350 352 352 352 351 352 350 350 350 350 349 350 348 348 349 347 346 345 345 347 348
325 324 322 322 325 327 325 324 343 345 345 346 345 346 353 352 349 348 347 346 346 346 347 347 348 348 346 345 348 350 352 351 352 351 352 352 350 352 350 349 347 348 348 347 348 346 346 348 350
325 326 328 328 327 328 321 334 350 346 345 344 346 346 345 346 351 350 348 346 346 346 347 347 348 349 347 345 348 349 350 350 349 348 350 352 352 353 352 347 349 349 347 349 349 346 348 350 354
325 326 328 330 328 327 322 341 348 341 341 342 343 343 344 344 345 351 348 346 345 347 347 346 347 348 349 348 346 347 348 349 349 351 351 351 352 353 351 349 348 348 348 348 350 352 353 351 352
321 324 319 324 322 326 326 335 339 339 341 341 340 341 342 348 344 348 350 347 345 346 347 348 348 348 349 348 347 347 346 346 347 349 348 349 348 352 350 349 347 349 350 349 349 353 350 351 354
319 316 324 324 330 328 337 342 345 343 342 340 339 341 341 342 347 345 349 348 345 346 347 347 348 348 348 348 347 347 346 343 343 345 349 348 345 346 350 350 349 349 350 351 350 352 351 349 353
318 320 321 323 324 329 333 345 338 341 339 337 334 334 338 341 340 345 348 349 345 345 347 347 347 348 348 349 348 348 346 344 344 343 347 348 346 345 347 350 351 350 351 353 350 351 352 352 355
314 316 316 327 329 325 332 341 338 337 335 337 333 331 332 335 336 337 338 339 345 345 345 346 346 347 348 348 348 349 348 346 346 344 341 343 347 345 345 349 350 351 353 352 349 348 353 354 353

GFSSGP_925_thetae_096.txt.gz
Theta_e
346 345 347 352 365 363 364 365 358 358 355 348 346 347 349 348 353 360 341 342 345 346 347 348 351 352 347 350 350 346 351 349 344 345 343 340 345 346 346 347 351 352 352 353 352 352 353 353 352
347 345 351 358 366 368 370 362 360 356 351 347 345 347 350 357 346 343 342 343 345 346 347 347 349 349 348 348 345 341 350 351 349 350 349 349 346 350 351 350 351 352 350 353 352 352 352 352 352
347 350 359 366 363 371 371 362 357 351 347 349 348 352 353 356 344 341 342 344 345 347 348 349 347 349 348 348 348 348 348 351 349 348 349 349 351 349 350 349 351 352 351 352 352 347 346 346 347
351 353 359 369 366 363 364 361 351 349 348 353 352 356 348 346 341 342 342 344 346 348 348 346 345 350 351 348 351 349 349 351 345 346 350 347 350 350 352 350 350 351 351 351 352 351 348 347 345
351 359 367 366 365 360 361 353 349 350 354 355 353 353 350 343 344 342 343 344 346 347 349 350 350 351 349 352 350 347 351 348 349 348 350 347 350 350 350 350 350 351 350 351 351 346 345 347 346
360 359 367 368 366 362 361 358 348 349 356 354 352 350 352 345 342 343 343 345 346 347 349 351 350 349 350 351 350 347 351 347 351 351 346 350 350 349 350 348 349 349 350 350 346 345 344 344 344
359 364 364 363 365 364 358 358 359 358 356 355 350 353 350 342 342 343 343 344 346 347 349 350 350 350 351 352 351 349 350 350 351 349 350 345 349 350 349 349 349 349 349 348 346 344 344 343 344
357 360 361 360 364 365 355 357 357 358 358 350 350 353 352 342 343 344 344 345 346 348 350 349 349 351 352 351 349 350 350 351 350 352 345 349 350 348 345 346 348 349 349 348 346 344 343 343 344
351 361 360 360 361 362 355 358 356 356 355 354 351 349 344 341 343 344 345 345 347 349 348 349 352 352 351 351 350 352 350 351 344 349 345 348 349 347 348 345 348 349 348 347 345 343 343 342 345
356 358 358 356 357 360 357 357 358 359 358 357 353 345 342 342 343 344 345 347 348 348 347 349 349 350 351 351 352 351 350 351 350 350 350 348 348 349 346 348 349 348 347 343 342 343 345 348 346
354 358 353 357 355 354 354 356 354 358 361 356 356 349 344 343 343 345 347 347 347 346 347 348 351 351 351 351 351 350 349 349 350 350 348 348 347 347 347 347 343 344 348 345 346 347 347 348 346
354 350 350 355 354 354 354 352 354 357 358 352 353 346 344 344 344 345 347 347 348 346 347 349 349 351 351 351 349 348 349 348 348 349 349 347 347 347 346 344 345 343 344 347 346 346 349 350 350
349 346 344 349 353 352 353 354 355 357 354 351 348 345 344 343 344 345 346 346 347 348 347 348 348 348 353 351 348 348 349 350 349 349 350 348 346 347 346 347 345 345 344 346 346 348 349 349 347
348 346 342 347 350 353 355 353 353 358 352 351 346 345 344 343 344 346 346 345 343 344 346 347 346 348 350 351 350 350 350 351 350 349 350 350 347 347 347 347 347 347 346 346 348 350 350 349 346
341 342 338 343 349 351 353 359 357 358 354 352 347 344 344 345 346 346 345 343 342 344 346 347 345 349 350 351 351 351 351 350 350 351 351 351 349 349 348 347 347 347 347 349 349 350 350 346 345
343 339 344 345 347 351 355 361 355 355 356 354 347 345 346 348 347 345 343 342 341 343 346 346 344 348 350 350 350 350 351 352 352 349 349 352 353 352 351 350 348 348 347 348 348 348 348 344 342
342 346 341 348 346 354 358 361 357 358 357 358 352 347 348 350 347 345 343 343 341 342 345 346 346 347 349 351 351 351 352 351 350 351 351 353 353 352 349 350 350 348 348 348 348 348 348 345 344
346 344 337 346 351 356 357 359 360 357 358 357 357 353 351 350 348 344 347 345 341 342 344 346 347 348 350 351 351 351 351 352 352 351 353 352 353 353 349 350 350 348 348 348 349 349 347 345 345
341 340 339 342 352 355 353 350 359 359 358 358 357 356 354 351 345 345 349 348 344 341 344 346 348 351 351 350 350 351 352 352 352 351 352 354 350 349 353 349 350 349 348 349 351 349 348 345 346
339 337 336 333 345 349 335 337 344 357 356 358 358 355 354 352 347 346 349 349 347 343 345 347 349 353 353 352 353 352 352 352 352 353 354 352 351 351 350 351 349 349 349 353 351 351 345 345 346
339 338 335 335 333 337 343 351 357 353 355 356 357 355 354 352 350 346 348 350 348 345 345 348 349 352 353 353 354 356 354 353 353 352 352 352 352 351 351 350 350 350 349 348 352 351 352 345 346
336 337 334 331 332 342 344 346 351 356 359 360 359 356 355 353 350 348 348 349 349 348 346 346 350 352 354 355 354 353 350 350 351 353 352 351 351 352 351 350 350 351 351 350 351 351 350 348 345
336 334 335 331 332 331 338 341 352 353 354 353 359 358 356 355 352 351 348 348 348 348 348 347 350 352 352 354 354 353 352 347 348 352 355 353 352 352 352 351 350 352 351 352 353 354 354 347 347
331 332 332 332 331 333 338 337 350 351 352 352 351 351 355 353 353 351 349 348 348 348 349 348 350 353 353 353 355 355 352 351 352 352 353 353 352 352 353 354 354 356 353 354 354 355 355 354 352
330 330 333 335 332 331 331 332 354 347 348 348 350 349 348 350 352 351 352 349 348 349 349 350 350 353 354 353 353 354 354 354 354 351 348 352 351 351 354 354 351 352 354 356 354 355 354 355 353
330 329 331 334 331 330 329 340 351 344 344 346 343 344 347 349 348 350 349 350 349 349 350 351 351 353 354 354 354 354 355 354 352 352 347 351 350 351 356 351 353 354 353 355 356 354 351 353 353
330 330 328 329 330 330 333 347 343 342 344 344 342 342 345 350 348 348 352 351 350 349 350 351 352 354 355 353 354 355 355 354 351 349 351 350 351 351 356 354 350 351 353 354 355 353 354 354 354
325 326 328 328 332 332 332 345 350 345 344 343 341 339 342 343 350 349 349 351 351 350 350 351 352 353 354 354 353 354 355 355 354 351 352 350 351 353 354 356 355 352 352 353 353 353 355 356 353
324 327 327 327 329 331 335 344 342 343 341 340 336 335 337 340 342 345 340 347 352 350 349 351 352 353 354 353 353 354 353 354 354 351 351 352 354 354 355 357 356 355 354 354 354 354 352 355 353
320 325 327 330 331 330 332 351 339 337 337 336 334 333 331 333 334 336 337 338 342 348 350 351 351 351 352 353 353 353 353 352 352 352 351 351 352 355 354 354 355 357 357 357 355 352 352 354 354

GFSSGP_925_thetae_099.txt.gz
Theta_e
343 344 347 352 368 365 369 366 358 355 353 348 346 346 352 354 357 358 344 346 347 346 346 349 348 351 352 351 351 351 351 350 349 348 347 348 352 352 352 353 354 353 354 352 353 352 353 353 351
348 347 352 361 371 371 371 362 358 355 350 348 347 348 352 356 347 345 345 346 345 345 345 349 350 352 351 351 351 350 351 351 351 349 349 347 350 351 352 352 353 353 354 353 353 353 354 353 352
353 348 360 369 370 375 372 359 355 351 347 347 350 351 356 349 344 345 345 345 345 346 346 352 349 350 349 348 349 349 351 350 349 350 350 352 349 351 352 352 353 352 353 354 351 351 351 352 350
350 353 359 372 368 366 365 356 351 350 350 349 351 355 350 344 344 345 345 346 346 347 349 349 348 348 351 349 351 349 352 351 351 350 348 350 351 352 351 351 352 352 352 353 351 350 346 346 351
352 360 371 369 366 364 359 351 348 352 354 352 352 355 349 343 343 345 345 346 346 349 348 349 352 350 350 352 352 351 351 350 346 351 348 351 350 350 350 351 352 351 352 351 348 346 350 349 350
361 362 370 370 367 364 358 350 350 355 356 354 354 352 351 345 344 344 345 346 347 347 350 350 350 352 351 352 346 352 350 351 351 351 350 351 350 350 351 351 351 351 351 347 351 350 347 347 346
361 368 366 364 367 367 364 352 351 356 356 355 351 355 350 345 344 344 345 346 346 350 349 349 351 351 351 352 348 352 350 351 351 351 350 351 350 350 350 349 350 351 350 350 351 348 344 345 341
358 360 361 361 366 367 360 360 359 357 356 350 351 353 351 345 344 344 345 345 346 346 347 348 348 351 351 351 351 352 351 352 350 351 346 347 348 344 348 344 350 351 351 350 349 345 342 343 338
354 365 363 360 362 365 358 361 358 357 355 354 353 348 344 344 344 345 345 345 346 346 346 348 351 352 351 351 350 348 347 344 345 343 344 346 349 348 347 343 350 350 349 348 342 341 341 339 339
356 364 360 356 358 360 359 359 360 359 358 357 354 346 343 344 345 345 345 345 345 346 347 349 351 350 350 350 352 350 350 351 349 349 349 348 347 346 343 344 349 346 341 341 343 346 347 349 350
355 360 356 357 356 354 358 359 355 360 362 357 351 347 345 345 345 345 344 344 346 345 348 349 351 349 351 350 350 350 350 348 349 349 348 346 345 347 343 346 346 346 347 346 347 347 348 347 342
354 353 353 355 353 355 356 354 356 358 357 353 349 346 345 346 345 344 344 345 345 345 347 350 351 350 351 348 350 348 347 348 347 346 346 348 345 347 345 343 343 346 348 347 347 345 348 344 344
352 349 348 353 353 354 352 352 356 358 354 353 352 346 345 345 344 343 344 345 345 346 346 346 349 354 351 351 347 349 348 348 346 348 347 347 345 344 345 345 344 344 345 346 346 348 348 346 345
348 347 347 350 354 353 354 354 355 359 354 354 351 346 345 344 343 343 344 345 346 346 346 347 347 352 352 351 350 348 351 349 347 348 349 348 345 347 345 346 344 345 345 347 348 350 347 345 343
348 351 344 348 352 355 354 357 360 357 354 352 349 346 344 344 343 344 344 345 344 345 346 347 347 349 351 350 350 350 349 350 349 350 351 350 348 348 346 347 346 345 348 349 349 351 347 346 342
348 347 347 346 348 353 356 363 362 356 356 351 349 346 345 344 344 343 343 343 343 344 346 346 346 348 349 351 351 350 350 351 351 350 350 352 353 351 352 347 346 348 347 346 347 349 346 342 342
348 349 346 347 348 353 358 362 360 354 356 352 349 346 346 346 345 343 342 342 342 345 346 345 346 348 349 350 350 350 353 351 351 352 351 353 353 352 351 349 352 346 348 347 347 347 346 343 342
348 346 344 349 348 355 359 358 360 356 358 354 349 347 347 349 347 343 341 341 342 344 346 347 346 349 351 351 351 350 350 352 352 351 352 353 353 353 352 351 351 350 348 346 350 350 345 344 344
341 342 343 347 349 354 359 360 362 362 359 359 353 349 348 348 347 343 343 343 341 343 345 347 348 351 352 350 349 350 353 354 353 352 353 354 353 353 353 350 351 352 348 351 350 346 349 344 341
341 341 341 348 351 357 357 353 359 357 357 357 359 355 352 351 348 345 346 344 342 342 344 348 350 353 352 349 348 350 352 354 353 352 353 354 352 352 352 350 349 351 350 352 351 351 347 342 344
342 340 339 341 350 343 341 353 356 353 354 357 356 355 354 352 349 347 347 346 344 343 345 348 351 354 353 351 354 353 355 352 354 353 353 353 352 351 353 352 353 351 350 350 350 350 350 349 343
338 337 337 339 341 348 345 358 362 354 361 360 359 357 355 353 352 347 347 347 345 344 345 348 352 354 354 354 354 353 351 350 352 351 350 352 352 352 352 353 353 352 350 351 351 347 350 347 344
335 337 337 335 337 347 348 353 358 351 357 362 360 358 356 353 352 347 347 348 346 345 345 348 351 355 354 354 356 354 354 351 354 353 354 353 354 353 352 352 353 353 354 349 352 353 355 347 350
336 336 338 336 335 340 350 348 355 360 354 358 358 358 356 354 352 350 348 348 347 346 346 347 352 355 355 356 355 356 349 353 351 353 354 353 351 352 353 352 353 354 354 353 353 354 355 354 354
336 337 338 338 336 336 342 348 359 351 350 352 352 352 354 355 355 353 351 350 349 346 345 347 352 355 356 355 356 356 356 355 356 354 353 353 352 349 353 355 356 355 356 354 355 355 356 355 353
335 334 335 337 333 332 333 350 353 348 347 345 345 346 349 351 354 353 352 350 350 347 346 347 353 356 357 356 356 356 357 354 350 353 349 349 350 351 354 354 354 355 354 354 354 354 352 352 354
334 333 331 331 332 331 342 351 346 346 348 346 343 343 346 352 354 353 352 351 351 349 348 349 353 356 358 357 357 357 358 357 350 350 351 352 350 356 358 352 355 354 353 354 355 355 353 355 355
328 330 332 331 335 333 344 351 350 349 347 344 341 341 342 347 352 352 349 351 352 352 350 351 353 356 358 358 358 357 357 358 357 352 352 348 350 350 353 354 352 353 354 355 355 352 354 354 354
328 330 330 331 332 334 340 352 347 347 342 343 338 337 338 341 343 347 347 345 350 351 351 352 353 356 358 358 357 357 357 358 358 355 354 353 353 353 355 356 354 354 353 354 355 355 356 357 355
326 328 330 332 333 332 333 352 341 342 341 339 337 334 333 334 338 340 339 338 334 336 343 353 351 355 355 356 356 357 357 357 357 357 355 354 353 353 354 356 357 356 355 354 354 354 349 353 353

GFSSGP_925_thetae_102.txt.gz
Theta_e
335 346 350 352 364 367 370 365 355 350 349 345 347 352 353 351 354 360 348 348 347 349 350 350 349 351 350 351 347 347 349 347 345 347 352 352 352 351 351 351 351 349 351 353 354 353 353 353 344
347 347 351 359 370 375 372 357 357 350 347 347 349 351 350 350 346 347 348 347 346 346 348 349 347 349 351 351 352 352 352 351 350 349 349 352 352 352 353 354 352 350 351 352 353 354 353 352 341
351 352 359 366 371 375 371 357 352 349 346 348 354 350 347 348 346 346 346 345 344 346 350 351 350 350 351 352 349 352 350 351 349 351 352 350 352 352 353 353 353 353 352 350 349 352 351 343 336
353 354 358 372 372 365 363 355 348 347 348 350 351 349 345 345 346 345 345 345 347 350 351 353 352 352 352 352 348 350 352 348 350 349 349 351 351 352 352 352 352 353 353 352 351 351 350 340 342
351 360 370 370 370 362 356 348 350 351 350 352 348 349 347 346 345 345 346 347 348 349 351 352 351 353 352 351 350 352 351 346 350 351 351 351 351 351 352 352 352 352 352 351 353 350 351 343 342
360 363 371 373 369 356 352 349 355 353 353 351 348 348 348 345 345 345 346 349 350 347 350 352 351 351 352 351 353 351 351 351 350 351 351 351 351 351 352 352 352 352 352 352 351 348 351 339 339
361 367 369 367 368 365 353 351 358 355 354 351 347 352 347 345 345 345 348 348 348 349 351 352 352 352 353 351 353 352 352 352 351 351 350 350 351 349 350 351 351 351 352 352 347 343 339 334 338
358 365 365 365 369 368 361 356 359 358 356 349 348 352 349 345 344 346 344 349 349 348 349 350 351 352 350 352 352 352 351 351 351 344 351 344 346 350 349 348 351 352 351 342 340 340 332 332 342
353 364 365 362 365 367 360 362 358 357 354 353 352 347 345 344 344 346 348 348 347 348 348 350 352 352 351 351 350 348 351 345 341 343 345 348 349 348 350 347 350 346 342 341 340 338 335 338 340
360 363 363 356 359 363 359 357 359 358 356 356 347 345 344 344 345 346 347 345 346 348 350 351 351 352 351 348 349 350 350 350 349 348 346 349 348 343 347 345 343 340 341 344 346 346 344 349 346
358 364 359 359 357 356 359 361 359 360 360 354 348 346 345 344 344 343 345 346 346 349 351 349 351 350 352 349 350 351 351 349 349 347 349 348 342 340 339 342 343 344 346 348 346 348 349 350 350
357 354 355 357 355 356 359 357 361 360 358 348 346 345 345 344 344 343 344 347 347 350 351 353 352 354 351 340 349 351 350 349 350 348 347 344 348 347 347 348 348 349 347 348 347 343 343 342 342
352 352 355 353 355 355 354 356 360 360 354 349 346 345 345 343 343 343 345 344 349 350 351 352 352 351 351 346 349 348 348 348 344 346 346 348 344 346 344 341 345 345 347 348 348 346 349 346 343
346 350 351 354 354 352 354 355 352 358 353 354 348 346 345 343 343 344 346 344 345 348 346 350 354 351 353 351 348 340 345 349 348 347 348 348 346 345 344 346 343 346 349 348 348 344 347 343 345
347 349 347 355 353 355 352 359 359 359 355 356 349 346 344 342 342 344 346 345 345 345 347 347 349 352 352 351 351 350 348 351 349 347 351 349 347 349 346 347 347 346 346 342 349 351 347 347 344
344 348 351 356 355 354 353 364 357 356 357 355 348 345 344 343 342 343 345 345 345 346 347 346 346 349 351 350 351 349 340 338 350 350 349 353 348 350 348 347 348 346 346 346 348 349 346 347 344
346 350 349 350 352 357 357 365 357 355 358 352 348 345 344 344 343 343 344 344 344 346 348 346 347 348 351 350 352 353 349 350 351 352 352 351 352 352 352 350 348 345 349 348 348 342 345 347 344
344 347 348 350 354 358 361 362 357 354 357 352 348 346 345 346 344 343 342 343 344 346 347 346 348 348 351 350 352 352 352 351 353 350 352 352 353 352 350 350 348 348 349 348 345 350 347 345 344
339 343 347 347 357 358 358 360 356 354 360 352 348 347 346 347 345 342 341 342 345 347 348 348 352 349 353 352 350 351 353 353 351 354 353 353 353 352 350 352 342 352 348 350 350 344 345 347 344
334 342 346 356 355 357 358 357 356 356 357 357 350 348 349 348 345 344 341 342 344 347 348 348 353 349 354 348 352 353 350 353 352 353 353 353 353 352 353 350 346 352 351 351 351 351 350 346 343
333 339 342 364 351 348 354 358 352 353 350 354 353 349 349 351 349 345 345 343 343 347 348 349 354 350 353 350 353 348 349 354 353 352 353 353 352 352 353 354 351 349 352 350 350 351 347 350 342
335 341 342 354 351 359 354 367 356 358 360 358 358 357 352 350 349 346 347 345 343 346 347 350 356 352 352 353 352 354 352 351 353 353 353 353 351 352 353 352 355 352 352 349 351 350 350 350 351
337 338 339 339 343 352 352 355 359 357 359 361 359 358 356 351 349 348 347 346 345 345 347 351 355 354 354 354 351 351 351 338 352 350 352 353 352 351 352 353 353 351 349 349 351 349 352 354 352
335 336 339 338 336 348 350 351 363 360 361 359 359 357 356 353 350 349 347 346 346 345 346 351 354 356 353 355 355 353 352 350 351 350 351 354 351 353 352 352 353 354 352 352 354 351 351 354 351
333 338 342 341 339 338 348 350 361 357 353 355 357 354 354 356 352 351 350 349 347 347 346 352 354 358 357 355 356 356 354 352 350 351 354 353 353 353 352 352 353 354 351 351 355 353 352 352 353
335 338 340 341 338 335 347 361 360 353 350 350 349 350 352 356 355 354 351 349 348 348 347 352 356 359 358 358 358 356 355 355 353 352 354 350 348 350 352 353 350 353 354 354 352 354 350 352 345
335 337 335 335 334 334 354 358 353 349 349 347 345 346 349 352 355 354 353 350 348 350 350 352 356 358 359 358 358 359 358 355 351 348 346 350 352 349 353 354 354 355 354 354 352 351 352 351 351
331 332 334 335 338 338 357 357 360 353 350 345 343 343 343 346 349 353 351 348 353 351 352 354 358 360 360 360 359 360 360 358 352 355 352 352 355 352 349 353 355 354 354 354 353 354 353 353 354
330 330 332 332 333 336 357 359 349 351 347 344 341 338 339 341 343 344 346 345 348 347 346 345 352 361 358 360 361 360 360 360 359 357 353 350 352 354 349 341 353 351 353 354 354 353 353 352 351
327 329 331 334 337 335 352 357 346 345 343 341 338 335 335 337 340 341 341 340 339 345 345 344 344 344 353 358 357 358 360 360 360 359 357 354 353 352 355 355 355 354 353 352 354 353 355 353 355

GFSSGP_925_thetae_105.txt.gz
Theta_e
337 338 346 350 361 364 366 367 348 353 353 348 348 351 353 352 355 359 349 350 348 349 350 351 350 351 350 345 346 345 345 346 348 352 351 351 349 349 349 347 352 352 352 353 353 352 351 351 347
336 345 350 356 365 371 366 358 351 356 355 351 347 348 351 354 349 349 349 348 349 348 348 347 346 346 348 351 345 349 350 349 348 349 351 352 352 349 348 351 353 352 352 353 353 353 345 345 346
348 350 355 364 365 367 366 357 347 353 351 348 349 345 349 353 349 347 347 348 347 349 345 348 347 344 352 349 349 349 351 349 351 350 351 352 352 351 348 352 352 352 348 350 352 341 339 342 343
351 354 357 370 366 363 361 349 347 352 347 346 347 350 348 347 347 345 345 345 348 347 347 349 349 352 352 351 351 350 351 349 350 350 349 351 352 352 349 353 353 353 352 348 350 338 337 343 345
352 357 366 370 368 360 348 347 351 351 349 348 348 351 349 346 345 345 346 349 350 350 351 351 349 349 352 350 351 352 350 348 352 351 351 352 351 352 351 352 353 352 352 352 352 338 340 343 342
357 359 368 368 365 358 357 354 353 352 348 347 350 349 347 345 345 346 349 351 349 348 349 351 350 349 350 352 351 350 350 349 351 351 351 351 352 352 350 352 352 353 353 352 349 335 337 341 341
358 365 367 366 364 364 362 357 360 349 348 349 347 350 345 344 346 348 349 349 350 350 350 349 350 352 350 352 351 352 349 351 352 351 351 349 351 352 351 352 352 353 347 339 336 333 335 341 341
357 361 365 364 365 366 362 360 357 353 352 345 346 350 348 344 348 348 348 349 350 350 348 348 348 347 351 350 352 351 351 351 351 351 351 350 350 351 351 349 350 351 351 350 342 333 335 342 339
352 363 366 364 364 365 361 363 359 356 351 348 346 346 344 346 347 348 348 349 349 351 350 349 350 349 349 348 351 351 351 345 342 345 344 347 346 349 346 344 345 348 344 338 336 332 341 342 343
356 359 358 358 360 364 361 361 361 358 356 355 347 345 344 346 349 348 348 348 349 351 351 351 351 351 348 349 342 341 344 343 344 345 345 349 347 344 341 340 341 342 344 346 342 341 343 344 344
351 359 350 351 357 358 357 361 360 360 354 347 347 345 343 346 347 346 346 348 349 350 351 351 349 351 350 348 348 348 349 347 346 347 347 349 345 340 340 339 341 344 346 348 348 347 347 349 349
361 355 356 358 356 356 361 357 361 359 357 347 344 343 343 345 346 347 346 348 351 350 349 350 350 349 347 342 347 348 348 348 347 349 349 341 341 340 342 346 347 349 346 346 346 345 348 347 343
352 353 356 356 357 357 357 360 361 357 355 345 344 344 342 341 344 346 348 349 352 350 350 351 350 347 339 345 348 348 347 348 346 347 345 347 346 345 347 347 346 347 346 346 343 346 345 343 344
345 357 358 356 357 355 359 360 356 358 356 346 345 344 341 340 343 347 349 349 348 352 352 351 350 341 333 341 347 346 347 346 346 346 347 347 347 345 345 344 347 348 348 348 343 344 345 345 341
346 351 355 355 353 354 353 357 359 359 356 352 346 344 342 340 344 344 349 350 351 352 350 352 350 349 348 347 343 339 347 349 349 348 350 345 344 344 346 347 348 348 344 345 347 348 348 348 345
332 349 361 356 353 353 354 364 357 357 357 358 351 345 343 341 346 344 344 347 348 348 350 349 350 350 350 348 346 336 348 347 347 346 349 347 349 346 346 348 346 342 346 346 347 347 344 348 345
332 341 355 359 354 355 356 361 356 354 356 358 351 345 342 342 345 345 344 344 347 346 346 347 351 347 350 351 348 341 342 346 349 349 348 348 349 350 347 348 346 345 348 348 346 343 346 346 343
334 341 358 361 358 357 360 361 354 354 356 356 349 344 341 343 344 345 345 345 347 347 344 348 348 349 349 352 350 349 348 349 350 351 349 350 350 350 350 351 345 349 347 346 346 347 346 346 344
331 340 350 354 357 358 359 359 352 355 357 358 349 342 342 342 342 343 344 346 347 346 344 350 348 350 348 351 352 352 351 351 349 346 349 351 351 347 348 347 345 349 347 346 347 348 351 347 345
328 334 359 362 360 357 360 360 356 356 357 356 354 343 344 342 341 342 343 347 348 347 345 351 348 351 348 352 352 352 353 353 351 351 351 352 352 349 349 348 347 350 349 349 351 350 351 349 342
327 329 355 361 353 358 355 358 356 354 353 352 350 351 345 344 342 340 342 347 348 347 348 352 349 348 347 351 352 350 350 353 352 352 352 352 351 353 352 351 349 352 351 349 349 350 349 351 346
325 336 354 353 355 362 352 360 355 353 353 351 350 354 348 345 343 341 341 346 347 347 348 350 350 347 352 355 351 347 349 352 352 351 352 352 348 353 351 354 351 352 352 350 349 353 352 349 354
327 349 351 349 350 355 354 358 358 353 354 353 352 348 348 346 345 345 342 345 347 347 349 348 354 349 350 353 354 351 351 350 352 353 352 351 351 353 349 352 352 351 349 349 351 352 347 351 352
331 332 345 350 353 364 357 354 362 360 356 352 349 345 351 348 347 346 344 342 347 347 349 350 354 352 352 353 352 352 346 342 350 351 353 352 351 351 352 351 350 345 350 348 353 352 347 348 351
332 332 337 343 359 355 350 352 357 355 347 346 345 346 355 353 348 347 346 344 346 347 350 350 354 354 352 354 351 352 350 351 351 349 350 352 352 353 352 352 352 351 349 349 352 353 350 345 349
332 329 338 351 340 334 341 361 362 351 350 350 350 352 352 354 351 351 350 347 345 347 350 351 354 354 351 353 354 353 350 352 348 349 351 353 352 352 352 352 352 350 350 350 351 353 350 350 344
333 332 330 336 332 334 359 360 355 350 350 349 349 350 349 348 349 354 348 351 348 346 350 352 352 355 353 352 355 353 354 346 350 350 352 352 347 348 352 351 352 351 349 352 353 351 350 348 350
330 328 329 329 336 339 360 362 362 353 350 345 345 345 346 346 347 348 348 349 351 351 351 353 353 354 356 353 355 355 354 353 353 355 354 352 351 350 342 349 352 354 354 354 352 352 352 352 353
328 327 329 328 331 332 359 358 353 349 345 343 341 340 342 343 346 344 341 344 348 346 349 349 348 346 345 349 352 354 355 354 352 351 352 353 351 350 336 350 352 353 355 353 354 352 354 353 353
325 325 327 330 331 338 353 356 348 344 340 338 337 337 339 342 342 341 340 339 339 343 341 341 345 346 339 337 348 354 354 354 352 350 356 352 353 352 352 344 346 350 354 353 352 352 350 352 351

GFSSGP_925_thetae_108.txt.gz
Theta_e
342 339 347 348 360 360 363 361 356 354 352 346 345 348 350 351 353 354 348 349 345 346 348 350 350 351 350 350 349 350 351 351 347 351 351 352 352 352 352 352 352 352 353 352 352 352 352 351 350
338 347 349 356 364 367 364 358 359 354 349 346 348 350 352 355 350 349 348 346 345 348 350 350 348 348 349 349 349 349 349 349 347 346 348 351 352 351 352 353 353 352 352 352 351 351 350 349 348
339 346 355 361 358 366 362 358 354 350 346 347 348 349 352 355 350 348 348 346 348 349 346 344 342 350 350 350 351 350 349 348 349 350 351 348 347 353 353 353 352 348 350 351 351 350 345 345 346
349 353 355 366 362 360 359 355 348 349 348 348 350 354 350 347 347 348 348 345 344 345 346 345 346 351 347 351 351 351 350 351 350 351 352 351 350 353 353 353 353 352 351 350 347 345 343 344 344
351 355 362 368 364 355 354 347 346 348 350 350 350 353 350 346 348 348 347 346 340 346 348 346 349 350 350 351 351 351 348 349 350 350 351 352 352 352 353 353 353 353 346 342 339 342 344 343 345
357 358 366 369 364 361 358 348 348 350 350 350 351 350 348 346 346 347 348 346 343 347 348 349 346 349 351 351 350 351 350 352 351 351 352 351 352 351 352 353 353 353 342 340 338 343 342 344 347
359 362 367 363 365 364 362 350 349 351 350 350 346 351 346 344 347 349 349 348 348 348 350 350 349 351 351 352 351 350 351 350 350 349 351 352 352 352 352 353 354 353 352 347 336 339 341 344 345
358 359 359 363 364 368 358 351 347 350 351 344 344 350 348 345 349 350 350 346 346 349 348 348 349 351 348 350 351 351 351 351 351 350 351 351 352 351 352 350 352 351 348 336 334 338 342 341 343
352 361 360 358 361 364 360 357 356 355 348 346 345 345 345 348 349 348 349 350 349 348 347 347 344 349 347 348 351 351 350 348 344 350 350 348 349 348 348 347 347 341 337 332 336 339 340 339 341
355 355 357 354 357 361 361 358 356 353 349 350 346 347 348 348 347 348 349 350 350 351 349 346 345 346 347 349 345 345 343 343 344 346 347 347 347 344 344 345 344 344 340 336 336 339 341 341 342
348 353 352 348 350 350 360 359 357 352 357 347 349 349 347 347 347 349 348 349 350 350 350 350 349 346 345 343 342 343 343 344 345 346 348 346 344 342 341 343 344 346 347 347 346 346 347 348 349
352 354 355 358 357 355 360 358 358 355 354 345 344 346 348 348 347 347 347 348 349 350 351 351 350 350 345 346 346 348 346 346 347 347 348 345 343 340 340 343 346 347 346 345 345 347 346 343 341
355 356 353 355 357 358 357 359 357 354 349 345 343 347 348 345 345 347 348 349 350 350 351 349 350 349 347 347 348 348 347 346 347 348 340 339 339 343 345 346 344 344 345 343 345 345 345 342 341
334 357 358 356 356 357 359 356 354 352 348 348 343 343 346 345 345 347 349 350 349 350 350 351 348 347 341 347 347 346 346 347 346 345 346 346 345 344 346 347 346 347 346 342 343 347 345 342 343
356 359 352 358 356 358 354 357 356 357 356 346 344 343 342 345 347 348 350 349 349 350 348 347 348 344 334 347 346 347 347 345 347 349 347 345 344 346 345 345 346 347 344 344 344 347 346 344 342
348 355 364 359 353 356 351 360 357 356 355 349 345 344 341 348 348 348 349 349 351 350 347 348 345 338 344 345 344 344 347 346 347 347 345 346 345 346 348 347 347 345 345 348 347 343 345 345 345
325 352 358 356 354 354 354 359 355 355 357 355 350 344 342 345 348 348 349 349 351 348 350 349 349 348 347 347 340 343 347 346 348 348 346 349 347 347 347 347 345 346 347 346 346 347 346 344 344
326 341 357 363 358 355 356 356 357 356 356 353 350 350 344 345 345 347 348 350 349 350 350 348 349 348 347 348 343 341 345 347 347 347 347 348 348 345 346 348 344 346 346 346 346 346 348 347 345
323 334 358 359 356 358 357 356 357 356 354 350 352 352 344 346 343 343 347 347 347 348 347 350 348 350 349 349 346 345 342 348 348 349 348 350 347 348 347 350 344 348 348 345 347 348 349 345 345
322 328 353 359 353 356 357 357 355 356 354 352 352 350 342 345 343 343 347 346 345 345 348 348 348 350 349 351 349 349 349 349 349 348 349 348 348 346 347 347 344 348 347 348 348 349 347 347 342
320 325 354 360 357 355 356 360 356 354 352 352 352 350 349 344 343 343 346 347 345 345 348 348 348 349 348 352 350 350 349 351 350 349 351 350 349 348 349 347 349 350 349 347 349 351 350 351 349
318 322 348 354 355 355 353 360 355 355 356 355 354 351 351 342 341 342 345 347 345 346 349 348 348 347 347 350 352 349 350 350 350 349 349 351 350 351 351 346 349 351 350 348 349 352 350 351 353
321 348 351 349 352 352 354 357 348 353 358 355 353 351 350 346 341 341 345 346 346 347 349 349 348 347 348 354 351 348 350 350 351 351 351 351 350 350 350 350 351 351 350 348 351 351 350 350 352
343 347 347 349 349 356 354 355 359 355 353 354 353 351 351 346 348 341 345 346 346 348 350 350 349 348 351 352 353 345 349 350 351 351 351 351 351 351 350 352 350 349 349 347 352 351 347 348 352
330 339 340 351 351 349 347 356 353 351 350 351 352 350 348 345 346 348 344 345 346 349 350 350 351 350 348 352 352 351 348 347 351 350 352 352 351 351 351 351 349 345 349 348 351 350 348 348 347
328 328 336 346 346 347 343 357 362 347 346 344 346 350 349 351 350 351 349 345 346 348 349 352 351 351 350 352 352 351 348 350 349 350 351 351 350 352 351 351 352 350 347 349 349 352 350 351 348
326 333 328 336 331 346 359 359 353 350 349 351 349 351 350 349 351 350 350 350 346 347 349 350 351 352 351 352 351 351 349 350 350 348 349 351 352 352 351 351 351 351 349 350 348 349 350 348 348
328 327 329 328 335 340 357 361 361 355 354 350 347 347 347 348 349 349 349 349 349 348 350 350 354 354 353 353 355 354 350 346 346 344 350 352 351 350 349 351 351 350 349 351 352 351 349 351 349
326 326 325 324 325 330 354 358 352 351 347 344 342 344 345 346 344 344 344 347 347 347 348 351 352 353 349 349 351 353 355 353 347 353 353 353 350 350 347 350 348 350 352 353 354 351 353 352 350
324 325 323 326 328 337 346 359 344 343 341 340 340 340 343 343 342 340 341 342 344 343 344 343 343 343 341 341 345 346 348 353 353 354 353 351 351 350 343 345 350 351 353 354 353 353 351 352 351

GFSSGP_925_thetae_111.txt.gz
Theta_e
344 345 347 349 357 357 364 361 355 351 348 344 340 345 350 350 352 350 347 347 344 346 346 349 348 350 350 350 349 349 350 347 341 345 351 351 351 351 349 351 351 350 351 351 351 351 350 350 349
339 349 349 355 361 364 362 357 356 352 347 341 344 349 352 355 350 349 348 346 345 347 349 349 350 350 350 349 350 350 350 350 347 349 351 352 350 353 353 353 353 351 351 352 351 350 350 350 349
348 347 353 357 359 365 365 356 352 349 344 344 352 349 352 355 348 347 348 346 347 350 350 349 343 349 349 345 349 349 350 350 347 348 351 351 351 352 352 352 353 353 351 351 350 349 348 348 349
349 346 352 362 361 360 359 352 349 349 348 349 352 354 349 348 348 348 348 346 347 349 344 346 350 350 350 350 350 348 347 349 350 345 351 353 353 353 353 346 352 351 351 351 350 347 349 349 347
350 353 359 365 362 357 354 349 347 349 350 351 349 352 349 347 348 348 347 347 344 344 343 348 350 349 351 350 350 351 351 348 351 351 350 353 353 353 353 346 347 352 350 350 349 345 345 344 343
357 356 365 366 362 359 351 347 349 352 351 350 351 350 347 348 348 347 345 341 345 346 342 349 346 348 349 347 351 348 350 350 350 350 351 352 352 352 353 353 353 352 351 350 343 342 345 344 342
359 361 362 363 363 358 353 348 351 351 351 351 347 350 347 347 346 346 343 342 347 346 346 349 347 349 348 350 350 350 351 350 348 349 350 350 351 352 353 354 353 352 351 349 342 341 345 344 342
357 356 358 359 362 363 352 352 349 350 350 345 344 351 350 344 348 349 346 348 348 349 347 348 349 348 349 350 350 351 351 351 349 351 351 352 352 353 353 351 351 352 349 341 340 341 343 345 346
352 359 360 359 363 361 354 354 354 348 347 346 345 345 343 349 350 350 351 350 350 351 350 349 349 347 349 349 350 350 350 350 351 350 350 351 350 351 350 350 352 350 345 336 338 341 342 342 343
354 353 358 354 358 358 357 356 352 349 348 349 346 344 348 349 349 349 349 350 351 351 350 347 348 346 349 349 349 346 348 345 347 347 347 347 347 345 345 347 343 338 335 337 339 340 340 341 342
351 352 353 352 356 355 356 356 352 349 352 348 348 349 349 348 347 348 349 348 348 348 350 345 345 345 346 345 344 342 344 344 345 344 344 346 344 343 343 345 345 345 345 344 344 343 344 346 347
350 348 350 356 352 350 357 354 353 351 352 346 348 348 348 346 348 348 348 348 348 350 348 346 343 344 342 342 343 343 344 344 345 344 342 342 341 342 343 345 345 345 345 344 345 346 345 345 345
348 353 355 356 353 355 356 357 356 353 348 347 348 348 347 346 348 347 347 348 349 350 349 349 347 345 341 343 346 346 346 346 346 346 344 340 339 340 342 344 344 344 344 344 345 347 342 340 340
336 355 357 357 358 357 356 356 352 352 351 349 348 348 347 346 347 346 347 348 349 350 350 349 348 346 345 346 347 347 346 346 346 342 339 339 340 342 345 345 345 345 346 342 345 347 344 342 342
353 356 357 358 357 358 354 357 353 350 346 349 349 348 347 345 346 347 348 348 349 350 350 349 349 347 344 346 345 345 346 345 345 345 343 345 345 343 344 345 345 346 343 344 346 345 344 345 343
353 352 360 358 355 355 351 361 354 356 353 349 349 349 347 344 346 348 348 348 349 350 349 349 348 341 340 345 345 345 345 346 347 347 346 347 345 346 345 344 346 346 344 347 345 344 345 345 345
322 348 356 354 354 357 353 358 353 354 350 349 345 345 347 345 347 348 349 349 349 349 348 348 347 344 336 345 345 346 346 346 346 344 346 346 345 346 347 347 347 345 346 346 345 346 345 344 343
326 344 355 356 354 356 356 355 356 354 350 348 350 344 346 348 347 348 348 349 349 348 347 347 345 339 345 343 339 341 346 346 345 346 346 346 347 346 347 347 345 347 347 346 346 347 347 345 344
322 323 344 359 355 358 357 356 357 354 352 352 351 351 348 348 347 348 348 350 350 348 348 347 348 347 346 347 340 342 346 345 346 347 346 348 347 346 346 347 344 346 347 345 346 348 346 344 344
321 323 356 356 354 357 357 359 355 354 352 352 350 350 346 347 347 348 348 349 348 349 348 347 348 347 347 348 343 341 342 345 348 347 347 347 346 346 344 346 344 347 347 347 348 348 348 348 346
320 321 336 360 356 355 357 360 358 354 352 350 348 349 348 344 345 346 347 347 346 349 349 349 347 348 348 350 347 348 348 348 348 348 348 348 348 345 345 346 344 348 347 346 348 349 349 351 350
320 319 327 357 354 358 352 359 358 355 354 351 349 349 349 344 343 345 346 345 344 346 347 348 347 349 348 351 349 349 349 348 349 347 350 349 349 348 347 347 347 350 349 346 348 350 350 351 352
320 327 325 351 349 349 355 355 346 354 357 354 349 346 349 344 342 346 345 345 344 345 347 347 347 349 348 350 350 350 348 348 348 348 349 350 350 348 350 345 347 349 349 348 350 348 350 350 352
343 345 344 343 346 351 351 353 354 357 355 351 349 349 350 346 344 341 345 345 343 347 348 347 348 348 347 349 350 350 349 349 349 350 350 351 350 349 349 348 350 350 349 348 349 349 347 348 350
343 337 345 351 349 349 347 355 352 350 350 352 352 350 350 346 344 348 343 345 344 348 349 348 348 348 350 352 352 351 347 349 349 350 351 350 349 350 350 349 350 349 349 347 347 349 348 348 346
341 332 338 345 349 345 349 354 355 348 347 347 350 349 349 348 347 347 347 345 345 347 349 348 348 348 350 352 352 351 349 348 350 350 350 351 351 350 351 350 350 349 346 349 349 349 347 350 348
327 330 326 332 331 343 352 357 353 349 349 349 350 349 349 350 349 347 348 348 345 346 350 349 349 348 348 351 351 351 348 343 347 350 350 351 350 350 351 350 350 351 350 348 348 350 351 348 348
323 324 328 325 335 339 353 357 360 352 350 348 347 348 346 346 351 348 348 348 346 346 348 352 350 349 349 353 351 351 350 349 349 349 349 348 350 350 350 350 350 350 349 348 350 349 349 348 349
326 325 321 321 324 336 349 353 349 351 346 347 346 345 346 346 347 347 348 348 346 347 349 351 351 351 350 352 353 352 351 350 349 345 345 349 349 350 349 349 350 350 349 349 350 350 351 350 351
323 324 321 325 328 341 342 353 345 346 343 342 343 345 344 344 342 344 344 346 344 345 344 343 344 349 348 349 349 350 351 350 350 351 349 352 351 349 348 348 351 350 348 351 352 353 352 350 351

GFSSGP_925_thetae_114.txt.gz
Theta_e
349 345 346 348 356 356 362 361 351 345 343 340 336 344 349 351 353 346 346 345 342 343 344 348 348 350 350 349 344 347 345 342 345 349 349 350 350 349 351 352 353 350 352 351 351 351 350 350 351
345 349 351 354 358 364 362 356 349 344 343 336 344 350 353 355 349 348 347 345 343 343 346 347 347 349 348 348 347 349 349 345 349 349 348 348 349 350 351 350 348 351 352 351 351 350 350 348 349
347 348 350 352 358 362 362 354 351 346 339 340 352 350 352 351 346 346 347 345 344 346 347 349 350 349 349 349 349 349 347 347 349 348 349 349 350 352 352 349 348 352 351 351 350 349 349 350 350
346 347 351 361 360 359 356 351 347 345 341 350 351 354 349 346 346 348 348 346 346 348 349 345 346 348 349 348 348 349 349 347 347 349 350 350 352 352 352 353 352 351 351 349 345 349 349 345 345
347 353 359 364 361 356 350 348 346 346 350 352 349 352 351 348 347 348 347 347 349 348 343 349 349 350 348 350 348 348 348 350 351 350 352 349 347 345 347 352 351 351 351 347 349 346 346 346 346
357 354 363 364 361 357 350 348 350 352 351 349 348 349 349 349 348 348 346 348 345 344 347 349 347 350 349 351 349 347 350 350 350 348 351 352 349 350 347 352 351 350 351 347 344 345 343 342 345
359 359 362 362 361 357 351 349 352 351 350 350 346 352 348 347 347 347 347 344 346 344 347 345 346 351 350 350 347 350 349 350 350 351 351 351 350 351 350 350 351 351 347 344 344 345 343 342 343
353 355 360 361 361 360 353 352 350 350 350 343 343 351 352 345 346 346 344 348 347 346 348 347 348 347 347 350 350 348 347 350 349 351 348 351 350 349 348 349 350 350 350 343 342 344 343 343 345
348 356 363 362 361 358 352 353 351 346 345 345 345 345 345 347 347 345 348 349 348 348 347 349 349 347 348 346 350 349 349 347 350 351 350 349 351 349 349 350 351 350 349 342 341 342 343 343 342
353 352 358 355 355 355 357 353 349 349 348 347 346 346 348 349 348 347 347 348 350 350 349 350 348 347 347 348 348 348 348 350 349 349 348 346 348 347 347 350 349 343 338 339 340 340 340 340 342
351 352 354 353 354 351 357 353 348 350 352 345 349 350 349 349 348 348 348 347 349 349 349 349 347 348 347 347 345 347 344 346 345 344 343 345 343 343 345 345 345 341 341 340 340 340 341 341 344
352 348 350 351 355 352 356 351 351 351 351 344 346 348 348 348 348 347 347 348 348 349 349 347 347 347 347 344 344 344 344 345 344 343 343 341 341 344 345 345 345 345 345 344 345 345 344 344 345
347 346 352 355 354 352 353 355 354 349 348 345 348 348 348 347 347 347 347 346 346 348 347 346 345 345 343 342 343 343 344 345 344 342 340 340 342 343 343 343 344 344 343 344 346 346 340 340 340
337 352 358 355 352 355 355 355 351 350 347 349 349 348 346 346 347 347 347 347 347 348 346 345 344 342 342 344 345 345 345 345 345 343 342 339 340 342 343 344 345 345 344 344 346 345 342 341 341
351 357 359 358 356 356 352 360 354 351 347 351 349 347 346 346 347 346 346 347 348 348 347 346 347 344 345 345 346 345 346 346 344 341 339 340 342 343 344 344 345 344 343 346 346 343 344 343 342
353 350 359 358 355 354 352 362 354 350 351 352 350 348 347 346 346 346 346 347 348 349 348 348 348 346 346 345 344 345 345 345 345 345 344 345 345 343 343 344 345 345 344 345 344 345 344 344 344
329 351 356 358 354 355 353 357 352 351 351 352 351 349 347 344 345 346 347 348 349 349 349 349 348 344 342 345 345 344 344 345 346 345 345 345 344 345 346 345 346 344 345 345 345 347 346 344 343
330 345 349 352 355 356 356 355 352 351 351 352 351 350 346 345 346 347 348 348 348 349 348 348 348 345 339 340 345 344 345 345 345 345 345 345 344 345 347 346 343 346 346 345 346 347 346 344 344
321 322 328 359 354 357 356 356 354 352 350 350 350 347 347 346 346 347 348 348 349 349 349 348 347 344 338 343 342 342 345 346 345 345 346 345 347 346 347 345 345 345 346 346 347 347 345 344 344
320 322 351 357 355 355 357 359 355 353 351 349 351 350 346 346 345 347 347 349 348 348 347 346 342 341 344 344 340 337 345 344 346 345 346 345 345 346 345 346 344 346 346 346 347 347 346 348 348
320 319 349 357 356 355 358 360 357 354 351 349 350 349 348 347 347 347 347 349 349 349 347 346 347 346 346 347 340 342 344 343 347 347 346 347 347 347 346 345 345 347 346 345 348 348 349 350 348
320 318 331 356 350 355 350 358 356 357 355 352 349 349 349 348 345 345 346 347 348 349 347 347 347 347 346 348 346 345 346 347 347 347 348 347 348 348 345 346 344 348 348 345 348 349 349 351 350
320 330 329 353 346 346 349 348 346 354 357 354 350 349 349 344 343 344 345 347 346 347 348 346 347 347 348 349 348 348 348 348 347 348 348 349 348 348 347 347 345 349 347 345 348 347 348 350 350
341 342 341 339 342 346 344 344 349 357 355 353 350 347 347 347 343 343 345 345 344 344 347 348 347 347 348 349 349 349 347 347 348 347 348 350 349 348 348 348 346 348 349 347 349 347 346 348 349
338 339 344 347 349 349 340 351 346 348 349 351 350 347 346 348 344 342 342 344 344 343 346 346 347 348 347 349 349 350 348 349 348 348 348 349 349 349 347 349 348 349 349 347 350 349 346 346 345
337 334 339 345 346 344 347 352 350 349 346 347 347 343 346 348 346 344 345 344 344 344 347 347 347 347 348 348 350 350 349 347 348 348 349 349 348 348 349 349 348 349 348 348 347 349 347 346 347
334 337 328 332 329 345 348 354 351 348 350 349 348 347 347 348 348 345 344 347 345 345 347 348 348 347 348 350 351 351 347 348 348 348 350 349 349 350 350 350 349 350 349 348 348 349 349 348 348
326 325 329 325 335 338 351 354 352 354 353 352 351 349 348 348 348 348 346 347 346 345 345 348 348 347 348 350 350 349 350 345 343 346 348 349 350 349 349 349 350 350 350 349 349 348 349 348 347
323 324 320 321 325 335 346 348 349 349 348 347 346 345 345 348 347 346 346 346 346 346 345 347 349 348 347 348 350 350 350 349 348 347 348 349 348 349 349 348 348 349 349 349 349 349 350 350 348
320 322 319 325 329 335 337 343 343 347 345 344 345 345 343 343 343 344 345 347 345 346 347 350 349 348 348 349 352 351 350 349 349 348 346 345 347 348 348 348 349 349 350 349 349 349 351 351 350

GFSSGP_925_thetae_117.txt.gz
Theta_e
346 346 345 349 360 361 364 359 348 338 339 336 333 341 349 353 352 348 345 346 345 346 349 349 347 346 350 346 345 345 344 345 349 347 349 350 349 348 347 348 353 351 351 351 350 351 351 351 351
348 349 350 356 364 365 366 354 344 338 339 335 346 350 353 356 348 347 347 346 346 347 349 350 346 347 349 349 345 344 345 348 347 347 346 348 351 351 350 350 352 352 351 351 350 349 350 349 350
346 349 353 357 361 366 363 351 342 343 338 345 353 351 352 351 346 346 347 347 347 348 349 350 348 348 346 345 347 347 346 348 347 350 348 348 351 352 352 352 352 352 351 351 351 350 350 351 351
346 348 353 362 365 360 357 348 345 342 344 351 351 355 348 345 346 347 348 348 348 349 349 351 349 349 344 346 349 349 348 348 349 349 346 346 353 352 352 352 352 351 345 344 350 350 346 347 348
348 353 360 364 362 355 351 347 344 342 344 352 350 353 351 348 349 348 348 348 348 349 348 349 344 350 347 346 342 347 350 350 351 350 347 347 347 352 352 351 352 347 347 349 347 349 347 347 350
357 356 364 366 360 353 351 348 344 348 351 350 349 349 351 349 348 349 348 349 348 346 349 350 349 348 349 348 349 346 346 347 347 349 349 347 348 351 352 351 351 349 350 349 345 344 342 343 343
359 361 363 362 358 355 353 350 352 352 351 349 346 350 349 348 348 348 349 348 345 347 351 350 350 350 348 349 349 349 347 347 348 351 349 347 347 349 348 350 350 348 349 348 344 343 342 342 343
352 357 362 362 359 360 352 351 349 350 350 345 344 350 351 347 347 348 346 346 346 348 349 349 350 350 350 347 347 351 349 349 349 347 352 350 351 351 348 349 350 350 347 342 343 343 343 343 343
347 361 364 361 360 358 351 352 348 346 346 346 346 345 345 347 347 345 346 348 347 349 350 349 348 349 349 350 350 346 348 351 347 350 348 349 352 351 348 348 350 348 343 340 341 341 342 342 343
355 358 360 356 356 356 353 352 349 347 349 350 349 347 346 347 345 343 346 347 347 348 349 350 348 349 349 350 349 350 350 350 350 350 348 351 350 349 348 348 349 346 339 339 340 340 340 342 346
354 355 355 354 353 351 352 350 347 349 351 349 350 350 348 346 342 342 346 346 348 347 348 349 349 350 350 350 348 348 349 348 349 347 346 347 348 349 349 348 347 347 342 345 345 344 346 347 349
352 349 352 352 353 352 353 347 348 351 351 344 346 346 345 344 342 342 346 346 349 348 348 350 349 347 348 347 347 346 346 346 346 347 344 342 347 348 348 347 345 345 344 345 345 345 342 342 344
344 344 349 351 354 351 351 350 350 350 346 345 346 346 346 346 346 345 346 346 348 348 348 349 349 348 346 343 345 346 347 346 346 346 341 342 347 346 344 343 347 343 343 345 346 342 341 341 341
340 351 356 355 355 353 354 351 351 349 346 348 348 348 348 348 348 347 346 345 347 347 348 348 349 348 343 344 343 344 344 345 345 344 342 342 343 343 343 344 347 344 344 345 345 343 342 342 344
351 358 359 356 356 356 350 355 354 349 349 350 350 350 349 348 348 346 346 346 347 347 347 347 347 345 343 344 345 345 345 346 346 341 340 340 342 343 344 344 346 343 345 345 343 344 344 348 345
356 357 365 360 357 355 354 356 351 350 350 351 351 350 350 349 348 347 347 347 348 348 348 347 346 344 344 346 345 345 345 345 344 340 341 343 343 343 343 344 345 344 345 345 347 347 349 348 348
346 359 359 364 356 356 356 360 354 351 351 352 350 350 350 350 349 348 347 348 349 349 349 349 348 345 345 345 344 344 344 345 345 345 345 344 344 344 346 345 344 345 345 346 347 351 350 349 347
353 343 349 357 359 357 357 358 356 353 352 352 352 350 350 350 350 348 348 348 350 350 350 350 349 345 342 344 344 344 344 345 345 344 345 345 344 345 346 345 344 345 346 348 350 348 347 347 346
329 327 340 357 356 359 358 358 357 355 353 353 352 349 351 349 348 348 348 349 350 350 350 350 350 347 338 340 345 346 348 346 345 345 345 344 344 345 347 346 345 346 348 346 347 349 348 351 349
325 327 359 359 357 358 358 359 356 355 354 353 352 349 349 349 348 349 349 349 350 351 350 350 349 346 344 341 344 345 346 345 348 344 345 344 345 346 345 345 345 346 350 345 348 346 352 353 348
325 327 353 356 359 357 358 362 359 355 353 350 350 348 348 348 349 350 349 350 350 351 350 350 348 345 343 344 342 339 344 344 347 348 347 345 345 345 346 346 346 346 348 350 349 350 351 354 352
328 323 337 357 354 354 355 360 360 357 356 352 352 350 348 349 348 348 349 350 350 350 350 349 347 341 347 346 345 344 347 348 348 348 347 347 346 346 346 345 345 345 348 346 351 350 353 355 354
327 325 330 344 352 351 357 354 354 356 360 357 352 351 350 347 346 349 349 349 349 350 350 349 349 347 348 348 348 348 345 345 348 349 346 346 347 348 347 345 346 347 348 346 349 348 350 354 353
340 337 344 348 350 344 346 350 354 361 360 357 353 351 350 348 346 346 348 348 349 349 349 349 350 349 348 347 349 348 347 347 346 349 350 349 352 351 348 346 346 348 348 347 350 347 348 350 351
345 341 351 354 353 345 346 352 348 352 351 355 355 351 350 348 348 347 347 348 348 348 349 349 350 350 348 350 349 348 347 347 347 348 346 348 351 350 348 348 345 349 349 347 350 349 347 349 350
338 336 335 340 347 343 352 355 351 350 349 349 352 351 349 348 348 348 346 347 347 347 348 349 350 351 351 350 350 349 348 348 351 351 351 349 350 347 345 348 346 348 349 348 346 352 352 347 351
334 336 332 339 340 346 352 352 353 350 352 350 352 350 349 350 349 347 346 346 347 347 348 349 350 350 351 351 348 349 350 347 348 348 349 351 346 346 347 348 348 348 348 347 348 353 351 349 347
332 330 330 336 345 343 355 356 353 354 354 353 352 351 349 349 349 348 347 348 348 346 348 349 350 349 350 348 349 348 349 347 347 346 348 351 349 349 349 349 348 350 350 349 347 351 351 350 351
328 331 330 332 335 338 346 353 353 353 351 354 351 349 349 349 349 349 346 348 349 348 347 350 350 350 350 349 348 348 348 349 345 346 347 348 349 350 349 349 348 349 351 351 349 349 352 352 352
323 327 330 334 337 339 342 344 346 349 349 349 350 350 348 347 348 348 347 347 347 348 349 350 352 351 351 347 347 349 348 348 349 348 346 347 348 348 349 349 348 349 348 349 348 347 351 353 353

GFSSGP_925_thetae_123.txt.gz
Theta_e
342 346 347 355 370 371 354 346 342 341 340 338 340 347 351 353 352 355 345 345 346 347 347 349 349 345 349 349 345 349 352 352 347 347 347 352 352 352 352 351 352 352 352 352 352 352 351 350 351
350 351 354 363 372 361 350 342 342 341 339 342 345 349 348 350 346 346 345 345 346 346 348 348 348 351 351 352 352 352 353 352 351 352 353 351 352 353 353 353 352 352 352 351 351 353 349 348 346
352 351 361 368 370 355 349 344 343 340 345 347 353 350 347 349 346 346 345 346 347 349 351 349 350 351 352 352 353 352 352 352 351 351 353 353 352 352 353 352 352 351 351 352 352 352 352 351 346
350 351 359 368 360 349 345 345 342 343 351 350 351 351 346 345 346 346 345 347 348 349 348 347 351 352 352 352 352 352 351 351 348 351 353 353 353 353 350 349 350 350 350 352 352 352 352 351 350
350 355 368 369 353 347 346 344 347 354 353 352 349 350 350 346 346 345 343 343 343 345 347 349 351 351 351 351 352 352 352 352 350 351 353 353 354 353 349 350 350 350 351 351 351 350 349 344 340
361 360 369 360 352 348 346 345 351 354 353 353 350 351 352 345 345 343 343 342 344 343 343 343 348 350 348 349 352 352 353 352 352 350 349 352 352 353 352 352 350 346 346 348 344 344 347 342 338
363 369 363 353 355 353 349 345 349 353 352 350 346 353 349 345 344 343 343 343 347 347 347 347 350 349 351 349 350 352 353 351 352 350 347 348 352 352 353 351 352 351 351 344 343 343 345 346 342
359 363 361 357 360 357 350 351 350 351 351 347 347 351 351 346 343 344 343 342 347 348 348 349 348 347 349 350 350 351 353 352 352 349 348 342 342 345 341 341 348 349 346 344 342 342 345 344 336
351 367 367 358 358 359 355 356 352 350 351 348 347 347 346 345 344 343 343 344 344 346 346 347 347 348 347 347 346 348 347 350 343 347 348 350 352 350 351 342 342 341 340 339 340 344 346 346 345
357 368 363 361 355 356 354 354 353 353 352 350 346 346 346 345 343 343 343 344 345 345 348 348 347 345 348 346 351 347 347 351 351 350 350 350 350 346 344 343 339 341 344 346 346 346 347 348 351
355 362 356 354 355 353 353 354 350 350 352 348 351 348 346 344 343 343 343 344 344 347 348 347 347 351 348 349 351 349 348 349 348 350 348 344 345 348 344 348 349 348 349 349 348 345 344 345 345
354 351 351 350 353 352 353 350 350 351 348 347 347 345 345 344 343 343 343 344 344 344 344 348 349 352 350 344 346 346 346 345 344 347 346 346 345 348 347 344 345 347 346 347 345 344 344 346 346
353 353 351 350 353 354 351 354 353 349 346 345 344 344 344 342 342 343 343 344 344 345 345 346 349 350 350 349 344 343 343 345 345 345 347 346 347 348 347 349 346 347 345 345 345 345 344 344 346
351 353 352 355 354 352 352 349 346 349 345 345 344 344 343 342 342 343 344 345 344 345 345 346 348 349 350 344 346 342 345 343 344 344 349 350 348 349 349 349 345 346 347 346 347 350 345 344 344
348 354 355 357 356 355 351 354 349 348 344 344 345 344 343 342 342 344 344 345 345 345 346 346 347 349 348 346 345 343 342 344 342 348 351 350 349 353 349 346 347 347 347 351 347 348 347 344 343
346 353 363 359 358 355 353 360 350 346 348 346 345 345 344 344 344 344 344 345 345 345 346 345 346 348 347 347 345 342 344 343 344 345 348 350 352 350 351 349 348 347 346 345 346 347 345 346 345
349 354 361 365 357 357 354 359 352 344 347 346 346 345 345 346 346 346 345 346 344 346 348 347 346 348 347 348 347 345 347 344 344 344 345 349 349 351 351 349 347 353 345 346 348 345 348 347 345
354 352 358 363 361 357 357 357 353 352 347 350 349 347 347 346 346 346 345 346 346 346 348 348 347 348 351 348 347 347 346 343 344 345 350 349 349 350 354 348 348 355 346 347 349 352 348 348 348
344 349 360 359 359 359 359 361 356 354 354 354 354 351 348 346 346 345 346 346 347 347 349 350 349 350 349 348 346 346 345 345 344 345 350 351 350 351 352 350 349 351 347 353 352 352 350 347 347
342 349 354 365 356 358 358 361 355 356 355 352 351 351 351 349 349 346 347 346 347 348 349 350 351 351 351 349 347 347 346 346 347 347 346 349 349 352 350 351 351 349 349 354 355 354 355 347 349
339 343 351 355 356 355 359 365 361 354 353 345 348 347 348 352 349 348 348 347 347 347 350 351 353 353 351 349 351 351 351 349 350 350 348 348 349 349 352 352 354 349 351 352 355 355 354 354 349
339 337 350 355 356 361 357 372 366 361 358 351 347 349 350 348 350 349 347 348 346 348 348 350 352 354 352 352 350 350 349 348 348 347 348 350 349 349 351 352 352 353 354 347 353 353 361 354 350
337 336 337 347 352 351 354 364 360 362 364 358 351 347 350 344 349 348 346 347 348 348 347 349 352 354 353 353 352 351 351 350 350 349 352 353 350 350 350 351 352 353 349 351 355 356 360 355 357
334 334 335 338 342 345 351 348 365 367 363 361 353 348 348 342 347 348 348 346 350 348 347 347 351 354 353 355 354 354 352 351 350 350 353 350 350 351 352 351 353 353 354 353 353 356 358 360 359
332 335 340 344 345 345 340 343 359 358 354 358 356 353 348 344 347 347 349 349 350 350 346 347 351 353 354 354 354 353 354 353 351 354 351 351 348 347 351 353 353 352 355 355 356 356 356 357 358
330 335 340 346 343 342 343 346 356 351 350 352 356 354 351 345 346 346 348 347 350 350 347 347 352 354 353 353 354 354 353 352 353 353 351 347 347 349 353 353 353 354 356 354 355 355 352 354 355
328 333 334 336 339 340 342 347 352 349 352 352 353 356 355 351 348 345 347 348 350 348 350 349 353 354 353 351 354 355 354 353 352 354 355 351 350 350 351 352 353 353 354 354 354 352 353 355 354
327 330 332 334 340 341 349 354 353 351 351 352 353 356 354 355 350 347 346 347 350 349 351 350 352 355 353 351 351 352 352 354 353 353 355 353 352 349 351 352 352 352 353 353 354 349 353 354 354
326 328 331 331 333 337 343 350 349 352 350 353 353 353 355 355 353 348 347 346 350 351 351 351 352 354 354 351 350 351 350 351 355 352 353 355 355 353 353 352 353 352 352 353 355 352 356 356 354
329 326 329 332 332 332 332 346 341 348 349 351 352 353 354 354 353 348 346 348 351 352 353 352 353 353 354 353 352 350 350 351 352 354 354 355 355 354 355 353 354 353 353 353 354 353 350 352 352

GFSSGP_925_thetae_126.txt.gz
Theta_e
337 341 350 353 368 371 350 346 341 340 340 347 348 350 350 350 349 357 346 346 346 347 349 348 344 342 342 342 344 346 345 344 348 350 351 351 351 351 352 352 352 353 352 352 352 350 350 352 345
349 350 352 361 370 364 347 343 343 341 342 351 351 346 348 350 347 347 348 347 347 348 348 348 347 348 345 346 349 349 347 346 348 348 351 352 352 352 352 353 352 352 351 353 349 348 346 347 340
352 352 361 364 367 352 347 343 342 342 346 351 351 344 346 348 346 348 347 347 349 350 349 350 347 350 351 351 351 351 352 350 351 348 352 353 353 353 353 351 351 352 352 353 353 353 350 340 337
353 353 359 371 368 345 345 342 342 351 349 346 345 347 346 344 346 347 346 347 349 351 349 346 350 351 352 351 351 351 348 348 350 352 353 353 352 352 351 351 348 352 352 351 352 352 351 339 330
349 355 368 368 358 346 344 345 349 351 352 346 345 348 349 343 343 346 347 346 347 349 350 351 350 352 352 351 352 351 349 349 351 352 354 353 350 350 347 347 352 352 352 352 352 348 340 331 327
362 361 365 365 348 346 352 354 354 354 353 346 347 348 346 343 342 346 347 346 344 346 346 347 348 350 352 352 353 352 352 348 347 351 353 351 350 351 351 349 349 351 351 350 348 344 337 332 328
363 365 366 351 351 349 355 352 353 351 349 348 345 348 346 343 342 344 345 344 343 342 347 348 347 348 349 352 353 353 352 347 345 345 347 347 350 349 350 346 348 352 348 343 343 342 336 331 335
359 361 367 353 353 353 347 353 351 351 350 346 345 347 349 344 343 345 346 347 347 347 350 351 348 350 348 349 352 353 349 346 344 343 342 338 339 341 341 343 344 342 340 340 343 340 334 334 337
354 365 365 355 355 354 352 356 352 349 349 347 346 346 344 342 343 345 346 347 348 348 347 349 348 351 348 348 351 351 345 342 344 343 347 349 350 351 351 341 339 339 341 342 343 345 342 341 340
359 362 363 353 356 358 354 354 354 349 348 348 347 344 342 343 342 344 345 347 347 346 348 347 347 349 346 345 347 350 350 350 350 350 347 348 351 344 342 339 341 344 345 345 345 346 347 347 349
355 360 355 353 356 352 354 354 352 352 349 348 349 345 344 342 343 343 345 346 348 348 346 348 348 348 348 350 349 350 350 349 348 349 343 343 340 340 340 340 344 348 348 347 346 348 348 349 351
355 357 352 354 353 353 355 352 351 349 348 347 346 345 343 343 343 342 344 346 347 348 346 349 353 350 349 352 350 348 351 344 348 347 346 347 345 340 347 345 348 344 347 348 345 344 346 346 346
353 352 350 353 354 352 353 355 352 349 347 346 345 344 343 343 343 343 343 344 348 349 350 349 351 349 347 347 346 345 345 347 341 345 347 348 348 349 344 347 347 349 347 345 348 345 344 347 347
352 352 354 355 354 354 354 348 348 346 345 345 344 344 342 342 343 344 343 344 343 344 348 348 350 351 348 345 343 345 344 344 346 348 350 349 348 350 348 348 349 344 345 346 348 347 345 345 346
351 356 358 356 354 354 351 352 348 346 345 345 344 343 342 342 343 346 345 344 346 344 346 348 348 348 345 343 342 345 343 345 346 348 337 352 348 350 347 349 347 344 348 348 349 348 345 343 345
350 355 364 358 357 354 352 359 346 344 348 344 343 342 342 342 343 344 345 345 343 346 345 346 349 345 345 346 344 343 344 346 346 346 349 351 352 350 353 348 342 348 350 348 346 349 346 347 346
348 362 361 365 357 356 357 359 348 346 345 346 344 343 343 343 344 344 344 345 345 347 345 348 347 348 345 346 347 347 345 344 344 347 346 349 349 351 346 350 347 352 354 349 351 350 349 347 347
353 352 358 364 360 358 357 358 345 344 345 349 345 344 345 345 347 345 345 345 347 348 346 346 348 347 344 350 346 344 345 344 347 347 348 347 348 343 345 351 349 354 352 349 350 349 348 349 348
349 349 352 361 356 360 360 358 351 347 349 353 349 344 346 345 346 345 346 347 346 348 347 349 351 349 349 350 345 347 349 345 350 349 349 349 349 349 352 352 352 351 352 350 353 354 356 351 348
344 345 352 354 354 358 360 360 352 352 354 355 355 354 352 348 346 346 347 348 348 350 348 349 350 349 347 348 349 348 344 347 345 351 348 348 348 349 350 350 350 351 353 350 353 353 357 353 348
343 343 355 351 354 358 360 363 361 353 354 353 351 347 346 352 349 348 348 349 349 350 350 350 349 352 351 349 348 347 348 348 347 347 347 350 346 348 351 353 351 353 349 352 352 354 360 359 354
340 343 355 352 358 371 356 372 363 358 353 354 351 344 347 351 349 346 347 348 349 351 349 352 352 352 352 350 351 351 348 349 348 350 348 347 347 348 348 351 352 353 334 350 354 353 356 357 359
338 339 344 345 353 360 362 367 364 360 358 353 349 348 346 350 347 349 348 343 347 351 353 352 352 353 352 350 351 349 351 350 349 347 350 350 349 349 350 351 352 353 353 353 354 351 355 358 356
336 338 341 344 353 366 359 360 359 367 362 358 351 347 345 349 346 344 348 348 348 347 348 355 353 352 351 353 351 352 353 350 351 351 351 352 349 348 349 351 352 353 353 354 352 354 358 354 357
333 336 340 341 352 352 346 351 358 357 358 360 355 353 347 349 344 343 348 349 349 348 347 352 354 353 354 354 355 355 352 352 350 351 353 350 349 350 350 350 351 353 351 356 356 355 357 356 353
332 334 338 349 344 344 343 354 357 356 348 354 357 354 349 350 346 348 350 347 345 347 349 350 356 354 354 354 354 354 355 355 354 353 353 351 350 348 352 350 354 350 352 354 354 356 352 357 354
331 330 331 334 341 342 345 350 356 348 346 354 358 356 351 351 346 347 350 345 345 344 346 354 355 356 356 355 353 353 355 353 354 353 350 350 351 351 351 354 354 351 354 354 355 352 354 353 355
327 329 330 331 339 344 344 349 354 357 354 356 358 355 354 351 347 346 349 345 341 342 346 355 356 356 354 354 354 354 355 354 355 355 355 354 351 351 353 352 351 351 350 353 352 354 353 349 352
325 326 329 331 332 338 350 356 352 351 348 349 351 356 355 351 348 348 348 351 348 345 347 354 356 357 355 353 353 353 354 354 354 354 355 355 356 351 350 350 352 349 353 353 352 352 349 353 355
326 325 326 332 334 333 334 337 348 344 344 347 349 353 356 353 352 351 347 346 352 346 349 349 356 356 355 352 352 353 352 355 355 354 353 354 355 354 354 352 353 353 353 352 353 354 351 353 353